<?xml version="1.0" encoding="UTF-8" standalone="no" ?>
<gpx xmlns="http://www.topografix.com/GPX/1/1" xmlns:xsi="http://www.w3.org/2001/XMLSchema-instance" xsi:schemaLocation="http://www.topografix.com/GPX/1/1 http://www.topografix.com/GPX/1/1/gpx.xsd" version="1.1" creator="VisuGPX - https://www.visugpx.com">
  <metadata>
    <name>Pipay</name>
    <desc><![CDATA[
]]></desc>
  </metadata>
  <trk>
    <name><![CDATA[Pipay_1]]></name>
    <extensions>
      <line xmlns="http://www.topografix.com/GPX/gpx_style/0/2">
        <color>0000FF</color>
        <width>4</width>
      </line>
    </extensions>
    <trkseg>
      <trkpt lat="45.26453" lon="6.01501">
        <ele>1573.4549560547</ele>
        <time>2017-12-01T08:23:07Z</time>
      </trkpt>
      <trkpt lat="45.26458" lon="6.01501">
        <ele>1571.4549560547</ele>
        <time>2017-12-01T08:23:23Z</time>
      </trkpt>
      <trkpt lat="45.26463" lon="6.01504">
        <ele>1558.4549560547</ele>
        <time>2017-12-01T08:23:59Z</time>
      </trkpt>
      <trkpt lat="45.2646" lon="6.01509">
        <ele>1557.4549560547</ele>
        <time>2017-12-01T08:24:56Z</time>
      </trkpt>
      <trkpt lat="45.26457" lon="6.01516">
        <ele>1555.4549560547</ele>
        <time>2017-12-01T08:25:07Z</time>
      </trkpt>
      <trkpt lat="45.26454" lon="6.01521">
        <ele>1557.4549560547</ele>
        <time>2017-12-01T08:25:12Z</time>
      </trkpt>
      <trkpt lat="45.26452" lon="6.01529">
        <ele>1556.4549560547</ele>
        <time>2017-12-01T08:25:17Z</time>
      </trkpt>
      <trkpt lat="45.26449" lon="6.01535">
        <ele>1557.4549560547</ele>
        <time>2017-12-01T08:25:23Z</time>
      </trkpt>
      <trkpt lat="45.26451" lon="6.01542">
        <ele>1559.4549560547</ele>
        <time>2017-12-01T08:25:31Z</time>
      </trkpt>
      <trkpt lat="45.26451" lon="6.01549">
        <ele>1559.4549560547</ele>
        <time>2017-12-01T08:25:42Z</time>
      </trkpt>
      <trkpt lat="45.26453" lon="6.01554">
        <ele>1559.4549560547</ele>
        <time>2017-12-01T08:25:47Z</time>
      </trkpt>
      <trkpt lat="45.26458" lon="6.01559">
        <ele>1561.4549560547</ele>
        <time>2017-12-01T08:25:51Z</time>
      </trkpt>
      <trkpt lat="45.2646" lon="6.01565">
        <ele>1561.4549560547</ele>
        <time>2017-12-01T08:25:55Z</time>
      </trkpt>
      <trkpt lat="45.26462" lon="6.01571">
        <ele>1563.4549560547</ele>
        <time>2017-12-01T08:26:01Z</time>
      </trkpt>
      <trkpt lat="45.26464" lon="6.01577">
        <ele>1560.4549560547</ele>
        <time>2017-12-01T08:26:08Z</time>
      </trkpt>
      <trkpt lat="45.26466" lon="6.01582">
        <ele>1560.4549560547</ele>
        <time>2017-12-01T08:26:18Z</time>
      </trkpt>
      <trkpt lat="45.26469" lon="6.01589">
        <ele>1554.4549560547</ele>
        <time>2017-12-01T08:26:23Z</time>
      </trkpt>
      <trkpt lat="45.26474" lon="6.01593">
        <ele>1557.4549560547</ele>
        <time>2017-12-01T08:26:26Z</time>
      </trkpt>
      <trkpt lat="45.26477" lon="6.01597">
        <ele>1555.4549560547</ele>
        <time>2017-12-01T08:26:29Z</time>
      </trkpt>
      <trkpt lat="45.26481" lon="6.01602">
        <ele>1556.4549560547</ele>
        <time>2017-12-01T08:26:33Z</time>
      </trkpt>
      <trkpt lat="45.26486" lon="6.01606">
        <ele>1555.4549560547</ele>
        <time>2017-12-01T08:26:38Z</time>
      </trkpt>
      <trkpt lat="45.26492" lon="6.0161">
        <ele>1557.4549560547</ele>
        <time>2017-12-01T08:26:42Z</time>
      </trkpt>
      <trkpt lat="45.26496" lon="6.01615">
        <ele>1559.4549560547</ele>
        <time>2017-12-01T08:26:49Z</time>
      </trkpt>
      <trkpt lat="45.26499" lon="6.01621">
        <ele>1560.4549560547</ele>
        <time>2017-12-01T08:26:53Z</time>
      </trkpt>
      <trkpt lat="45.26503" lon="6.01625">
        <ele>1564.4549560547</ele>
        <time>2017-12-01T08:26:57Z</time>
      </trkpt>
      <trkpt lat="45.26506" lon="6.01631">
        <ele>1565.4549560547</ele>
        <time>2017-12-01T08:27:03Z</time>
      </trkpt>
      <trkpt lat="45.26509" lon="6.01638">
        <ele>1567.4549560547</ele>
        <time>2017-12-01T08:27:07Z</time>
      </trkpt>
      <trkpt lat="45.26508" lon="6.01646">
        <ele>1568.4549560547</ele>
        <time>2017-12-01T08:27:12Z</time>
      </trkpt>
      <trkpt lat="45.26506" lon="6.01652">
        <ele>1568.4549560547</ele>
        <time>2017-12-01T08:27:16Z</time>
      </trkpt>
      <trkpt lat="45.26508" lon="6.01659">
        <ele>1568.4549560547</ele>
        <time>2017-12-01T08:27:20Z</time>
      </trkpt>
      <trkpt lat="45.26508" lon="6.01669">
        <ele>1566.4549560547</ele>
        <time>2017-12-01T08:27:25Z</time>
      </trkpt>
      <trkpt lat="45.26508" lon="6.01676">
        <ele>1569.4549560547</ele>
        <time>2017-12-01T08:27:30Z</time>
      </trkpt>
      <trkpt lat="45.26507" lon="6.01684">
        <ele>1565.4549560547</ele>
        <time>2017-12-01T08:27:34Z</time>
      </trkpt>
      <trkpt lat="45.26508" lon="6.01691">
        <ele>1565.4549560547</ele>
        <time>2017-12-01T08:27:38Z</time>
      </trkpt>
      <trkpt lat="45.26508" lon="6.01699">
        <ele>1567.4549560547</ele>
        <time>2017-12-01T08:27:44Z</time>
      </trkpt>
      <trkpt lat="45.2651" lon="6.01706">
        <ele>1567.4549560547</ele>
        <time>2017-12-01T08:27:47Z</time>
      </trkpt>
      <trkpt lat="45.2651" lon="6.01713">
        <ele>1570.4549560547</ele>
        <time>2017-12-01T08:27:52Z</time>
      </trkpt>
      <trkpt lat="45.26509" lon="6.0172">
        <ele>1571.4549560547</ele>
        <time>2017-12-01T08:27:56Z</time>
      </trkpt>
      <trkpt lat="45.2651" lon="6.01728">
        <ele>1571.4549560547</ele>
        <time>2017-12-01T08:28:02Z</time>
      </trkpt>
      <trkpt lat="45.2651" lon="6.01735">
        <ele>1571.4549560547</ele>
        <time>2017-12-01T08:28:05Z</time>
      </trkpt>
      <trkpt lat="45.26511" lon="6.01742">
        <ele>1576.4549560547</ele>
        <time>2017-12-01T08:28:11Z</time>
      </trkpt>
      <trkpt lat="45.26512" lon="6.01751">
        <ele>1571.4549560547</ele>
        <time>2017-12-01T08:28:16Z</time>
      </trkpt>
      <trkpt lat="45.26511" lon="6.01758">
        <ele>1572.4549560547</ele>
        <time>2017-12-01T08:28:19Z</time>
      </trkpt>
      <trkpt lat="45.26512" lon="6.01765">
        <ele>1576.4549560547</ele>
        <time>2017-12-01T08:28:25Z</time>
      </trkpt>
      <trkpt lat="45.26512" lon="6.01773">
        <ele>1579.4549560547</ele>
        <time>2017-12-01T08:28:31Z</time>
      </trkpt>
      <trkpt lat="45.26509" lon="6.01778">
        <ele>1581.4549560547</ele>
        <time>2017-12-01T08:28:38Z</time>
      </trkpt>
      <trkpt lat="45.26507" lon="6.01784">
        <ele>1582.4549560547</ele>
        <time>2017-12-01T08:28:42Z</time>
      </trkpt>
      <trkpt lat="45.26503" lon="6.01792">
        <ele>1586.4549560547</ele>
        <time>2017-12-01T08:28:48Z</time>
      </trkpt>
      <trkpt lat="45.26501" lon="6.01798">
        <ele>1587.4549560547</ele>
        <time>2017-12-01T08:28:53Z</time>
      </trkpt>
      <trkpt lat="45.26499" lon="6.01805">
        <ele>1588.4549560547</ele>
        <time>2017-12-01T08:28:58Z</time>
      </trkpt>
      <trkpt lat="45.26497" lon="6.01811">
        <ele>1587.4549560547</ele>
        <time>2017-12-01T08:29:02Z</time>
      </trkpt>
      <trkpt lat="45.26498" lon="6.01818">
        <ele>1585.4549560547</ele>
        <time>2017-12-01T08:29:09Z</time>
      </trkpt>
      <trkpt lat="45.26497" lon="6.01825">
        <ele>1587.4549560547</ele>
        <time>2017-12-01T08:29:14Z</time>
      </trkpt>
      <trkpt lat="45.26497" lon="6.01835">
        <ele>1586.4560546875</ele>
        <time>2017-12-01T08:29:23Z</time>
      </trkpt>
      <trkpt lat="45.26496" lon="6.01841">
        <ele>1589.4560546875</ele>
        <time>2017-12-01T08:29:29Z</time>
      </trkpt>
      <trkpt lat="45.26496" lon="6.01848">
        <ele>1590.4560546875</ele>
        <time>2017-12-01T08:29:34Z</time>
      </trkpt>
      <trkpt lat="45.26494" lon="6.01855">
        <ele>1592.4560546875</ele>
        <time>2017-12-01T08:29:38Z</time>
      </trkpt>
      <trkpt lat="45.26492" lon="6.01861">
        <ele>1591.4560546875</ele>
        <time>2017-12-01T08:29:44Z</time>
      </trkpt>
      <trkpt lat="45.26491" lon="6.01868">
        <ele>1109.4560546875</ele>
        <time>2017-12-01T08:29:49Z</time>
      </trkpt>
      <trkpt lat="45.26486" lon="6.01896">
        <ele>1550.4560546875</ele>
        <time>2017-12-01T08:30:21Z</time>
      </trkpt>
      <trkpt lat="45.26484" lon="6.01905">
        <ele>1577.4560546875</ele>
        <time>2017-12-01T08:30:23Z</time>
      </trkpt>
      <trkpt lat="45.26484" lon="6.01912">
        <ele>1597.4560546875</ele>
        <time>2017-12-01T08:30:30Z</time>
      </trkpt>
      <trkpt lat="45.26482" lon="6.01918">
        <ele>1600.4560546875</ele>
        <time>2017-12-01T08:31:01Z</time>
      </trkpt>
      <trkpt lat="45.2648" lon="6.01924">
        <ele>1605.4560546875</ele>
        <time>2017-12-01T08:31:07Z</time>
      </trkpt>
      <trkpt lat="45.26479" lon="6.01931">
        <ele>1603.4560546875</ele>
        <time>2017-12-01T08:31:14Z</time>
      </trkpt>
      <trkpt lat="45.26477" lon="6.01938">
        <ele>1604.4560546875</ele>
        <time>2017-12-01T08:31:23Z</time>
      </trkpt>
      <trkpt lat="45.26474" lon="6.01944">
        <ele>1606.4560546875</ele>
        <time>2017-12-01T08:31:28Z</time>
      </trkpt>
      <trkpt lat="45.26474" lon="6.0195">
        <ele>1608.4560546875</ele>
        <time>2017-12-01T08:31:36Z</time>
      </trkpt>
      <trkpt lat="45.26471" lon="6.01956">
        <ele>1608.4560546875</ele>
        <time>2017-12-01T08:31:39Z</time>
      </trkpt>
      <trkpt lat="45.26475" lon="6.01959">
        <ele>1608.4560546875</ele>
        <time>2017-12-01T08:31:43Z</time>
      </trkpt>
      <trkpt lat="45.26479" lon="6.01963">
        <ele>1613.4560546875</ele>
        <time>2017-12-01T08:31:48Z</time>
      </trkpt>
      <trkpt lat="45.26484" lon="6.01967">
        <ele>1615.4560546875</ele>
        <time>2017-12-01T08:31:54Z</time>
      </trkpt>
      <trkpt lat="45.26485" lon="6.01974">
        <ele>1616.4560546875</ele>
        <time>2017-12-01T08:32:03Z</time>
      </trkpt>
      <trkpt lat="45.26489" lon="6.01978">
        <ele>1618.4560546875</ele>
        <time>2017-12-01T08:32:10Z</time>
      </trkpt>
      <trkpt lat="45.26492" lon="6.01983">
        <ele>1620.4560546875</ele>
        <time>2017-12-01T08:32:19Z</time>
      </trkpt>
      <trkpt lat="45.26496" lon="6.01987">
        <ele>1621.4560546875</ele>
        <time>2017-12-01T08:32:26Z</time>
      </trkpt>
      <trkpt lat="45.26499" lon="6.01992">
        <ele>1624.4560546875</ele>
        <time>2017-12-01T08:32:34Z</time>
      </trkpt>
      <trkpt lat="45.26503" lon="6.01996">
        <ele>1627.4560546875</ele>
        <time>2017-12-01T08:32:46Z</time>
      </trkpt>
      <trkpt lat="45.26501" lon="6.02002">
        <ele>1629.4560546875</ele>
        <time>2017-12-01T08:32:53Z</time>
      </trkpt>
      <trkpt lat="45.26501" lon="6.02009">
        <ele>1627.4560546875</ele>
        <time>2017-12-01T08:33:04Z</time>
      </trkpt>
      <trkpt lat="45.265" lon="6.02016">
        <ele>1629.4560546875</ele>
        <time>2017-12-01T08:33:13Z</time>
      </trkpt>
      <trkpt lat="45.26498" lon="6.02023">
        <ele>1628.4560546875</ele>
        <time>2017-12-01T08:33:18Z</time>
      </trkpt>
      <trkpt lat="45.26498" lon="6.02031">
        <ele>1631.4560546875</ele>
        <time>2017-12-01T08:33:24Z</time>
      </trkpt>
      <trkpt lat="45.26495" lon="6.02037">
        <ele>1632.4560546875</ele>
        <time>2017-12-01T08:33:30Z</time>
      </trkpt>
      <trkpt lat="45.26494" lon="6.02045">
        <ele>1630.4560546875</ele>
        <time>2017-12-01T08:33:40Z</time>
      </trkpt>
      <trkpt lat="45.26491" lon="6.02049">
        <ele>1635.4560546875</ele>
        <time>2017-12-01T08:33:44Z</time>
      </trkpt>
      <trkpt lat="45.26488" lon="6.02056">
        <ele>1638.4560546875</ele>
        <time>2017-12-01T08:33:52Z</time>
      </trkpt>
      <trkpt lat="45.26485" lon="6.0206">
        <ele>1639.4560546875</ele>
        <time>2017-12-01T08:33:59Z</time>
      </trkpt>
      <trkpt lat="45.26481" lon="6.02065">
        <ele>1640.4560546875</ele>
        <time>2017-12-01T08:34:07Z</time>
      </trkpt>
      <trkpt lat="45.26477" lon="6.0207">
        <ele>1640.4560546875</ele>
        <time>2017-12-01T08:34:12Z</time>
      </trkpt>
      <trkpt lat="45.26474" lon="6.02076">
        <ele>1640.4560546875</ele>
        <time>2017-12-01T08:34:17Z</time>
      </trkpt>
      <trkpt lat="45.2647" lon="6.02081">
        <ele>1640.4560546875</ele>
        <time>2017-12-01T08:34:26Z</time>
      </trkpt>
      <trkpt lat="45.26466" lon="6.02088">
        <ele>1647.4560546875</ele>
        <time>2017-12-01T08:34:31Z</time>
      </trkpt>
      <trkpt lat="45.26464" lon="6.02093">
        <ele>1648.4560546875</ele>
        <time>2017-12-01T08:34:40Z</time>
      </trkpt>
      <trkpt lat="45.2646" lon="6.02099">
        <ele>1646.4560546875</ele>
        <time>2017-12-01T08:34:46Z</time>
      </trkpt>
      <trkpt lat="45.26458" lon="6.02105">
        <ele>1646.4560546875</ele>
        <time>2017-12-01T08:34:54Z</time>
      </trkpt>
      <trkpt lat="45.26454" lon="6.02111">
        <ele>1647.4560546875</ele>
        <time>2017-12-01T08:34:59Z</time>
      </trkpt>
      <trkpt lat="45.26449" lon="6.02116">
        <ele>1647.4560546875</ele>
        <time>2017-12-01T08:35:11Z</time>
      </trkpt>
      <trkpt lat="45.26445" lon="6.02119">
        <ele>1649.4560546875</ele>
        <time>2017-12-01T08:35:19Z</time>
      </trkpt>
      <trkpt lat="45.26444" lon="6.02126">
        <ele>1658.4560546875</ele>
        <time>2017-12-01T08:35:26Z</time>
      </trkpt>
      <trkpt lat="45.26444" lon="6.02133">
        <ele>1662.4560546875</ele>
        <time>2017-12-01T08:35:35Z</time>
      </trkpt>
      <trkpt lat="45.26442" lon="6.02139">
        <ele>1662.4560546875</ele>
        <time>2017-12-01T08:35:42Z</time>
      </trkpt>
      <trkpt lat="45.2644" lon="6.02146">
        <ele>1660.4560546875</ele>
        <time>2017-12-01T08:35:49Z</time>
      </trkpt>
      <trkpt lat="45.26442" lon="6.02152">
        <ele>1661.4560546875</ele>
        <time>2017-12-01T08:36:00Z</time>
      </trkpt>
      <trkpt lat="45.26445" lon="6.02157">
        <ele>1661.4560546875</ele>
        <time>2017-12-01T08:36:10Z</time>
      </trkpt>
      <trkpt lat="45.26446" lon="6.02164">
        <ele>1664.4560546875</ele>
        <time>2017-12-01T08:36:19Z</time>
      </trkpt>
      <trkpt lat="45.26451" lon="6.0217">
        <ele>1662.4560546875</ele>
        <time>2017-12-01T08:36:25Z</time>
      </trkpt>
      <trkpt lat="45.26454" lon="6.02176">
        <ele>1663.4560546875</ele>
        <time>2017-12-01T08:36:31Z</time>
      </trkpt>
      <trkpt lat="45.26455" lon="6.02182">
        <ele>1665.4560546875</ele>
        <time>2017-12-01T08:36:43Z</time>
      </trkpt>
      <trkpt lat="45.26457" lon="6.0219">
        <ele>1669.4560546875</ele>
        <time>2017-12-01T08:36:50Z</time>
      </trkpt>
      <trkpt lat="45.2646" lon="6.02196">
        <ele>1670.4560546875</ele>
        <time>2017-12-01T08:36:58Z</time>
      </trkpt>
      <trkpt lat="45.26462" lon="6.02202">
        <ele>1674.4560546875</ele>
        <time>2017-12-01T08:37:08Z</time>
      </trkpt>
      <trkpt lat="45.26466" lon="6.02207">
        <ele>1677.4560546875</ele>
        <time>2017-12-01T08:39:34Z</time>
      </trkpt>
      <trkpt lat="45.26468" lon="6.02214">
        <ele>1677.4560546875</ele>
        <time>2017-12-01T08:39:44Z</time>
      </trkpt>
      <trkpt lat="45.26471" lon="6.02221">
        <ele>1679.4560546875</ele>
        <time>2017-12-01T08:39:49Z</time>
      </trkpt>
      <trkpt lat="45.26474" lon="6.02225">
        <ele>1681.4560546875</ele>
        <time>2017-12-01T08:39:54Z</time>
      </trkpt>
      <trkpt lat="45.26477" lon="6.02232">
        <ele>1683.4560546875</ele>
        <time>2017-12-01T08:39:59Z</time>
      </trkpt>
      <trkpt lat="45.26479" lon="6.02239">
        <ele>1683.4560546875</ele>
        <time>2017-12-01T08:40:03Z</time>
      </trkpt>
      <trkpt lat="45.26481" lon="6.02246">
        <ele>1688.4560546875</ele>
        <time>2017-12-01T08:40:12Z</time>
      </trkpt>
      <trkpt lat="45.26483" lon="6.02252">
        <ele>1689.4560546875</ele>
        <time>2017-12-01T08:40:20Z</time>
      </trkpt>
      <trkpt lat="45.26484" lon="6.02259">
        <ele>1689.4560546875</ele>
        <time>2017-12-01T08:40:29Z</time>
      </trkpt>
      <trkpt lat="45.26485" lon="6.02265">
        <ele>1694.4560546875</ele>
        <time>2017-12-01T08:40:38Z</time>
      </trkpt>
      <trkpt lat="45.26484" lon="6.02272">
        <ele>1697.4560546875</ele>
        <time>2017-12-01T08:40:44Z</time>
      </trkpt>
      <trkpt lat="45.26484" lon="6.02278">
        <ele>1696.4560546875</ele>
        <time>2017-12-01T08:40:51Z</time>
      </trkpt>
      <trkpt lat="45.26483" lon="6.02285">
        <ele>1693.4560546875</ele>
        <time>2017-12-01T08:40:58Z</time>
      </trkpt>
      <trkpt lat="45.26483" lon="6.02293">
        <ele>1696.4560546875</ele>
        <time>2017-12-01T08:41:04Z</time>
      </trkpt>
      <trkpt lat="45.2648" lon="6.023">
        <ele>1696.4560546875</ele>
        <time>2017-12-01T08:41:09Z</time>
      </trkpt>
      <trkpt lat="45.2648" lon="6.02308">
        <ele>1696.4560546875</ele>
        <time>2017-12-01T08:41:15Z</time>
      </trkpt>
      <trkpt lat="45.26478" lon="6.02314">
        <ele>1694.4560546875</ele>
        <time>2017-12-01T08:41:20Z</time>
      </trkpt>
      <trkpt lat="45.26477" lon="6.0232">
        <ele>1700.4560546875</ele>
        <time>2017-12-01T08:41:29Z</time>
      </trkpt>
      <trkpt lat="45.26474" lon="6.02326">
        <ele>1703.4560546875</ele>
        <time>2017-12-01T08:41:33Z</time>
      </trkpt>
      <trkpt lat="45.26472" lon="6.02332">
        <ele>1702.4560546875</ele>
        <time>2017-12-01T08:41:37Z</time>
      </trkpt>
      <trkpt lat="45.26469" lon="6.02339">
        <ele>1701.4560546875</ele>
        <time>2017-12-01T08:41:43Z</time>
      </trkpt>
      <trkpt lat="45.26469" lon="6.02346">
        <ele>1682.4560546875</ele>
        <time>2017-12-01T08:41:48Z</time>
      </trkpt>
      <trkpt lat="45.26471" lon="6.02352">
        <ele>1694.4560546875</ele>
        <time>2017-12-01T08:41:55Z</time>
      </trkpt>
      <trkpt lat="45.26472" lon="6.02359">
        <ele>1698.4560546875</ele>
        <time>2017-12-01T08:42:03Z</time>
      </trkpt>
      <trkpt lat="45.26472" lon="6.02366">
        <ele>1697.4560546875</ele>
        <time>2017-12-01T08:42:09Z</time>
      </trkpt>
      <trkpt lat="45.26471" lon="6.02373">
        <ele>1701.4560546875</ele>
        <time>2017-12-01T08:42:15Z</time>
      </trkpt>
      <trkpt lat="45.26469" lon="6.0238">
        <ele>1704.4560546875</ele>
        <time>2017-12-01T08:42:20Z</time>
      </trkpt>
      <trkpt lat="45.26467" lon="6.02389">
        <ele>1706.4560546875</ele>
        <time>2017-12-01T08:42:27Z</time>
      </trkpt>
      <trkpt lat="45.26467" lon="6.02397">
        <ele>1705.4560546875</ele>
        <time>2017-12-01T08:42:32Z</time>
      </trkpt>
      <trkpt lat="45.26467" lon="6.02404">
        <ele>1705.4560546875</ele>
        <time>2017-12-01T08:42:37Z</time>
      </trkpt>
      <trkpt lat="45.26465" lon="6.02412">
        <ele>1706.4560546875</ele>
        <time>2017-12-01T08:42:41Z</time>
      </trkpt>
      <trkpt lat="45.26464" lon="6.02419">
        <ele>1701.4560546875</ele>
        <time>2017-12-01T08:42:47Z</time>
      </trkpt>
      <trkpt lat="45.26465" lon="6.02426">
        <ele>1700.4560546875</ele>
        <time>2017-12-01T08:42:51Z</time>
      </trkpt>
      <trkpt lat="45.26465" lon="6.02433">
        <ele>1701.4560546875</ele>
        <time>2017-12-01T08:42:55Z</time>
      </trkpt>
      <trkpt lat="45.26465" lon="6.02442">
        <ele>1702.4560546875</ele>
        <time>2017-12-01T08:42:59Z</time>
      </trkpt>
      <trkpt lat="45.26465" lon="6.02451">
        <ele>1704.4560546875</ele>
        <time>2017-12-01T08:43:13Z</time>
      </trkpt>
      <trkpt lat="45.26465" lon="6.02458">
        <ele>1702.4560546875</ele>
        <time>2017-12-01T08:43:17Z</time>
      </trkpt>
      <trkpt lat="45.26465" lon="6.02465">
        <ele>1702.4560546875</ele>
        <time>2017-12-01T08:43:21Z</time>
      </trkpt>
      <trkpt lat="45.26462" lon="6.02471">
        <ele>1704.4560546875</ele>
        <time>2017-12-01T08:43:25Z</time>
      </trkpt>
      <trkpt lat="45.26459" lon="6.02478">
        <ele>1704.4560546875</ele>
        <time>2017-12-01T08:43:29Z</time>
      </trkpt>
      <trkpt lat="45.26459" lon="6.02485">
        <ele>1706.4560546875</ele>
        <time>2017-12-01T08:43:34Z</time>
      </trkpt>
      <trkpt lat="45.26457" lon="6.02491">
        <ele>1706.4560546875</ele>
        <time>2017-12-01T08:43:38Z</time>
      </trkpt>
      <trkpt lat="45.26455" lon="6.02498">
        <ele>1705.4560546875</ele>
        <time>2017-12-01T08:43:42Z</time>
      </trkpt>
      <trkpt lat="45.26453" lon="6.02505">
        <ele>1705.4560546875</ele>
        <time>2017-12-01T08:43:47Z</time>
      </trkpt>
      <trkpt lat="45.2645" lon="6.02511">
        <ele>1706.4560546875</ele>
        <time>2017-12-01T08:43:51Z</time>
      </trkpt>
      <trkpt lat="45.26448" lon="6.02517">
        <ele>1706.4560546875</ele>
        <time>2017-12-01T08:43:55Z</time>
      </trkpt>
      <trkpt lat="45.26446" lon="6.02523">
        <ele>1705.4560546875</ele>
        <time>2017-12-01T08:43:59Z</time>
      </trkpt>
      <trkpt lat="45.26444" lon="6.02531">
        <ele>1702.4560546875</ele>
        <time>2017-12-01T08:44:03Z</time>
      </trkpt>
      <trkpt lat="45.26442" lon="6.02537">
        <ele>1703.4560546875</ele>
        <time>2017-12-01T08:44:08Z</time>
      </trkpt>
      <trkpt lat="45.26441" lon="6.02544">
        <ele>1703.4560546875</ele>
        <time>2017-12-01T08:44:13Z</time>
      </trkpt>
      <trkpt lat="45.26439" lon="6.02551">
        <ele>1703.4560546875</ele>
        <time>2017-12-01T08:44:17Z</time>
      </trkpt>
      <trkpt lat="45.26437" lon="6.02558">
        <ele>1706.4560546875</ele>
        <time>2017-12-01T08:44:22Z</time>
      </trkpt>
      <trkpt lat="45.26437" lon="6.02565">
        <ele>1710.4560546875</ele>
        <time>2017-12-01T08:44:27Z</time>
      </trkpt>
      <trkpt lat="45.26435" lon="6.02572">
        <ele>1710.4560546875</ele>
        <time>2017-12-01T08:44:32Z</time>
      </trkpt>
      <trkpt lat="45.26433" lon="6.02577">
        <ele>1711.4560546875</ele>
        <time>2017-12-01T08:44:37Z</time>
      </trkpt>
      <trkpt lat="45.2643" lon="6.02584">
        <ele>1713.4560546875</ele>
        <time>2017-12-01T08:44:42Z</time>
      </trkpt>
      <trkpt lat="45.26428" lon="6.0259">
        <ele>1716.4560546875</ele>
        <time>2017-12-01T08:44:47Z</time>
      </trkpt>
      <trkpt lat="45.26426" lon="6.02596">
        <ele>1717.4560546875</ele>
        <time>2017-12-01T08:44:53Z</time>
      </trkpt>
      <trkpt lat="45.26423" lon="6.02602">
        <ele>1719.4560546875</ele>
        <time>2017-12-01T08:44:59Z</time>
      </trkpt>
      <trkpt lat="45.26421" lon="6.02608">
        <ele>1718.4560546875</ele>
        <time>2017-12-01T08:45:07Z</time>
      </trkpt>
      <trkpt lat="45.26418" lon="6.02614">
        <ele>1716.4560546875</ele>
        <time>2017-12-01T08:45:13Z</time>
      </trkpt>
      <trkpt lat="45.26416" lon="6.0262">
        <ele>1719.4560546875</ele>
        <time>2017-12-01T08:45:25Z</time>
      </trkpt>
      <trkpt lat="45.26415" lon="6.02626">
        <ele>1722.4560546875</ele>
        <time>2017-12-01T08:45:33Z</time>
      </trkpt>
      <trkpt lat="45.26413" lon="6.02632">
        <ele>1723.4560546875</ele>
        <time>2017-12-01T08:45:39Z</time>
      </trkpt>
      <trkpt lat="45.2641" lon="6.02639">
        <ele>1730.4560546875</ele>
        <time>2017-12-01T08:45:46Z</time>
      </trkpt>
      <trkpt lat="45.26408" lon="6.02645">
        <ele>1732.4560546875</ele>
        <time>2017-12-01T08:45:50Z</time>
      </trkpt>
      <trkpt lat="45.26404" lon="6.0265">
        <ele>1730.4560546875</ele>
        <time>2017-12-01T08:45:57Z</time>
      </trkpt>
      <trkpt lat="45.26401" lon="6.02656">
        <ele>1730.4560546875</ele>
        <time>2017-12-01T08:46:04Z</time>
      </trkpt>
      <trkpt lat="45.26399" lon="6.02662">
        <ele>1733.4560546875</ele>
        <time>2017-12-01T08:46:10Z</time>
      </trkpt>
      <trkpt lat="45.26396" lon="6.02668">
        <ele>1737.4560546875</ele>
        <time>2017-12-01T08:46:19Z</time>
      </trkpt>
      <trkpt lat="45.26394" lon="6.02676">
        <ele>1737.4560546875</ele>
        <time>2017-12-01T08:46:28Z</time>
      </trkpt>
      <trkpt lat="45.26393" lon="6.02682">
        <ele>1737.4560546875</ele>
        <time>2017-12-01T08:46:34Z</time>
      </trkpt>
      <trkpt lat="45.2639" lon="6.02687">
        <ele>1739.4560546875</ele>
        <time>2017-12-01T08:46:40Z</time>
      </trkpt>
      <trkpt lat="45.26389" lon="6.02694">
        <ele>1742.4560546875</ele>
        <time>2017-12-01T08:46:46Z</time>
      </trkpt>
      <trkpt lat="45.26387" lon="6.02701">
        <ele>1751.4560546875</ele>
        <time>2017-12-01T08:46:56Z</time>
      </trkpt>
      <trkpt lat="45.26384" lon="6.02707">
        <ele>1753.4560546875</ele>
        <time>2017-12-01T08:47:00Z</time>
      </trkpt>
      <trkpt lat="45.26382" lon="6.02713">
        <ele>1753.4560546875</ele>
        <time>2017-12-01T08:47:06Z</time>
      </trkpt>
      <trkpt lat="45.26381" lon="6.0272">
        <ele>1751.4560546875</ele>
        <time>2017-12-01T08:47:13Z</time>
      </trkpt>
      <trkpt lat="45.26379" lon="6.02726">
        <ele>1750.4560546875</ele>
        <time>2017-12-01T08:47:17Z</time>
      </trkpt>
      <trkpt lat="45.26378" lon="6.02733">
        <ele>1749.4560546875</ele>
        <time>2017-12-01T08:47:20Z</time>
      </trkpt>
      <trkpt lat="45.26376" lon="6.02739">
        <ele>1749.4560546875</ele>
        <time>2017-12-01T08:47:23Z</time>
      </trkpt>
      <trkpt lat="45.26374" lon="6.02747">
        <ele>1750.45703125</ele>
        <time>2017-12-01T08:47:27Z</time>
      </trkpt>
      <trkpt lat="45.26372" lon="6.02753">
        <ele>1749.45703125</ele>
        <time>2017-12-01T08:47:32Z</time>
      </trkpt>
      <trkpt lat="45.26367" lon="6.02758">
        <ele>1748.45703125</ele>
        <time>2017-12-01T08:47:36Z</time>
      </trkpt>
      <trkpt lat="45.26364" lon="6.02764">
        <ele>1748.45703125</ele>
        <time>2017-12-01T08:47:40Z</time>
      </trkpt>
      <trkpt lat="45.2636" lon="6.02769">
        <ele>1750.45703125</ele>
        <time>2017-12-01T08:47:47Z</time>
      </trkpt>
      <trkpt lat="45.26355" lon="6.02773">
        <ele>1749.45703125</ele>
        <time>2017-12-01T08:47:52Z</time>
      </trkpt>
      <trkpt lat="45.26351" lon="6.02776">
        <ele>1743.45703125</ele>
        <time>2017-12-01T08:47:57Z</time>
      </trkpt>
      <trkpt lat="45.26346" lon="6.02782">
        <ele>1742.4560546875</ele>
        <time>2017-12-01T08:48:03Z</time>
      </trkpt>
      <trkpt lat="45.26343" lon="6.02785">
        <ele>1744.4560546875</ele>
        <time>2017-12-01T08:48:07Z</time>
      </trkpt>
      <trkpt lat="45.26339" lon="6.0279">
        <ele>1752.4560546875</ele>
        <time>2017-12-01T08:48:13Z</time>
      </trkpt>
      <trkpt lat="45.26334" lon="6.0279">
        <ele>1758.4560546875</ele>
        <time>2017-12-01T08:48:23Z</time>
      </trkpt>
      <trkpt lat="45.26329" lon="6.02792">
        <ele>1758.4560546875</ele>
        <time>2017-12-01T08:48:29Z</time>
      </trkpt>
      <trkpt lat="45.26323" lon="6.02796">
        <ele>1755.4560546875</ele>
        <time>2017-12-01T08:48:36Z</time>
      </trkpt>
      <trkpt lat="45.26319" lon="6.02798">
        <ele>1753.4560546875</ele>
        <time>2017-12-01T08:48:46Z</time>
      </trkpt>
      <trkpt lat="45.26314" lon="6.02801">
        <ele>1756.4560546875</ele>
        <time>2017-12-01T08:48:51Z</time>
      </trkpt>
      <trkpt lat="45.26309" lon="6.02803">
        <ele>1759.4560546875</ele>
        <time>2017-12-01T08:49:02Z</time>
      </trkpt>
      <trkpt lat="45.26304" lon="6.02804">
        <ele>1761.4560546875</ele>
        <time>2017-12-01T08:49:08Z</time>
      </trkpt>
      <trkpt lat="45.26299" lon="6.02805">
        <ele>1765.4560546875</ele>
        <time>2017-12-01T08:49:15Z</time>
      </trkpt>
      <trkpt lat="45.26294" lon="6.02805">
        <ele>1764.4560546875</ele>
        <time>2017-12-01T08:49:25Z</time>
      </trkpt>
      <trkpt lat="45.26289" lon="6.02805">
        <ele>1766.4560546875</ele>
        <time>2017-12-01T08:49:32Z</time>
      </trkpt>
      <trkpt lat="45.26285" lon="6.02808">
        <ele>1773.4560546875</ele>
        <time>2017-12-01T08:49:46Z</time>
      </trkpt>
      <trkpt lat="45.2628" lon="6.02808">
        <ele>1774.4560546875</ele>
        <time>2017-12-01T08:49:53Z</time>
      </trkpt>
      <trkpt lat="45.26275" lon="6.02811">
        <ele>1775.4560546875</ele>
        <time>2017-12-01T08:50:01Z</time>
      </trkpt>
      <trkpt lat="45.26271" lon="6.02813">
        <ele>1773.4560546875</ele>
        <time>2017-12-01T08:50:06Z</time>
      </trkpt>
      <trkpt lat="45.26265" lon="6.02815">
        <ele>1780.4560546875</ele>
        <time>2017-12-01T08:50:13Z</time>
      </trkpt>
      <trkpt lat="45.26261" lon="6.02811">
        <ele>1784.4560546875</ele>
        <time>2017-12-01T08:50:21Z</time>
      </trkpt>
      <trkpt lat="45.26256" lon="6.02809">
        <ele>1787.4560546875</ele>
        <time>2017-12-01T08:50:32Z</time>
      </trkpt>
      <trkpt lat="45.26251" lon="6.02806">
        <ele>1787.4560546875</ele>
        <time>2017-12-01T08:50:40Z</time>
      </trkpt>
      <trkpt lat="45.26248" lon="6.02799">
        <ele>1791.4560546875</ele>
        <time>2017-12-01T08:50:49Z</time>
      </trkpt>
      <trkpt lat="45.26245" lon="6.02794">
        <ele>1792.4560546875</ele>
        <time>2017-12-01T08:50:55Z</time>
      </trkpt>
      <trkpt lat="45.26243" lon="6.02787">
        <ele>1793.4560546875</ele>
        <time>2017-12-01T08:51:04Z</time>
      </trkpt>
      <trkpt lat="45.26239" lon="6.02783">
        <ele>1793.4560546875</ele>
        <time>2017-12-01T08:51:11Z</time>
      </trkpt>
      <trkpt lat="45.26234" lon="6.02782">
        <ele>1795.4560546875</ele>
        <time>2017-12-01T08:51:23Z</time>
      </trkpt>
      <trkpt lat="45.26229" lon="6.0278">
        <ele>1798.4560546875</ele>
        <time>2017-12-01T08:51:34Z</time>
      </trkpt>
      <trkpt lat="45.26224" lon="6.02777">
        <ele>1799.4560546875</ele>
        <time>2017-12-01T08:51:39Z</time>
      </trkpt>
      <trkpt lat="45.26221" lon="6.02773">
        <ele>1781.4560546875</ele>
        <time>2017-12-01T08:51:46Z</time>
      </trkpt>
      <trkpt lat="45.26216" lon="6.0277">
        <ele>1800.4560546875</ele>
        <time>2017-12-01T08:51:53Z</time>
      </trkpt>
      <trkpt lat="45.26211" lon="6.02771">
        <ele>1799.4560546875</ele>
        <time>2017-12-01T08:51:56Z</time>
      </trkpt>
      <trkpt lat="45.26208" lon="6.02767">
        <ele>1801.4560546875</ele>
        <time>2017-12-01T08:52:00Z</time>
      </trkpt>
      <trkpt lat="45.26204" lon="6.02763">
        <ele>1804.4560546875</ele>
        <time>2017-12-01T08:52:06Z</time>
      </trkpt>
      <trkpt lat="45.26199" lon="6.02761">
        <ele>1805.4560546875</ele>
        <time>2017-12-01T08:52:15Z</time>
      </trkpt>
      <trkpt lat="45.26194" lon="6.02757">
        <ele>1810.4560546875</ele>
        <time>2017-12-01T08:52:26Z</time>
      </trkpt>
      <trkpt lat="45.26189" lon="6.02756">
        <ele>1809.4560546875</ele>
        <time>2017-12-01T08:52:35Z</time>
      </trkpt>
      <trkpt lat="45.26186" lon="6.02751">
        <ele>1808.4560546875</ele>
        <time>2017-12-01T08:52:41Z</time>
      </trkpt>
      <trkpt lat="45.26182" lon="6.02747">
        <ele>1816.4560546875</ele>
        <time>2017-12-01T08:52:49Z</time>
      </trkpt>
      <trkpt lat="45.26176" lon="6.02745">
        <ele>1817.4560546875</ele>
        <time>2017-12-01T08:52:55Z</time>
      </trkpt>
      <trkpt lat="45.2617" lon="6.02744">
        <ele>1816.4560546875</ele>
        <time>2017-12-01T08:53:05Z</time>
      </trkpt>
      <trkpt lat="45.26165" lon="6.02742">
        <ele>1817.4560546875</ele>
        <time>2017-12-01T08:53:09Z</time>
      </trkpt>
      <trkpt lat="45.2616" lon="6.02739">
        <ele>1815.4560546875</ele>
        <time>2017-12-01T08:53:14Z</time>
      </trkpt>
      <trkpt lat="45.26156" lon="6.02734">
        <ele>1818.4560546875</ele>
        <time>2017-12-01T08:53:23Z</time>
      </trkpt>
      <trkpt lat="45.26152" lon="6.02731">
        <ele>1817.4560546875</ele>
        <time>2017-12-01T08:53:35Z</time>
      </trkpt>
      <trkpt lat="45.26148" lon="6.02726">
        <ele>1820.4560546875</ele>
        <time>2017-12-01T08:53:49Z</time>
      </trkpt>
      <trkpt lat="45.26145" lon="6.0272">
        <ele>1823.4560546875</ele>
        <time>2017-12-01T08:53:56Z</time>
      </trkpt>
      <trkpt lat="45.26144" lon="6.02714">
        <ele>1833.4560546875</ele>
        <time>2017-12-01T08:54:06Z</time>
      </trkpt>
      <trkpt lat="45.26141" lon="6.02707">
        <ele>1835.4560546875</ele>
        <time>2017-12-01T08:54:13Z</time>
      </trkpt>
      <trkpt lat="45.26137" lon="6.02702">
        <ele>1834.4560546875</ele>
        <time>2017-12-01T08:54:18Z</time>
      </trkpt>
      <trkpt lat="45.26133" lon="6.02701">
        <ele>1833.4560546875</ele>
        <time>2017-12-01T08:54:24Z</time>
      </trkpt>
      <trkpt lat="45.26128" lon="6.02697">
        <ele>1835.4560546875</ele>
        <time>2017-12-01T08:54:36Z</time>
      </trkpt>
      <trkpt lat="45.26126" lon="6.0269">
        <ele>1843.4560546875</ele>
        <time>2017-12-01T08:54:43Z</time>
      </trkpt>
      <trkpt lat="45.26122" lon="6.02687">
        <ele>1844.4560546875</ele>
        <time>2017-12-01T08:54:51Z</time>
      </trkpt>
      <trkpt lat="45.26117" lon="6.02688">
        <ele>1842.4560546875</ele>
        <time>2017-12-01T08:54:59Z</time>
      </trkpt>
      <trkpt lat="45.26112" lon="6.02687">
        <ele>1845.4560546875</ele>
        <time>2017-12-01T08:55:10Z</time>
      </trkpt>
      <trkpt lat="45.26107" lon="6.02687">
        <ele>1846.4560546875</ele>
        <time>2017-12-01T08:55:23Z</time>
      </trkpt>
      <trkpt lat="45.26102" lon="6.02687">
        <ele>1846.4560546875</ele>
        <time>2017-12-01T08:55:31Z</time>
      </trkpt>
      <trkpt lat="45.26099" lon="6.02692">
        <ele>1847.4560546875</ele>
        <time>2017-12-01T08:55:36Z</time>
      </trkpt>
      <trkpt lat="45.26096" lon="6.02698">
        <ele>1850.4560546875</ele>
        <time>2017-12-01T08:55:49Z</time>
      </trkpt>
      <trkpt lat="45.26093" lon="6.02703">
        <ele>1850.4560546875</ele>
        <time>2017-12-01T08:55:54Z</time>
      </trkpt>
      <trkpt lat="45.26089" lon="6.02709">
        <ele>1850.4560546875</ele>
        <time>2017-12-01T08:55:57Z</time>
      </trkpt>
      <trkpt lat="45.26089" lon="6.02715">
        <ele>1855.4560546875</ele>
        <time>2017-12-01T08:56:05Z</time>
      </trkpt>
      <trkpt lat="45.2609" lon="6.02722">
        <ele>1858.4560546875</ele>
        <time>2017-12-01T08:56:14Z</time>
      </trkpt>
      <trkpt lat="45.26087" lon="6.02729">
        <ele>1859.4560546875</ele>
        <time>2017-12-01T08:56:20Z</time>
      </trkpt>
      <trkpt lat="45.26085" lon="6.02735">
        <ele>1859.4560546875</ele>
        <time>2017-12-01T08:56:24Z</time>
      </trkpt>
      <trkpt lat="45.26086" lon="6.02742">
        <ele>1859.4560546875</ele>
        <time>2017-12-01T08:56:34Z</time>
      </trkpt>
      <trkpt lat="45.26086" lon="6.02749">
        <ele>1865.4560546875</ele>
        <time>2017-12-01T08:56:41Z</time>
      </trkpt>
      <trkpt lat="45.26085" lon="6.02756">
        <ele>1861.4560546875</ele>
        <time>2017-12-01T08:56:46Z</time>
      </trkpt>
      <trkpt lat="45.26084" lon="6.02763">
        <ele>1861.4560546875</ele>
        <time>2017-12-01T08:56:53Z</time>
      </trkpt>
      <trkpt lat="45.26086" lon="6.02769">
        <ele>1863.4560546875</ele>
        <time>2017-12-01T08:56:59Z</time>
      </trkpt>
      <trkpt lat="45.26083" lon="6.02774">
        <ele>1862.4560546875</ele>
        <time>2017-12-01T08:57:02Z</time>
      </trkpt>
      <trkpt lat="45.26079" lon="6.02779">
        <ele>1860.4560546875</ele>
        <time>2017-12-01T08:57:06Z</time>
      </trkpt>
      <trkpt lat="45.26077" lon="6.02785">
        <ele>1859.4560546875</ele>
        <time>2017-12-01T08:57:13Z</time>
      </trkpt>
      <trkpt lat="45.26079" lon="6.02791">
        <ele>1860.4560546875</ele>
        <time>2017-12-01T08:57:20Z</time>
      </trkpt>
      <trkpt lat="45.2608" lon="6.02797">
        <ele>1860.4560546875</ele>
        <time>2017-12-01T08:57:27Z</time>
      </trkpt>
      <trkpt lat="45.26083" lon="6.02802">
        <ele>1865.4560546875</ele>
        <time>2017-12-01T08:57:35Z</time>
      </trkpt>
      <trkpt lat="45.26087" lon="6.02807">
        <ele>1869.4560546875</ele>
        <time>2017-12-01T08:57:40Z</time>
      </trkpt>
      <trkpt lat="45.26091" lon="6.02811">
        <ele>1868.4560546875</ele>
        <time>2017-12-01T08:57:46Z</time>
      </trkpt>
      <trkpt lat="45.26093" lon="6.02817">
        <ele>1871.4560546875</ele>
        <time>2017-12-01T08:57:53Z</time>
      </trkpt>
      <trkpt lat="45.26094" lon="6.02824">
        <ele>1872.4560546875</ele>
        <time>2017-12-01T08:58:05Z</time>
      </trkpt>
      <trkpt lat="45.26093" lon="6.0283">
        <ele>1872.4560546875</ele>
        <time>2017-12-01T08:58:11Z</time>
      </trkpt>
      <trkpt lat="45.26095" lon="6.02837">
        <ele>1878.4560546875</ele>
        <time>2017-12-01T08:58:18Z</time>
      </trkpt>
      <trkpt lat="45.26094" lon="6.02843">
        <ele>1882.4560546875</ele>
        <time>2017-12-01T08:58:25Z</time>
      </trkpt>
      <trkpt lat="45.26094" lon="6.0285">
        <ele>1886.4560546875</ele>
        <time>2017-12-01T08:58:36Z</time>
      </trkpt>
      <trkpt lat="45.2609" lon="6.02854">
        <ele>1885.4560546875</ele>
        <time>2017-12-01T08:58:45Z</time>
      </trkpt>
      <trkpt lat="45.26084" lon="6.02857">
        <ele>1886.4560546875</ele>
        <time>2017-12-01T08:58:48Z</time>
      </trkpt>
      <trkpt lat="45.26083" lon="6.02863">
        <ele>1891.4560546875</ele>
        <time>2017-12-01T08:58:57Z</time>
      </trkpt>
      <trkpt lat="45.26082" lon="6.0287">
        <ele>1891.4560546875</ele>
        <time>2017-12-01T08:59:08Z</time>
      </trkpt>
      <trkpt lat="45.26081" lon="6.02876">
        <ele>1886.4560546875</ele>
        <time>2017-12-01T08:59:18Z</time>
      </trkpt>
      <trkpt lat="45.26081" lon="6.02883">
        <ele>1897.4560546875</ele>
        <time>2017-12-01T08:59:27Z</time>
      </trkpt>
      <trkpt lat="45.26079" lon="6.0289">
        <ele>1900.4560546875</ele>
        <time>2017-12-01T08:59:34Z</time>
      </trkpt>
      <trkpt lat="45.26075" lon="6.02896">
        <ele>1901.4560546875</ele>
        <time>2017-12-01T08:59:43Z</time>
      </trkpt>
      <trkpt lat="45.26077" lon="6.02902">
        <ele>1905.4560546875</ele>
        <time>2017-12-01T08:59:49Z</time>
      </trkpt>
      <trkpt lat="45.26078" lon="6.02908">
        <ele>1907.4560546875</ele>
        <time>2017-12-01T08:59:57Z</time>
      </trkpt>
      <trkpt lat="45.26075" lon="6.02916">
        <ele>1904.4560546875</ele>
        <time>2017-12-01T09:00:01Z</time>
      </trkpt>
      <trkpt lat="45.26074" lon="6.02922">
        <ele>1902.4560546875</ele>
        <time>2017-12-01T09:00:05Z</time>
      </trkpt>
      <trkpt lat="45.26072" lon="6.02928">
        <ele>1902.4560546875</ele>
        <time>2017-12-01T09:00:10Z</time>
      </trkpt>
      <trkpt lat="45.26069" lon="6.02934">
        <ele>1898.4560546875</ele>
        <time>2017-12-01T09:00:14Z</time>
      </trkpt>
      <trkpt lat="45.26071" lon="6.02941">
        <ele>1903.4560546875</ele>
        <time>2017-12-01T09:00:19Z</time>
      </trkpt>
      <trkpt lat="45.26067" lon="6.02947">
        <ele>1903.4560546875</ele>
        <time>2017-12-01T09:00:24Z</time>
      </trkpt>
      <trkpt lat="45.26065" lon="6.02953">
        <ele>1904.4560546875</ele>
        <time>2017-12-01T09:00:32Z</time>
      </trkpt>
      <trkpt lat="45.26062" lon="6.0296">
        <ele>1903.4560546875</ele>
        <time>2017-12-01T09:00:36Z</time>
      </trkpt>
      <trkpt lat="45.26065" lon="6.02965">
        <ele>1905.4560546875</ele>
        <time>2017-12-01T09:00:43Z</time>
      </trkpt>
      <trkpt lat="45.26063" lon="6.02972">
        <ele>1901.4560546875</ele>
        <time>2017-12-01T09:01:06Z</time>
      </trkpt>
      <trkpt lat="45.26062" lon="6.02979">
        <ele>1904.4560546875</ele>
        <time>2017-12-01T09:01:12Z</time>
      </trkpt>
      <trkpt lat="45.26061" lon="6.02986">
        <ele>1905.4560546875</ele>
        <time>2017-12-01T09:01:17Z</time>
      </trkpt>
      <trkpt lat="45.2606" lon="6.02993">
        <ele>1760.4560546875</ele>
        <time>2017-12-01T09:01:22Z</time>
      </trkpt>
      <trkpt lat="45.26057" lon="6.02999">
        <ele>1864.4560546875</ele>
        <time>2017-12-01T09:01:28Z</time>
      </trkpt>
      <trkpt lat="45.26057" lon="6.03006">
        <ele>1890.4560546875</ele>
        <time>2017-12-01T09:01:35Z</time>
      </trkpt>
      <trkpt lat="45.26059" lon="6.03012">
        <ele>1912.4560546875</ele>
        <time>2017-12-01T09:01:39Z</time>
      </trkpt>
      <trkpt lat="45.26061" lon="6.03018">
        <ele>1917.4560546875</ele>
        <time>2017-12-01T09:01:45Z</time>
      </trkpt>
      <trkpt lat="45.26059" lon="6.03024">
        <ele>1916.4560546875</ele>
        <time>2017-12-01T09:01:49Z</time>
      </trkpt>
      <trkpt lat="45.26058" lon="6.03031">
        <ele>1919.4560546875</ele>
        <time>2017-12-01T09:01:54Z</time>
      </trkpt>
      <trkpt lat="45.26056" lon="6.03037">
        <ele>1916.4560546875</ele>
        <time>2017-12-01T09:01:57Z</time>
      </trkpt>
      <trkpt lat="45.26053" lon="6.03043">
        <ele>1918.4560546875</ele>
        <time>2017-12-01T09:02:01Z</time>
      </trkpt>
      <trkpt lat="45.2605" lon="6.03049">
        <ele>1920.4560546875</ele>
        <time>2017-12-01T09:02:07Z</time>
      </trkpt>
      <trkpt lat="45.26046" lon="6.03052">
        <ele>1919.4560546875</ele>
        <time>2017-12-01T09:02:10Z</time>
      </trkpt>
      <trkpt lat="45.26044" lon="6.03058">
        <ele>1920.4560546875</ele>
        <time>2017-12-01T09:02:17Z</time>
      </trkpt>
      <trkpt lat="45.2604" lon="6.03065">
        <ele>1918.4560546875</ele>
        <time>2017-12-01T09:02:23Z</time>
      </trkpt>
      <trkpt lat="45.26042" lon="6.03072">
        <ele>1924.4560546875</ele>
        <time>2017-12-01T09:02:31Z</time>
      </trkpt>
      <trkpt lat="45.2604" lon="6.03078">
        <ele>1923.4560546875</ele>
        <time>2017-12-01T09:02:36Z</time>
      </trkpt>
      <trkpt lat="45.2604" lon="6.03084">
        <ele>1922.4560546875</ele>
        <time>2017-12-01T09:02:42Z</time>
      </trkpt>
      <trkpt lat="45.26042" lon="6.0309">
        <ele>1928.4560546875</ele>
        <time>2017-12-01T09:02:50Z</time>
      </trkpt>
      <trkpt lat="45.26037" lon="6.03096">
        <ele>1925.4560546875</ele>
        <time>2017-12-01T09:02:58Z</time>
      </trkpt>
      <trkpt lat="45.26038" lon="6.03102">
        <ele>1924.4560546875</ele>
        <time>2017-12-01T09:03:01Z</time>
      </trkpt>
      <trkpt lat="45.26036" lon="6.03109">
        <ele>1933.4560546875</ele>
        <time>2017-12-01T09:03:24Z</time>
      </trkpt>
      <trkpt lat="45.26034" lon="6.03115">
        <ele>1937.4560546875</ele>
        <time>2017-12-01T09:03:37Z</time>
      </trkpt>
      <trkpt lat="45.26031" lon="6.0312">
        <ele>1942.4560546875</ele>
        <time>2017-12-01T09:03:43Z</time>
      </trkpt>
      <trkpt lat="45.26028" lon="6.03125">
        <ele>1943.4560546875</ele>
        <time>2017-12-01T09:03:48Z</time>
      </trkpt>
      <trkpt lat="45.26024" lon="6.03129">
        <ele>1827.4560546875</ele>
        <time>2017-12-01T09:03:54Z</time>
      </trkpt>
      <trkpt lat="45.2602" lon="6.03135">
        <ele>1918.4560546875</ele>
        <time>2017-12-01T09:04:00Z</time>
      </trkpt>
      <trkpt lat="45.26016" lon="6.03139">
        <ele>1947.4560546875</ele>
        <time>2017-12-01T09:04:23Z</time>
      </trkpt>
      <trkpt lat="45.26012" lon="6.03145">
        <ele>1946.4560546875</ele>
        <time>2017-12-01T09:04:30Z</time>
      </trkpt>
      <trkpt lat="45.26009" lon="6.03149">
        <ele>1924.4560546875</ele>
        <time>2017-12-01T09:04:38Z</time>
      </trkpt>
      <trkpt lat="45.26007" lon="6.03156">
        <ele>1944.4560546875</ele>
        <time>2017-12-01T09:04:43Z</time>
      </trkpt>
      <trkpt lat="45.26004" lon="6.03163">
        <ele>1948.4560546875</ele>
        <time>2017-12-01T09:04:49Z</time>
      </trkpt>
      <trkpt lat="45.26003" lon="6.0317">
        <ele>1951.4560546875</ele>
        <time>2017-12-01T09:05:00Z</time>
      </trkpt>
      <trkpt lat="45.25999" lon="6.03174">
        <ele>1947.4560546875</ele>
        <time>2017-12-01T09:05:10Z</time>
      </trkpt>
      <trkpt lat="45.26" lon="6.0318">
        <ele>1956.4560546875</ele>
        <time>2017-12-01T09:05:22Z</time>
      </trkpt>
      <trkpt lat="45.25997" lon="6.03185">
        <ele>1958.4560546875</ele>
        <time>2017-12-01T09:05:30Z</time>
      </trkpt>
      <trkpt lat="45.25993" lon="6.03191">
        <ele>1958.4560546875</ele>
        <time>2017-12-01T09:05:36Z</time>
      </trkpt>
      <trkpt lat="45.25989" lon="6.03193">
        <ele>1959.4560546875</ele>
        <time>2017-12-01T09:05:43Z</time>
      </trkpt>
      <trkpt lat="45.25984" lon="6.03194">
        <ele>1960.4560546875</ele>
        <time>2017-12-01T09:05:50Z</time>
      </trkpt>
      <trkpt lat="45.25978" lon="6.03193">
        <ele>1966.4560546875</ele>
        <time>2017-12-01T09:05:58Z</time>
      </trkpt>
      <trkpt lat="45.25973" lon="6.03193">
        <ele>1965.4560546875</ele>
        <time>2017-12-01T09:06:02Z</time>
      </trkpt>
      <trkpt lat="45.25968" lon="6.03193">
        <ele>1962.4560546875</ele>
        <time>2017-12-01T09:06:07Z</time>
      </trkpt>
      <trkpt lat="45.25963" lon="6.03191">
        <ele>1966.4560546875</ele>
        <time>2017-12-01T09:06:13Z</time>
      </trkpt>
      <trkpt lat="45.25958" lon="6.03189">
        <ele>1968.4560546875</ele>
        <time>2017-12-01T09:06:23Z</time>
      </trkpt>
      <trkpt lat="45.25954" lon="6.03186">
        <ele>1968.4560546875</ele>
        <time>2017-12-01T09:06:28Z</time>
      </trkpt>
      <trkpt lat="45.2595" lon="6.03182">
        <ele>1971.4560546875</ele>
        <time>2017-12-01T09:06:35Z</time>
      </trkpt>
      <trkpt lat="45.25946" lon="6.03179">
        <ele>1973.4560546875</ele>
        <time>2017-12-01T09:06:40Z</time>
      </trkpt>
      <trkpt lat="45.25941" lon="6.03177">
        <ele>1974.4560546875</ele>
        <time>2017-12-01T09:06:48Z</time>
      </trkpt>
      <trkpt lat="45.25935" lon="6.03174">
        <ele>1975.4560546875</ele>
        <time>2017-12-01T09:06:55Z</time>
      </trkpt>
      <trkpt lat="45.2593" lon="6.03169">
        <ele>1979.4560546875</ele>
        <time>2017-12-01T09:07:03Z</time>
      </trkpt>
      <trkpt lat="45.25926" lon="6.03166">
        <ele>1977.4560546875</ele>
        <time>2017-12-01T09:07:11Z</time>
      </trkpt>
      <trkpt lat="45.25923" lon="6.0316">
        <ele>1983.4560546875</ele>
        <time>2017-12-01T09:07:16Z</time>
      </trkpt>
      <trkpt lat="45.25918" lon="6.03157">
        <ele>1986.4560546875</ele>
        <time>2017-12-01T09:07:24Z</time>
      </trkpt>
      <trkpt lat="45.25915" lon="6.03152">
        <ele>1987.4560546875</ele>
        <time>2017-12-01T09:07:33Z</time>
      </trkpt>
      <trkpt lat="45.25912" lon="6.03146">
        <ele>1989.4560546875</ele>
        <time>2017-12-01T09:07:39Z</time>
      </trkpt>
      <trkpt lat="45.25909" lon="6.03142">
        <ele>1991.4560546875</ele>
        <time>2017-12-01T09:07:44Z</time>
      </trkpt>
      <trkpt lat="45.25905" lon="6.03138">
        <ele>1992.4560546875</ele>
        <time>2017-12-01T09:07:49Z</time>
      </trkpt>
      <trkpt lat="45.259" lon="6.03134">
        <ele>1996.4560546875</ele>
        <time>2017-12-01T09:07:56Z</time>
      </trkpt>
      <trkpt lat="45.25896" lon="6.0313">
        <ele>1998.4560546875</ele>
        <time>2017-12-01T09:08:04Z</time>
      </trkpt>
      <trkpt lat="45.25894" lon="6.03124">
        <ele>1999.4560546875</ele>
        <time>2017-12-01T09:08:09Z</time>
      </trkpt>
      <trkpt lat="45.25891" lon="6.03119">
        <ele>2000.4560546875</ele>
        <time>2017-12-01T09:08:15Z</time>
      </trkpt>
      <trkpt lat="45.25887" lon="6.03115">
        <ele>2000.4560546875</ele>
        <time>2017-12-01T09:08:22Z</time>
      </trkpt>
      <trkpt lat="45.25884" lon="6.03109">
        <ele>2000.4560546875</ele>
        <time>2017-12-01T09:08:29Z</time>
      </trkpt>
      <trkpt lat="45.25879" lon="6.03108">
        <ele>2000.4560546875</ele>
        <time>2017-12-01T09:08:40Z</time>
      </trkpt>
      <trkpt lat="45.25876" lon="6.03101">
        <ele>2002.4560546875</ele>
        <time>2017-12-01T09:08:45Z</time>
      </trkpt>
      <trkpt lat="45.25873" lon="6.03096">
        <ele>2005.4560546875</ele>
        <time>2017-12-01T09:08:52Z</time>
      </trkpt>
      <trkpt lat="45.2587" lon="6.03091">
        <ele>2008.4560546875</ele>
        <time>2017-12-01T09:08:58Z</time>
      </trkpt>
      <trkpt lat="45.25866" lon="6.03089">
        <ele>2009.4560546875</ele>
        <time>2017-12-01T09:09:09Z</time>
      </trkpt>
      <trkpt lat="45.25861" lon="6.03087">
        <ele>2008.4560546875</ele>
        <time>2017-12-01T09:09:21Z</time>
      </trkpt>
      <trkpt lat="45.25856" lon="6.03084">
        <ele>2010.4560546875</ele>
        <time>2017-12-01T09:09:27Z</time>
      </trkpt>
      <trkpt lat="45.25852" lon="6.03087">
        <ele>2007.4560546875</ele>
        <time>2017-12-01T09:09:30Z</time>
      </trkpt>
      <trkpt lat="45.25848" lon="6.03084">
        <ele>2009.4560546875</ele>
        <time>2017-12-01T09:09:38Z</time>
      </trkpt>
      <trkpt lat="45.25843" lon="6.03082">
        <ele>2011.4560546875</ele>
        <time>2017-12-01T09:09:45Z</time>
      </trkpt>
      <trkpt lat="45.25839" lon="6.03082">
        <ele>2015.4560546875</ele>
        <time>2017-12-01T09:09:53Z</time>
      </trkpt>
      <trkpt lat="45.25836" lon="6.03088">
        <ele>2016.4560546875</ele>
        <time>2017-12-01T09:10:07Z</time>
      </trkpt>
      <trkpt lat="45.25835" lon="6.03095">
        <ele>2016.4560546875</ele>
        <time>2017-12-01T09:10:24Z</time>
      </trkpt>
      <trkpt lat="45.25832" lon="6.031">
        <ele>2022.4560546875</ele>
        <time>2017-12-01T09:10:30Z</time>
      </trkpt>
      <trkpt lat="45.25833" lon="6.03108">
        <ele>2026.4560546875</ele>
        <time>2017-12-01T09:10:39Z</time>
      </trkpt>
      <trkpt lat="45.25832" lon="6.03115">
        <ele>2028.4560546875</ele>
        <time>2017-12-01T09:10:50Z</time>
      </trkpt>
      <trkpt lat="45.25828" lon="6.0312">
        <ele>2025.4560546875</ele>
        <time>2017-12-01T09:10:53Z</time>
      </trkpt>
      <trkpt lat="45.25828" lon="6.03127">
        <ele>2028.4560546875</ele>
        <time>2017-12-01T09:11:00Z</time>
      </trkpt>
      <trkpt lat="45.25827" lon="6.03134">
        <ele>2032.4560546875</ele>
        <time>2017-12-01T09:11:07Z</time>
      </trkpt>
      <trkpt lat="45.25825" lon="6.03141">
        <ele>2032.4560546875</ele>
        <time>2017-12-01T09:11:20Z</time>
      </trkpt>
      <trkpt lat="45.25824" lon="6.03148">
        <ele>2032.4560546875</ele>
        <time>2017-12-01T09:11:26Z</time>
      </trkpt>
      <trkpt lat="45.25824" lon="6.03155">
        <ele>2035.4560546875</ele>
        <time>2017-12-01T09:11:36Z</time>
      </trkpt>
      <trkpt lat="45.25824" lon="6.03162">
        <ele>2039.4560546875</ele>
        <time>2017-12-01T09:11:41Z</time>
      </trkpt>
      <trkpt lat="45.25826" lon="6.03168">
        <ele>2043.4560546875</ele>
        <time>2017-12-01T09:11:53Z</time>
      </trkpt>
      <trkpt lat="45.25824" lon="6.03175">
        <ele>2035.4560546875</ele>
        <time>2017-12-01T09:11:58Z</time>
      </trkpt>
      <trkpt lat="45.2582" lon="6.0318">
        <ele>2040.4560546875</ele>
        <time>2017-12-01T09:12:02Z</time>
      </trkpt>
      <trkpt lat="45.25818" lon="6.03185">
        <ele>2044.4560546875</ele>
        <time>2017-12-01T09:12:11Z</time>
      </trkpt>
      <trkpt lat="45.25814" lon="6.03188">
        <ele>2043.4560546875</ele>
        <time>2017-12-01T09:12:17Z</time>
      </trkpt>
      <trkpt lat="45.2581" lon="6.03192">
        <ele>2044.4560546875</ele>
        <time>2017-12-01T09:12:22Z</time>
      </trkpt>
      <trkpt lat="45.25806" lon="6.03198">
        <ele>2046.4560546875</ele>
        <time>2017-12-01T09:12:27Z</time>
      </trkpt>
      <trkpt lat="45.25803" lon="6.03202">
        <ele>2047.4560546875</ele>
        <time>2017-12-01T09:12:35Z</time>
      </trkpt>
      <trkpt lat="45.25798" lon="6.03205">
        <ele>2050.4560546875</ele>
        <time>2017-12-01T09:12:41Z</time>
      </trkpt>
      <trkpt lat="45.25794" lon="6.03205">
        <ele>2052.4560546875</ele>
        <time>2017-12-01T09:12:47Z</time>
      </trkpt>
      <trkpt lat="45.25788" lon="6.03205">
        <ele>2054.4560546875</ele>
        <time>2017-12-01T09:12:55Z</time>
      </trkpt>
      <trkpt lat="45.25783" lon="6.03204">
        <ele>2052.4560546875</ele>
        <time>2017-12-01T09:13:02Z</time>
      </trkpt>
      <trkpt lat="45.25779" lon="6.03206">
        <ele>2052.4560546875</ele>
        <time>2017-12-01T09:13:08Z</time>
      </trkpt>
      <trkpt lat="45.25774" lon="6.03207">
        <ele>2053.4560546875</ele>
        <time>2017-12-01T09:13:15Z</time>
      </trkpt>
      <trkpt lat="45.2577" lon="6.03204">
        <ele>2055.4560546875</ele>
        <time>2017-12-01T09:13:25Z</time>
      </trkpt>
      <trkpt lat="45.25765" lon="6.03201">
        <ele>2053.4560546875</ele>
        <time>2017-12-01T09:14:30Z</time>
      </trkpt>
      <trkpt lat="45.2576" lon="6.03199">
        <ele>2049.4560546875</ele>
        <time>2017-12-01T09:14:35Z</time>
      </trkpt>
      <trkpt lat="45.25756" lon="6.03197">
        <ele>2053.4560546875</ele>
        <time>2017-12-01T09:14:43Z</time>
      </trkpt>
      <trkpt lat="45.2575" lon="6.03196">
        <ele>2056.4560546875</ele>
        <time>2017-12-01T09:14:49Z</time>
      </trkpt>
      <trkpt lat="45.25746" lon="6.03193">
        <ele>2057.4560546875</ele>
        <time>2017-12-01T09:14:53Z</time>
      </trkpt>
      <trkpt lat="45.25741" lon="6.03193">
        <ele>2057.4560546875</ele>
        <time>2017-12-01T09:14:57Z</time>
      </trkpt>
      <trkpt lat="45.25735" lon="6.0319">
        <ele>2054.4560546875</ele>
        <time>2017-12-01T09:15:03Z</time>
      </trkpt>
      <trkpt lat="45.2573" lon="6.03187">
        <ele>2051.4560546875</ele>
        <time>2017-12-01T09:15:07Z</time>
      </trkpt>
      <trkpt lat="45.25725" lon="6.03186">
        <ele>2052.4560546875</ele>
        <time>2017-12-01T09:15:11Z</time>
      </trkpt>
      <trkpt lat="45.2572" lon="6.03186">
        <ele>2057.4560546875</ele>
        <time>2017-12-01T09:15:24Z</time>
      </trkpt>
      <trkpt lat="45.25715" lon="6.03183">
        <ele>2061.4560546875</ele>
        <time>2017-12-01T09:15:29Z</time>
      </trkpt>
      <trkpt lat="45.25709" lon="6.03181">
        <ele>2064.4560546875</ele>
        <time>2017-12-01T09:15:36Z</time>
      </trkpt>
      <trkpt lat="45.25703" lon="6.03183">
        <ele>2064.4560546875</ele>
        <time>2017-12-01T09:15:47Z</time>
      </trkpt>
      <trkpt lat="45.25698" lon="6.03183">
        <ele>2064.4560546875</ele>
        <time>2017-12-01T09:15:55Z</time>
      </trkpt>
      <trkpt lat="45.25692" lon="6.03182">
        <ele>2062.4560546875</ele>
        <time>2017-12-01T09:15:59Z</time>
      </trkpt>
      <trkpt lat="45.25688" lon="6.03183">
        <ele>2064.4560546875</ele>
        <time>2017-12-01T09:16:08Z</time>
      </trkpt>
      <trkpt lat="45.25683" lon="6.03182">
        <ele>2068.4560546875</ele>
        <time>2017-12-01T09:16:14Z</time>
      </trkpt>
      <trkpt lat="45.25678" lon="6.0318">
        <ele>2069.4560546875</ele>
        <time>2017-12-01T09:16:19Z</time>
      </trkpt>
      <trkpt lat="45.25674" lon="6.0318">
        <ele>2071.4560546875</ele>
        <time>2017-12-01T09:16:26Z</time>
      </trkpt>
      <trkpt lat="45.2567" lon="6.03177">
        <ele>2070.4560546875</ele>
        <time>2017-12-01T09:16:29Z</time>
      </trkpt>
      <trkpt lat="45.25665" lon="6.03176">
        <ele>2073.4560546875</ele>
        <time>2017-12-01T09:16:34Z</time>
      </trkpt>
      <trkpt lat="45.25658" lon="6.03173">
        <ele>2072.4560546875</ele>
        <time>2017-12-01T09:16:38Z</time>
      </trkpt>
      <trkpt lat="45.25654" lon="6.03171">
        <ele>2071.4560546875</ele>
        <time>2017-12-01T09:16:42Z</time>
      </trkpt>
      <trkpt lat="45.25649" lon="6.0317">
        <ele>2076.4560546875</ele>
        <time>2017-12-01T09:16:58Z</time>
      </trkpt>
      <trkpt lat="45.25644" lon="6.03168">
        <ele>2078.4560546875</ele>
        <time>2017-12-01T09:17:06Z</time>
      </trkpt>
      <trkpt lat="45.25639" lon="6.03163">
        <ele>2074.4560546875</ele>
        <time>2017-12-01T09:17:11Z</time>
      </trkpt>
      <trkpt lat="45.25634" lon="6.03158">
        <ele>2076.4560546875</ele>
        <time>2017-12-01T09:17:20Z</time>
      </trkpt>
      <trkpt lat="45.2563" lon="6.03153">
        <ele>2082.4560546875</ele>
        <time>2017-12-01T09:17:31Z</time>
      </trkpt>
      <trkpt lat="45.25625" lon="6.0315">
        <ele>2090.4560546875</ele>
        <time>2017-12-01T09:17:46Z</time>
      </trkpt>
      <trkpt lat="45.2562" lon="6.03148">
        <ele>2093.4560546875</ele>
        <time>2017-12-01T09:17:55Z</time>
      </trkpt>
      <trkpt lat="45.25614" lon="6.03148">
        <ele>2095.4560546875</ele>
        <time>2017-12-01T09:18:02Z</time>
      </trkpt>
      <trkpt lat="45.2561" lon="6.03151">
        <ele>2095.4560546875</ele>
        <time>2017-12-01T09:18:06Z</time>
      </trkpt>
      <trkpt lat="45.25607" lon="6.03158">
        <ele>2096.4560546875</ele>
        <time>2017-12-01T09:18:12Z</time>
      </trkpt>
      <trkpt lat="45.25604" lon="6.03164">
        <ele>2099.4560546875</ele>
        <time>2017-12-01T09:18:17Z</time>
      </trkpt>
      <trkpt lat="45.25602" lon="6.0317">
        <ele>2097.4560546875</ele>
        <time>2017-12-01T09:18:22Z</time>
      </trkpt>
      <trkpt lat="45.25598" lon="6.03176">
        <ele>2098.4560546875</ele>
        <time>2017-12-01T09:18:29Z</time>
      </trkpt>
      <trkpt lat="45.25596" lon="6.03182">
        <ele>2100.4560546875</ele>
        <time>2017-12-01T09:18:32Z</time>
      </trkpt>
      <trkpt lat="45.25591" lon="6.03186">
        <ele>2101.4560546875</ele>
        <time>2017-12-01T09:18:40Z</time>
      </trkpt>
      <trkpt lat="45.25589" lon="6.03191">
        <ele>2102.4560546875</ele>
        <time>2017-12-01T09:18:44Z</time>
      </trkpt>
      <trkpt lat="45.25586" lon="6.03198">
        <ele>2104.4560546875</ele>
        <time>2017-12-01T09:18:49Z</time>
      </trkpt>
      <trkpt lat="45.25582" lon="6.03205">
        <ele>2106.4560546875</ele>
        <time>2017-12-01T09:18:54Z</time>
      </trkpt>
      <trkpt lat="45.25578" lon="6.03209">
        <ele>2105.4560546875</ele>
        <time>2017-12-01T09:19:02Z</time>
      </trkpt>
      <trkpt lat="45.25573" lon="6.03213">
        <ele>2106.4560546875</ele>
        <time>2017-12-01T09:19:11Z</time>
      </trkpt>
      <trkpt lat="45.25569" lon="6.03219">
        <ele>2104.4560546875</ele>
        <time>2017-12-01T09:19:19Z</time>
      </trkpt>
      <trkpt lat="45.25566" lon="6.03224">
        <ele>2103.4560546875</ele>
        <time>2017-12-01T09:19:27Z</time>
      </trkpt>
      <trkpt lat="45.25563" lon="6.0323">
        <ele>2102.4560546875</ele>
        <time>2017-12-01T09:19:34Z</time>
      </trkpt>
      <trkpt lat="45.25561" lon="6.03237">
        <ele>2106.4560546875</ele>
        <time>2017-12-01T09:19:38Z</time>
      </trkpt>
      <trkpt lat="45.25557" lon="6.03243">
        <ele>2104.4560546875</ele>
        <time>2017-12-01T09:19:44Z</time>
      </trkpt>
      <trkpt lat="45.25554" lon="6.03248">
        <ele>2105.4560546875</ele>
        <time>2017-12-01T09:19:49Z</time>
      </trkpt>
      <trkpt lat="45.25552" lon="6.03255">
        <ele>2107.4560546875</ele>
        <time>2017-12-01T09:19:56Z</time>
      </trkpt>
      <trkpt lat="45.2555" lon="6.03261">
        <ele>2110.4560546875</ele>
        <time>2017-12-01T09:19:59Z</time>
      </trkpt>
      <trkpt lat="45.25548" lon="6.03266">
        <ele>2113.4560546875</ele>
        <time>2017-12-01T09:20:03Z</time>
      </trkpt>
      <trkpt lat="45.25546" lon="6.03272">
        <ele>2114.4560546875</ele>
        <time>2017-12-01T09:20:10Z</time>
      </trkpt>
      <trkpt lat="45.25544" lon="6.03278">
        <ele>2115.4560546875</ele>
        <time>2017-12-01T09:20:16Z</time>
      </trkpt>
      <trkpt lat="45.2554" lon="6.03282">
        <ele>2110.4560546875</ele>
        <time>2017-12-01T09:20:22Z</time>
      </trkpt>
      <trkpt lat="45.25539" lon="6.03289">
        <ele>2113.4560546875</ele>
        <time>2017-12-01T09:20:27Z</time>
      </trkpt>
      <trkpt lat="45.25537" lon="6.03295">
        <ele>2114.4560546875</ele>
        <time>2017-12-01T09:20:32Z</time>
      </trkpt>
      <trkpt lat="45.25537" lon="6.03301">
        <ele>2113.4560546875</ele>
        <time>2017-12-01T09:20:38Z</time>
      </trkpt>
      <trkpt lat="45.25534" lon="6.03307">
        <ele>2117.4560546875</ele>
        <time>2017-12-01T09:20:45Z</time>
      </trkpt>
      <trkpt lat="45.25533" lon="6.03314">
        <ele>2120.4560546875</ele>
        <time>2017-12-01T09:20:53Z</time>
      </trkpt>
      <trkpt lat="45.2553" lon="6.03319">
        <ele>2120.4560546875</ele>
        <time>2017-12-01T09:20:59Z</time>
      </trkpt>
      <trkpt lat="45.25527" lon="6.03324">
        <ele>2123.4560546875</ele>
        <time>2017-12-01T09:21:09Z</time>
      </trkpt>
      <trkpt lat="45.25525" lon="6.03331">
        <ele>2126.4560546875</ele>
        <time>2017-12-01T09:21:14Z</time>
      </trkpt>
      <trkpt lat="45.25521" lon="6.03333">
        <ele>2124.4560546875</ele>
        <time>2017-12-01T09:21:18Z</time>
      </trkpt>
      <trkpt lat="45.2552" lon="6.03339">
        <ele>2126.4560546875</ele>
        <time>2017-12-01T09:21:26Z</time>
      </trkpt>
      <trkpt lat="45.25517" lon="6.03346">
        <ele>2130.4560546875</ele>
        <time>2017-12-01T09:21:32Z</time>
      </trkpt>
      <trkpt lat="45.25513" lon="6.0335">
        <ele>2130.4560546875</ele>
        <time>2017-12-01T09:21:41Z</time>
      </trkpt>
      <trkpt lat="45.25508" lon="6.0335">
        <ele>2130.4560546875</ele>
        <time>2017-12-01T09:21:46Z</time>
      </trkpt>
      <trkpt lat="45.25503" lon="6.03354">
        <ele>2134.4560546875</ele>
        <time>2017-12-01T09:22:01Z</time>
      </trkpt>
      <trkpt lat="45.25499" lon="6.03353">
        <ele>2134.4560546875</ele>
        <time>2017-12-01T09:22:06Z</time>
      </trkpt>
      <trkpt lat="45.25494" lon="6.03352">
        <ele>2133.4560546875</ele>
        <time>2017-12-01T09:22:09Z</time>
      </trkpt>
      <trkpt lat="45.25489" lon="6.03348">
        <ele>2132.4560546875</ele>
        <time>2017-12-01T09:22:13Z</time>
      </trkpt>
      <trkpt lat="45.25485" lon="6.03342">
        <ele>2132.4560546875</ele>
        <time>2017-12-01T09:22:18Z</time>
      </trkpt>
      <trkpt lat="45.25482" lon="6.03338">
        <ele>2132.4560546875</ele>
        <time>2017-12-01T09:22:22Z</time>
      </trkpt>
      <trkpt lat="45.25478" lon="6.03332">
        <ele>2133.4560546875</ele>
        <time>2017-12-01T09:22:29Z</time>
      </trkpt>
      <trkpt lat="45.25479" lon="6.03325">
        <ele>2137.4560546875</ele>
        <time>2017-12-01T09:22:38Z</time>
      </trkpt>
      <trkpt lat="45.25476" lon="6.03317">
        <ele>2133.4560546875</ele>
        <time>2017-12-01T09:22:44Z</time>
      </trkpt>
      <trkpt lat="45.25481" lon="6.03314">
        <ele>2137.4560546875</ele>
        <time>2017-12-01T09:22:53Z</time>
      </trkpt>
      <trkpt lat="45.2548" lon="6.03307">
        <ele>2139.455078125</ele>
        <time>2017-12-01T09:23:01Z</time>
      </trkpt>
      <trkpt lat="45.25479" lon="6.033">
        <ele>2138.455078125</ele>
        <time>2017-12-01T09:23:08Z</time>
      </trkpt>
      <trkpt lat="45.25482" lon="6.03295">
        <ele>2141.455078125</ele>
        <time>2017-12-01T09:23:12Z</time>
      </trkpt>
      <trkpt lat="45.25486" lon="6.03291">
        <ele>2145.455078125</ele>
        <time>2017-12-01T09:23:16Z</time>
      </trkpt>
      <trkpt lat="45.25489" lon="6.03286">
        <ele>2147.455078125</ele>
        <time>2017-12-01T09:23:22Z</time>
      </trkpt>
      <trkpt lat="45.25493" lon="6.03281">
        <ele>2148.455078125</ele>
        <time>2017-12-01T09:23:29Z</time>
      </trkpt>
      <trkpt lat="45.25493" lon="6.03274">
        <ele>2150.455078125</ele>
        <time>2017-12-01T09:23:35Z</time>
      </trkpt>
      <trkpt lat="45.25496" lon="6.03269">
        <ele>2153.455078125</ele>
        <time>2017-12-01T09:23:40Z</time>
      </trkpt>
      <trkpt lat="45.25497" lon="6.03263">
        <ele>2153.455078125</ele>
        <time>2017-12-01T09:23:46Z</time>
      </trkpt>
      <trkpt lat="45.25496" lon="6.03256">
        <ele>2152.455078125</ele>
        <time>2017-12-01T09:23:52Z</time>
      </trkpt>
      <trkpt lat="45.25496" lon="6.03249">
        <ele>2151.455078125</ele>
        <time>2017-12-01T09:23:58Z</time>
      </trkpt>
      <trkpt lat="45.25497" lon="6.03242">
        <ele>2153.455078125</ele>
        <time>2017-12-01T09:24:05Z</time>
      </trkpt>
      <trkpt lat="45.25497" lon="6.03235">
        <ele>2153.455078125</ele>
        <time>2017-12-01T09:24:12Z</time>
      </trkpt>
      <trkpt lat="45.25497" lon="6.03229">
        <ele>2156.455078125</ele>
        <time>2017-12-01T09:24:21Z</time>
      </trkpt>
      <trkpt lat="45.255" lon="6.03222">
        <ele>2160.455078125</ele>
        <time>2017-12-01T09:24:27Z</time>
      </trkpt>
      <trkpt lat="45.25497" lon="6.03215">
        <ele>2160.455078125</ele>
        <time>2017-12-01T09:24:32Z</time>
      </trkpt>
      <trkpt lat="45.25496" lon="6.03208">
        <ele>2163.455078125</ele>
        <time>2017-12-01T09:24:41Z</time>
      </trkpt>
      <trkpt lat="45.25492" lon="6.03203">
        <ele>2168.455078125</ele>
        <time>2017-12-01T09:24:50Z</time>
      </trkpt>
      <trkpt lat="45.25489" lon="6.03197">
        <ele>2170.455078125</ele>
        <time>2017-12-01T09:24:55Z</time>
      </trkpt>
      <trkpt lat="45.25485" lon="6.03194">
        <ele>2170.455078125</ele>
        <time>2017-12-01T09:25:01Z</time>
      </trkpt>
      <trkpt lat="45.2548" lon="6.03191">
        <ele>2174.455078125</ele>
        <time>2017-12-01T09:25:08Z</time>
      </trkpt>
      <trkpt lat="45.25476" lon="6.03189">
        <ele>2176.455078125</ele>
        <time>2017-12-01T09:25:15Z</time>
      </trkpt>
      <trkpt lat="45.25472" lon="6.03187">
        <ele>2177.455078125</ele>
        <time>2017-12-01T09:25:22Z</time>
      </trkpt>
      <trkpt lat="45.25466" lon="6.03185">
        <ele>2178.455078125</ele>
        <time>2017-12-01T09:25:28Z</time>
      </trkpt>
      <trkpt lat="45.25464" lon="6.03191">
        <ele>2180.455078125</ele>
        <time>2017-12-01T09:25:36Z</time>
      </trkpt>
      <trkpt lat="45.25459" lon="6.03194">
        <ele>2183.455078125</ele>
        <time>2017-12-01T09:25:45Z</time>
      </trkpt>
      <trkpt lat="45.25455" lon="6.03197">
        <ele>2185.455078125</ele>
        <time>2017-12-01T09:25:53Z</time>
      </trkpt>
      <trkpt lat="45.25452" lon="6.03203">
        <ele>2187.455078125</ele>
        <time>2017-12-01T09:26:02Z</time>
      </trkpt>
      <trkpt lat="45.2545" lon="6.03209">
        <ele>2188.455078125</ele>
        <time>2017-12-01T09:26:11Z</time>
      </trkpt>
      <trkpt lat="45.25447" lon="6.03214">
        <ele>2190.455078125</ele>
        <time>2017-12-01T09:26:21Z</time>
      </trkpt>
      <trkpt lat="45.25443" lon="6.0322">
        <ele>2192.455078125</ele>
        <time>2017-12-01T09:26:28Z</time>
      </trkpt>
      <trkpt lat="45.2544" lon="6.03226">
        <ele>2127.455078125</ele>
        <time>2017-12-01T09:26:34Z</time>
      </trkpt>
      <trkpt lat="45.25435" lon="6.03228">
        <ele>2182.455078125</ele>
        <time>2017-12-01T09:26:45Z</time>
      </trkpt>
      <trkpt lat="45.25431" lon="6.03225">
        <ele>2193.455078125</ele>
        <time>2017-12-01T09:26:56Z</time>
      </trkpt>
      <trkpt lat="45.25426" lon="6.03224">
        <ele>2197.455078125</ele>
        <time>2017-12-01T09:27:05Z</time>
      </trkpt>
      <trkpt lat="45.25421" lon="6.03224">
        <ele>2200.455078125</ele>
        <time>2017-12-01T09:27:11Z</time>
      </trkpt>
      <trkpt lat="45.25416" lon="6.03222">
        <ele>2203.455078125</ele>
        <time>2017-12-01T09:27:20Z</time>
      </trkpt>
      <trkpt lat="45.25412" lon="6.03223">
        <ele>2207.455078125</ele>
        <time>2017-12-01T09:27:27Z</time>
      </trkpt>
      <trkpt lat="45.25407" lon="6.03224">
        <ele>2210.455078125</ele>
        <time>2017-12-01T09:27:33Z</time>
      </trkpt>
      <trkpt lat="45.25404" lon="6.0323">
        <ele>2210.455078125</ele>
        <time>2017-12-01T09:27:44Z</time>
      </trkpt>
      <trkpt lat="45.25402" lon="6.03236">
        <ele>2211.455078125</ele>
        <time>2017-12-01T09:27:51Z</time>
      </trkpt>
      <trkpt lat="45.254" lon="6.03242">
        <ele>2212.455078125</ele>
        <time>2017-12-01T09:27:59Z</time>
      </trkpt>
      <trkpt lat="45.25399" lon="6.03249">
        <ele>2214.455078125</ele>
        <time>2017-12-01T09:28:08Z</time>
      </trkpt>
      <trkpt lat="45.25397" lon="6.03256">
        <ele>2218.455078125</ele>
        <time>2017-12-01T09:28:21Z</time>
      </trkpt>
      <trkpt lat="45.25395" lon="6.03263">
        <ele>2219.455078125</ele>
        <time>2017-12-01T09:28:28Z</time>
      </trkpt>
      <trkpt lat="45.25391" lon="6.03268">
        <ele>2215.455078125</ele>
        <time>2017-12-01T09:28:35Z</time>
      </trkpt>
      <trkpt lat="45.25388" lon="6.03274">
        <ele>2222.455078125</ele>
        <time>2017-12-01T09:28:44Z</time>
      </trkpt>
      <trkpt lat="45.25383" lon="6.03277">
        <ele>2223.455078125</ele>
        <time>2017-12-01T09:28:55Z</time>
      </trkpt>
      <trkpt lat="45.25379" lon="6.0328">
        <ele>2225.455078125</ele>
        <time>2017-12-01T09:28:59Z</time>
      </trkpt>
      <trkpt lat="45.25374" lon="6.03281">
        <ele>2227.455078125</ele>
        <time>2017-12-01T09:29:07Z</time>
      </trkpt>
      <trkpt lat="45.25369" lon="6.03282">
        <ele>2231.455078125</ele>
        <time>2017-12-01T09:29:13Z</time>
      </trkpt>
      <trkpt lat="45.25364" lon="6.03279">
        <ele>2235.455078125</ele>
        <time>2017-12-01T09:29:22Z</time>
      </trkpt>
      <trkpt lat="45.2536" lon="6.03276">
        <ele>2234.455078125</ele>
        <time>2017-12-01T09:29:27Z</time>
      </trkpt>
      <trkpt lat="45.25356" lon="6.03272">
        <ele>2236.455078125</ele>
        <time>2017-12-01T09:29:35Z</time>
      </trkpt>
      <trkpt lat="45.25353" lon="6.03267">
        <ele>2235.455078125</ele>
        <time>2017-12-01T09:29:40Z</time>
      </trkpt>
      <trkpt lat="45.25348" lon="6.03267">
        <ele>2237.455078125</ele>
        <time>2017-12-01T09:29:47Z</time>
      </trkpt>
      <trkpt lat="45.25344" lon="6.0327">
        <ele>2237.455078125</ele>
        <time>2017-12-01T09:29:54Z</time>
      </trkpt>
      <trkpt lat="45.25341" lon="6.03275">
        <ele>2235.455078125</ele>
        <time>2017-12-01T09:32:38Z</time>
      </trkpt>
      <trkpt lat="45.25339" lon="6.03281">
        <ele>2237.455078125</ele>
        <time>2017-12-01T09:32:48Z</time>
      </trkpt>
      <trkpt lat="45.25343" lon="6.03285">
        <ele>2236.455078125</ele>
        <time>2017-12-01T09:33:01Z</time>
      </trkpt>
      <trkpt lat="45.25339" lon="6.03283">
        <ele>2236.455078125</ele>
        <time>2017-12-01T09:33:28Z</time>
      </trkpt>
      <trkpt lat="45.25339" lon="6.03275">
        <ele>2229.455078125</ele>
        <time>2017-12-01T09:33:34Z</time>
      </trkpt>
      <trkpt lat="45.25337" lon="6.03281">
        <ele>2238.455078125</ele>
        <time>2017-12-01T09:37:33Z</time>
      </trkpt>
      <trkpt lat="45.25337" lon="6.03274">
        <ele>2231.455078125</ele>
        <time>2017-12-01T09:43:09Z</time>
      </trkpt>
      <trkpt lat="45.25341" lon="6.03269">
        <ele>2238.455078125</ele>
        <time>2017-12-01T09:43:34Z</time>
      </trkpt>
      <trkpt lat="45.25348" lon="6.03268">
        <ele>2236.455078125</ele>
        <time>2017-12-01T09:43:40Z</time>
      </trkpt>
      <trkpt lat="45.25354" lon="6.03268">
        <ele>2234.455078125</ele>
        <time>2017-12-01T09:43:42Z</time>
      </trkpt>
      <trkpt lat="45.25365" lon="6.03273">
        <ele>2230.455078125</ele>
        <time>2017-12-01T09:43:44Z</time>
      </trkpt>
      <trkpt lat="45.2538" lon="6.03274">
        <ele>2227.455078125</ele>
        <time>2017-12-01T09:43:46Z</time>
      </trkpt>
      <trkpt lat="45.25391" lon="6.03264">
        <ele>2221.455078125</ele>
        <time>2017-12-01T09:43:48Z</time>
      </trkpt>
      <trkpt lat="45.25403" lon="6.03251">
        <ele>2214.455078125</ele>
        <time>2017-12-01T09:43:50Z</time>
      </trkpt>
      <trkpt lat="45.25412" lon="6.03232">
        <ele>2206.455078125</ele>
        <time>2017-12-01T09:43:52Z</time>
      </trkpt>
      <trkpt lat="45.25424" lon="6.0322">
        <ele>2207.455078125</ele>
        <time>2017-12-01T09:43:54Z</time>
      </trkpt>
      <trkpt lat="45.25438" lon="6.03207">
        <ele>2200.455078125</ele>
        <time>2017-12-01T09:43:56Z</time>
      </trkpt>
      <trkpt lat="45.25451" lon="6.03197">
        <ele>2191.455078125</ele>
        <time>2017-12-01T09:43:58Z</time>
      </trkpt>
      <trkpt lat="45.25465" lon="6.0319">
        <ele>2185.455078125</ele>
        <time>2017-12-01T09:44:00Z</time>
      </trkpt>
      <trkpt lat="45.25481" lon="6.03191">
        <ele>2179.455078125</ele>
        <time>2017-12-01T09:44:02Z</time>
      </trkpt>
      <trkpt lat="45.25491" lon="6.03199">
        <ele>2174.455078125</ele>
        <time>2017-12-01T09:44:04Z</time>
      </trkpt>
      <trkpt lat="45.25495" lon="6.03216">
        <ele>2145.455078125</ele>
        <time>2017-12-01T09:44:06Z</time>
      </trkpt>
      <trkpt lat="45.25488" lon="6.03231">
        <ele>2155.455078125</ele>
        <time>2017-12-01T09:44:09Z</time>
      </trkpt>
      <trkpt lat="45.25492" lon="6.03244">
        <ele>2155.455078125</ele>
        <time>2017-12-01T09:44:11Z</time>
      </trkpt>
      <trkpt lat="45.25491" lon="6.03256">
        <ele>2154.455078125</ele>
        <time>2017-12-01T09:44:13Z</time>
      </trkpt>
      <trkpt lat="45.2549" lon="6.03266">
        <ele>2153.455078125</ele>
        <time>2017-12-01T09:44:15Z</time>
      </trkpt>
      <trkpt lat="45.25485" lon="6.03272">
        <ele>2151.455078125</ele>
        <time>2017-12-01T09:44:17Z</time>
      </trkpt>
      <trkpt lat="45.25482" lon="6.03282">
        <ele>2151.455078125</ele>
        <time>2017-12-01T09:44:19Z</time>
      </trkpt>
      <trkpt lat="45.25479" lon="6.03289">
        <ele>2150.455078125</ele>
        <time>2017-12-01T09:44:21Z</time>
      </trkpt>
      <trkpt lat="45.25476" lon="6.03298">
        <ele>2149.455078125</ele>
        <time>2017-12-01T09:44:23Z</time>
      </trkpt>
      <trkpt lat="45.25472" lon="6.03309">
        <ele>2150.455078125</ele>
        <time>2017-12-01T09:44:25Z</time>
      </trkpt>
      <trkpt lat="45.2547" lon="6.03316">
        <ele>2149.455078125</ele>
        <time>2017-12-01T09:44:27Z</time>
      </trkpt>
      <trkpt lat="45.25474" lon="6.03331">
        <ele>2146.4560546875</ele>
        <time>2017-12-01T09:44:31Z</time>
      </trkpt>
      <trkpt lat="45.25478" lon="6.03346">
        <ele>2143.4560546875</ele>
        <time>2017-12-01T09:44:33Z</time>
      </trkpt>
      <trkpt lat="45.25478" lon="6.0336">
        <ele>2140.4560546875</ele>
        <time>2017-12-01T09:44:35Z</time>
      </trkpt>
      <trkpt lat="45.25479" lon="6.03369">
        <ele>2135.4560546875</ele>
        <time>2017-12-01T09:45:04Z</time>
      </trkpt>
      <trkpt lat="45.25479" lon="6.03377">
        <ele>2135.4560546875</ele>
        <time>2017-12-01T09:45:06Z</time>
      </trkpt>
      <trkpt lat="45.25479" lon="6.03385">
        <ele>2134.4560546875</ele>
        <time>2017-12-01T09:45:08Z</time>
      </trkpt>
      <trkpt lat="45.2548" lon="6.03395">
        <ele>2132.4560546875</ele>
        <time>2017-12-01T09:45:10Z</time>
      </trkpt>
      <trkpt lat="45.25481" lon="6.03404">
        <ele>2131.4560546875</ele>
        <time>2017-12-01T09:45:12Z</time>
      </trkpt>
      <trkpt lat="45.25482" lon="6.03412">
        <ele>2131.4560546875</ele>
        <time>2017-12-01T09:45:14Z</time>
      </trkpt>
      <trkpt lat="45.25482" lon="6.0342">
        <ele>2130.4560546875</ele>
        <time>2017-12-01T09:45:17Z</time>
      </trkpt>
      <trkpt lat="45.25484" lon="6.03428">
        <ele>2131.4560546875</ele>
        <time>2017-12-01T09:45:20Z</time>
      </trkpt>
      <trkpt lat="45.25486" lon="6.03434">
        <ele>2132.4560546875</ele>
        <time>2017-12-01T09:45:22Z</time>
      </trkpt>
      <trkpt lat="45.25487" lon="6.03443">
        <ele>2133.4560546875</ele>
        <time>2017-12-01T09:45:25Z</time>
      </trkpt>
      <trkpt lat="45.25489" lon="6.03449">
        <ele>2130.4560546875</ele>
        <time>2017-12-01T09:45:28Z</time>
      </trkpt>
      <trkpt lat="45.25489" lon="6.03456">
        <ele>2128.4560546875</ele>
        <time>2017-12-01T09:45:32Z</time>
      </trkpt>
      <trkpt lat="45.25489" lon="6.03465">
        <ele>2131.4560546875</ele>
        <time>2017-12-01T09:45:37Z</time>
      </trkpt>
      <trkpt lat="45.2549" lon="6.03472">
        <ele>2128.4560546875</ele>
        <time>2017-12-01T09:45:42Z</time>
      </trkpt>
      <trkpt lat="45.25489" lon="6.03479">
        <ele>2128.4560546875</ele>
        <time>2017-12-01T09:45:46Z</time>
      </trkpt>
      <trkpt lat="45.25489" lon="6.03486">
        <ele>2128.4560546875</ele>
        <time>2017-12-01T09:45:51Z</time>
      </trkpt>
      <trkpt lat="45.25488" lon="6.03493">
        <ele>2125.4560546875</ele>
        <time>2017-12-01T09:45:58Z</time>
      </trkpt>
      <trkpt lat="45.25489" lon="6.03499">
        <ele>2127.4560546875</ele>
        <time>2017-12-01T09:46:04Z</time>
      </trkpt>
      <trkpt lat="45.25489" lon="6.03506">
        <ele>2126.4560546875</ele>
        <time>2017-12-01T09:46:09Z</time>
      </trkpt>
      <trkpt lat="45.25488" lon="6.03513">
        <ele>2125.4560546875</ele>
        <time>2017-12-01T09:46:14Z</time>
      </trkpt>
      <trkpt lat="45.25485" lon="6.0352">
        <ele>2125.4560546875</ele>
        <time>2017-12-01T09:46:27Z</time>
      </trkpt>
      <trkpt lat="45.25483" lon="6.03528">
        <ele>2123.4560546875</ele>
        <time>2017-12-01T09:46:49Z</time>
      </trkpt>
      <trkpt lat="45.25483" lon="6.03537">
        <ele>2122.4560546875</ele>
        <time>2017-12-01T09:46:52Z</time>
      </trkpt>
      <trkpt lat="45.25485" lon="6.03547">
        <ele>2121.4560546875</ele>
        <time>2017-12-01T09:46:54Z</time>
      </trkpt>
      <trkpt lat="45.25487" lon="6.03557">
        <ele>2119.4560546875</ele>
        <time>2017-12-01T09:46:56Z</time>
      </trkpt>
      <trkpt lat="45.2549" lon="6.03565">
        <ele>2119.4560546875</ele>
        <time>2017-12-01T09:46:58Z</time>
      </trkpt>
      <trkpt lat="45.25491" lon="6.03571">
        <ele>2119.4560546875</ele>
        <time>2017-12-01T09:47:00Z</time>
      </trkpt>
      <trkpt lat="45.25493" lon="6.03579">
        <ele>2117.4560546875</ele>
        <time>2017-12-01T09:47:03Z</time>
      </trkpt>
      <trkpt lat="45.25495" lon="6.03587">
        <ele>2115.4560546875</ele>
        <time>2017-12-01T09:47:06Z</time>
      </trkpt>
      <trkpt lat="45.25498" lon="6.03596">
        <ele>2113.4560546875</ele>
        <time>2017-12-01T09:47:08Z</time>
      </trkpt>
      <trkpt lat="45.25502" lon="6.03607">
        <ele>2113.4560546875</ele>
        <time>2017-12-01T09:47:10Z</time>
      </trkpt>
      <trkpt lat="45.25506" lon="6.03617">
        <ele>2111.4560546875</ele>
        <time>2017-12-01T09:47:12Z</time>
      </trkpt>
      <trkpt lat="45.25516" lon="6.0363">
        <ele>2108.4560546875</ele>
        <time>2017-12-01T09:47:15Z</time>
      </trkpt>
      <trkpt lat="45.25521" lon="6.0364">
        <ele>2106.4560546875</ele>
        <time>2017-12-01T09:47:17Z</time>
      </trkpt>
      <trkpt lat="45.25529" lon="6.03651">
        <ele>2104.4560546875</ele>
        <time>2017-12-01T09:47:19Z</time>
      </trkpt>
      <trkpt lat="45.25535" lon="6.03655">
        <ele>2101.4560546875</ele>
        <time>2017-12-01T09:47:21Z</time>
      </trkpt>
      <trkpt lat="45.25539" lon="6.03661">
        <ele>2099.4560546875</ele>
        <time>2017-12-01T09:47:23Z</time>
      </trkpt>
      <trkpt lat="45.25545" lon="6.03674">
        <ele>2093.4560546875</ele>
        <time>2017-12-01T09:47:26Z</time>
      </trkpt>
      <trkpt lat="45.25549" lon="6.03683">
        <ele>2090.4560546875</ele>
        <time>2017-12-01T09:47:28Z</time>
      </trkpt>
      <trkpt lat="45.25554" lon="6.03691">
        <ele>2089.4560546875</ele>
        <time>2017-12-01T09:47:30Z</time>
      </trkpt>
      <trkpt lat="45.25559" lon="6.03697">
        <ele>2088.4560546875</ele>
        <time>2017-12-01T09:47:32Z</time>
      </trkpt>
      <trkpt lat="45.25563" lon="6.03703">
        <ele>2088.4560546875</ele>
        <time>2017-12-01T09:47:34Z</time>
      </trkpt>
      <trkpt lat="45.25567" lon="6.0371">
        <ele>2085.4560546875</ele>
        <time>2017-12-01T09:47:37Z</time>
      </trkpt>
      <trkpt lat="45.25569" lon="6.03717">
        <ele>2083.4560546875</ele>
        <time>2017-12-01T09:47:43Z</time>
      </trkpt>
      <trkpt lat="45.25572" lon="6.03724">
        <ele>2082.4560546875</ele>
        <time>2017-12-01T09:47:45Z</time>
      </trkpt>
      <trkpt lat="45.25574" lon="6.03736">
        <ele>2072.4560546875</ele>
        <time>2017-12-01T09:48:13Z</time>
      </trkpt>
      <trkpt lat="45.25577" lon="6.0375">
        <ele>2069.4560546875</ele>
        <time>2017-12-01T09:48:15Z</time>
      </trkpt>
      <trkpt lat="45.25582" lon="6.03761">
        <ele>2062.4560546875</ele>
        <time>2017-12-01T09:48:43Z</time>
      </trkpt>
      <trkpt lat="45.25588" lon="6.03765">
        <ele>2059.4560546875</ele>
        <time>2017-12-01T09:48:45Z</time>
      </trkpt>
      <trkpt lat="45.25593" lon="6.03776">
        <ele>2051.4560546875</ele>
        <time>2017-12-01T09:48:47Z</time>
      </trkpt>
      <trkpt lat="45.25598" lon="6.03792">
        <ele>2041.4560546875</ele>
        <time>2017-12-01T09:48:49Z</time>
      </trkpt>
      <trkpt lat="45.25603" lon="6.0381">
        <ele>2031.4560546875</ele>
        <time>2017-12-01T09:48:51Z</time>
      </trkpt>
      <trkpt lat="45.25607" lon="6.03832">
        <ele>2020.4560546875</ele>
        <time>2017-12-01T09:48:53Z</time>
      </trkpt>
      <trkpt lat="45.25605" lon="6.03849">
        <ele>2015.4560546875</ele>
        <time>2017-12-01T09:48:55Z</time>
      </trkpt>
      <trkpt lat="45.25602" lon="6.03856">
        <ele>2011.4560546875</ele>
        <time>2017-12-01T09:48:57Z</time>
      </trkpt>
      <trkpt lat="45.25608" lon="6.03865">
        <ele>2009.45703125</ele>
        <time>2017-12-01T09:49:42Z</time>
      </trkpt>
      <trkpt lat="45.25615" lon="6.03878">
        <ele>2004.45703125</ele>
        <time>2017-12-01T09:49:44Z</time>
      </trkpt>
      <trkpt lat="45.25621" lon="6.03895">
        <ele>1997.45703125</ele>
        <time>2017-12-01T09:49:46Z</time>
      </trkpt>
      <trkpt lat="45.25622" lon="6.03914">
        <ele>1988.45703125</ele>
        <time>2017-12-01T09:49:48Z</time>
      </trkpt>
      <trkpt lat="45.25621" lon="6.0393">
        <ele>1985.45703125</ele>
        <time>2017-12-01T09:49:50Z</time>
      </trkpt>
      <trkpt lat="45.25624" lon="6.03944">
        <ele>1981.45703125</ele>
        <time>2017-12-01T09:49:52Z</time>
      </trkpt>
      <trkpt lat="45.25625" lon="6.03966">
        <ele>1972.45703125</ele>
        <time>2017-12-01T09:49:55Z</time>
      </trkpt>
      <trkpt lat="45.25627" lon="6.03983">
        <ele>1965.45703125</ele>
        <time>2017-12-01T09:49:57Z</time>
      </trkpt>
      <trkpt lat="45.25628" lon="6.04">
        <ele>1962.45703125</ele>
        <time>2017-12-01T09:49:59Z</time>
      </trkpt>
      <trkpt lat="45.25634" lon="6.04012">
        <ele>1958.45703125</ele>
        <time>2017-12-01T09:50:01Z</time>
      </trkpt>
      <trkpt lat="45.25639" lon="6.04029">
        <ele>1954.45703125</ele>
        <time>2017-12-01T09:50:03Z</time>
      </trkpt>
      <trkpt lat="45.25643" lon="6.04045">
        <ele>1950.45703125</ele>
        <time>2017-12-01T09:50:05Z</time>
      </trkpt>
      <trkpt lat="45.25645" lon="6.04061">
        <ele>1948.45703125</ele>
        <time>2017-12-01T09:50:07Z</time>
      </trkpt>
      <trkpt lat="45.25647" lon="6.04078">
        <ele>1945.45703125</ele>
        <time>2017-12-01T09:50:09Z</time>
      </trkpt>
      <trkpt lat="45.2565" lon="6.04085">
        <ele>1940.45703125</ele>
        <time>2017-12-01T09:51:15Z</time>
      </trkpt>
      <trkpt lat="45.25642" lon="6.041">
        <ele>1935.45703125</ele>
        <time>2017-12-01T09:51:17Z</time>
      </trkpt>
      <trkpt lat="45.25639" lon="6.04118">
        <ele>1929.45703125</ele>
        <time>2017-12-01T09:51:19Z</time>
      </trkpt>
      <trkpt lat="45.25639" lon="6.04142">
        <ele>1917.45703125</ele>
        <time>2017-12-01T09:51:22Z</time>
      </trkpt>
      <trkpt lat="45.25638" lon="6.04159">
        <ele>1909.45703125</ele>
        <time>2017-12-01T09:51:24Z</time>
      </trkpt>
      <trkpt lat="45.25636" lon="6.04179">
        <ele>1900.45703125</ele>
        <time>2017-12-01T09:51:26Z</time>
      </trkpt>
      <trkpt lat="45.25634" lon="6.04199">
        <ele>1895.45703125</ele>
        <time>2017-12-01T09:51:28Z</time>
      </trkpt>
      <trkpt lat="45.25634" lon="6.04216">
        <ele>1889.45703125</ele>
        <time>2017-12-01T09:51:30Z</time>
      </trkpt>
      <trkpt lat="45.25628" lon="6.04219">
        <ele>1886.45703125</ele>
        <time>2017-12-01T09:51:32Z</time>
      </trkpt>
      <trkpt lat="45.25624" lon="6.04223">
        <ele>1882.45703125</ele>
        <time>2017-12-01T09:51:52Z</time>
      </trkpt>
      <trkpt lat="45.25621" lon="6.04237">
        <ele>1875.45703125</ele>
        <time>2017-12-01T09:51:54Z</time>
      </trkpt>
      <trkpt lat="45.25617" lon="6.04259">
        <ele>1867.45703125</ele>
        <time>2017-12-01T09:51:56Z</time>
      </trkpt>
      <trkpt lat="45.25614" lon="6.04283">
        <ele>1860.45703125</ele>
        <time>2017-12-01T09:51:58Z</time>
      </trkpt>
      <trkpt lat="45.25609" lon="6.04309">
        <ele>1849.45703125</ele>
        <time>2017-12-01T09:52:00Z</time>
      </trkpt>
      <trkpt lat="45.25607" lon="6.04319">
        <ele>1846.45703125</ele>
        <time>2017-12-01T09:52:01Z</time>
      </trkpt>
      <trkpt lat="45.25601" lon="6.04339">
        <ele>1841.45703125</ele>
        <time>2017-12-01T09:52:03Z</time>
      </trkpt>
      <trkpt lat="45.256" lon="6.04361">
        <ele>1837.45703125</ele>
        <time>2017-12-01T09:52:05Z</time>
      </trkpt>
      <trkpt lat="45.256" lon="6.04369">
        <ele>1833.45703125</ele>
        <time>2017-12-01T09:52:06Z</time>
      </trkpt>
      <trkpt lat="45.25604" lon="6.04386">
        <ele>1828.45703125</ele>
        <time>2017-12-01T09:52:08Z</time>
      </trkpt>
      <trkpt lat="45.25608" lon="6.04403">
        <ele>1821.45703125</ele>
        <time>2017-12-01T09:52:10Z</time>
      </trkpt>
      <trkpt lat="45.25611" lon="6.04424">
        <ele>1816.45703125</ele>
        <time>2017-12-01T09:52:12Z</time>
      </trkpt>
      <trkpt lat="45.25618" lon="6.04447">
        <ele>1805.45703125</ele>
        <time>2017-12-01T09:52:14Z</time>
      </trkpt>
      <trkpt lat="45.25623" lon="6.04465">
        <ele>1799.45703125</ele>
        <time>2017-12-01T09:52:16Z</time>
      </trkpt>
      <trkpt lat="45.25631" lon="6.04479">
        <ele>1797.45703125</ele>
        <time>2017-12-01T09:52:18Z</time>
      </trkpt>
      <trkpt lat="45.25637" lon="6.04481">
        <ele>1793.45703125</ele>
        <time>2017-12-01T09:52:20Z</time>
      </trkpt>
      <trkpt lat="45.25632" lon="6.04482">
        <ele>1789.45703125</ele>
        <time>2017-12-01T09:52:35Z</time>
      </trkpt>
      <trkpt lat="45.25635" lon="6.04488">
        <ele>1789.45703125</ele>
        <time>2017-12-01T09:52:57Z</time>
      </trkpt>
      <trkpt lat="45.25639" lon="6.04499">
        <ele>1783.45703125</ele>
        <time>2017-12-01T09:52:59Z</time>
      </trkpt>
      <trkpt lat="45.25646" lon="6.04516">
        <ele>1776.45703125</ele>
        <time>2017-12-01T09:53:01Z</time>
      </trkpt>
      <trkpt lat="45.25655" lon="6.04538">
        <ele>1763.4580078125</ele>
        <time>2017-12-01T09:53:03Z</time>
      </trkpt>
      <trkpt lat="45.25664" lon="6.0456">
        <ele>1754.4580078125</ele>
        <time>2017-12-01T09:53:05Z</time>
      </trkpt>
      <trkpt lat="45.25668" lon="6.04581">
        <ele>1748.4580078125</ele>
        <time>2017-12-01T09:53:07Z</time>
      </trkpt>
      <trkpt lat="45.25667" lon="6.04601">
        <ele>1743.4580078125</ele>
        <time>2017-12-01T09:53:09Z</time>
      </trkpt>
      <trkpt lat="45.25666" lon="6.04626">
        <ele>1731.4580078125</ele>
        <time>2017-12-01T09:53:11Z</time>
      </trkpt>
      <trkpt lat="45.25664" lon="6.04647">
        <ele>1725.4580078125</ele>
        <time>2017-12-01T09:53:13Z</time>
      </trkpt>
      <trkpt lat="45.25664" lon="6.04668">
        <ele>1722.4580078125</ele>
        <time>2017-12-01T09:53:15Z</time>
      </trkpt>
      <trkpt lat="45.25664" lon="6.04686">
        <ele>1718.4580078125</ele>
        <time>2017-12-01T09:53:17Z</time>
      </trkpt>
      <trkpt lat="45.25656" lon="6.04698">
        <ele>1711.4580078125</ele>
        <time>2017-12-01T09:53:19Z</time>
      </trkpt>
      <trkpt lat="45.25652" lon="6.04703">
        <ele>1711.4580078125</ele>
        <time>2017-12-01T09:53:20Z</time>
      </trkpt>
      <trkpt lat="45.25644" lon="6.04706">
        <ele>1695.4580078125</ele>
        <time>2017-12-01T09:56:10Z</time>
      </trkpt>
      <trkpt lat="45.25648" lon="6.04717">
        <ele>1694.4580078125</ele>
        <time>2017-12-01T09:56:39Z</time>
      </trkpt>
      <trkpt lat="45.25652" lon="6.04734">
        <ele>1693.4580078125</ele>
        <time>2017-12-01T09:56:41Z</time>
      </trkpt>
      <trkpt lat="45.25646" lon="6.04741">
        <ele>1688.4580078125</ele>
        <time>2017-12-01T09:56:43Z</time>
      </trkpt>
      <trkpt lat="45.25631" lon="6.04755">
        <ele>1685.4580078125</ele>
        <time>2017-12-01T09:56:46Z</time>
      </trkpt>
      <trkpt lat="45.25626" lon="6.04768">
        <ele>1676.4580078125</ele>
        <time>2017-12-01T09:56:55Z</time>
      </trkpt>
      <trkpt lat="45.25628" lon="6.04778">
        <ele>1672.4580078125</ele>
        <time>2017-12-01T09:56:57Z</time>
      </trkpt>
      <trkpt lat="45.25629" lon="6.04788">
        <ele>1668.4580078125</ele>
        <time>2017-12-01T09:57:00Z</time>
      </trkpt>
      <trkpt lat="45.25631" lon="6.04802">
        <ele>1665.4580078125</ele>
        <time>2017-12-01T09:57:02Z</time>
      </trkpt>
      <trkpt lat="45.25633" lon="6.04819">
        <ele>1662.4580078125</ele>
        <time>2017-12-01T09:57:04Z</time>
      </trkpt>
      <trkpt lat="45.25641" lon="6.0484">
        <ele>1658.4580078125</ele>
        <time>2017-12-01T09:57:07Z</time>
      </trkpt>
      <trkpt lat="45.25644" lon="6.04852">
        <ele>1656.4580078125</ele>
        <time>2017-12-01T09:57:09Z</time>
      </trkpt>
      <trkpt lat="45.25648" lon="6.04861">
        <ele>1654.4580078125</ele>
        <time>2017-12-01T09:57:11Z</time>
      </trkpt>
      <trkpt lat="45.25651" lon="6.0487">
        <ele>1652.4580078125</ele>
        <time>2017-12-01T09:57:13Z</time>
      </trkpt>
      <trkpt lat="45.25656" lon="6.04879">
        <ele>1650.4580078125</ele>
        <time>2017-12-01T09:57:15Z</time>
      </trkpt>
      <trkpt lat="45.2566" lon="6.04886">
        <ele>1648.4580078125</ele>
        <time>2017-12-01T09:57:17Z</time>
      </trkpt>
      <trkpt lat="45.25664" lon="6.04893">
        <ele>1647.4580078125</ele>
        <time>2017-12-01T09:57:19Z</time>
      </trkpt>
      <trkpt lat="45.25667" lon="6.049">
        <ele>1646.4580078125</ele>
        <time>2017-12-01T09:57:21Z</time>
      </trkpt>
      <trkpt lat="45.2567" lon="6.04907">
        <ele>1645.4580078125</ele>
        <time>2017-12-01T09:57:23Z</time>
      </trkpt>
      <trkpt lat="45.25675" lon="6.04913">
        <ele>1642.4580078125</ele>
        <time>2017-12-01T09:57:25Z</time>
      </trkpt>
      <trkpt lat="45.25679" lon="6.04925">
        <ele>1638.4580078125</ele>
        <time>2017-12-01T09:57:27Z</time>
      </trkpt>
      <trkpt lat="45.25682" lon="6.04943">
        <ele>1631.4580078125</ele>
        <time>2017-12-01T09:57:29Z</time>
      </trkpt>
      <trkpt lat="45.25685" lon="6.04962">
        <ele>1620.4580078125</ele>
        <time>2017-12-01T09:57:31Z</time>
      </trkpt>
      <trkpt lat="45.2569" lon="6.0498">
        <ele>1614.4580078125</ele>
        <time>2017-12-01T09:57:33Z</time>
      </trkpt>
      <trkpt lat="45.25699" lon="6.04994">
        <ele>1610.4580078125</ele>
        <time>2017-12-01T09:57:35Z</time>
      </trkpt>
      <trkpt lat="45.25711" lon="6.05005">
        <ele>1607.4580078125</ele>
        <time>2017-12-01T09:57:37Z</time>
      </trkpt>
      <trkpt lat="45.25721" lon="6.05017">
        <ele>1597.4580078125</ele>
        <time>2017-12-01T09:57:39Z</time>
      </trkpt>
      <trkpt lat="45.2573" lon="6.0503">
        <ele>1592.4580078125</ele>
        <time>2017-12-01T09:57:41Z</time>
      </trkpt>
      <trkpt lat="45.25732" lon="6.05043">
        <ele>1587.4580078125</ele>
        <time>2017-12-01T09:57:43Z</time>
      </trkpt>
      <trkpt lat="45.25733" lon="6.05053">
        <ele>1584.4580078125</ele>
        <time>2017-12-01T09:57:44Z</time>
      </trkpt>
      <trkpt lat="45.25734" lon="6.05067">
        <ele>1580.4580078125</ele>
        <time>2017-12-01T09:57:47Z</time>
      </trkpt>
      <trkpt lat="45.25732" lon="6.05073">
        <ele>1581.4580078125</ele>
        <time>2017-12-01T09:58:32Z</time>
      </trkpt>
      <trkpt lat="45.25729" lon="6.05068">
        <ele>1580.4580078125</ele>
        <time>2017-12-01T10:04:44Z</time>
      </trkpt>
      <trkpt lat="45.25728" lon="6.05061">
        <ele>1584.4580078125</ele>
        <time>2017-12-01T10:05:20Z</time>
      </trkpt>
      <trkpt lat="45.25727" lon="6.05055">
        <ele>1581.4580078125</ele>
        <time>2017-12-01T10:05:24Z</time>
      </trkpt>
      <trkpt lat="45.25724" lon="6.05049">
        <ele>1581.4580078125</ele>
        <time>2017-12-01T10:05:29Z</time>
      </trkpt>
      <trkpt lat="45.25724" lon="6.05042">
        <ele>1581.4580078125</ele>
        <time>2017-12-01T10:05:34Z</time>
      </trkpt>
      <trkpt lat="45.25724" lon="6.05035">
        <ele>1585.4580078125</ele>
        <time>2017-12-01T10:05:42Z</time>
      </trkpt>
      <trkpt lat="45.25722" lon="6.05028">
        <ele>1582.4580078125</ele>
        <time>2017-12-01T10:05:52Z</time>
      </trkpt>
      <trkpt lat="45.25716" lon="6.05026">
        <ele>1586.4580078125</ele>
        <time>2017-12-01T10:06:03Z</time>
      </trkpt>
      <trkpt lat="45.25719" lon="6.05021">
        <ele>1590.4580078125</ele>
        <time>2017-12-01T10:06:14Z</time>
      </trkpt>
      <trkpt lat="45.25719" lon="6.05015">
        <ele>1592.4580078125</ele>
        <time>2017-12-01T10:06:23Z</time>
      </trkpt>
      <trkpt lat="45.25718" lon="6.05008">
        <ele>1595.4580078125</ele>
        <time>2017-12-01T10:06:34Z</time>
      </trkpt>
      <trkpt lat="45.25715" lon="6.05002">
        <ele>1596.4580078125</ele>
        <time>2017-12-01T10:06:39Z</time>
      </trkpt>
      <trkpt lat="45.25716" lon="6.04995">
        <ele>1597.4580078125</ele>
        <time>2017-12-01T10:06:47Z</time>
      </trkpt>
      <trkpt lat="45.25718" lon="6.04988">
        <ele>1604.4580078125</ele>
        <time>2017-12-01T10:07:06Z</time>
      </trkpt>
      <trkpt lat="45.2572" lon="6.04982">
        <ele>1606.4580078125</ele>
        <time>2017-12-01T10:07:11Z</time>
      </trkpt>
      <trkpt lat="45.25722" lon="6.04975">
        <ele>1606.4580078125</ele>
        <time>2017-12-01T10:07:24Z</time>
      </trkpt>
      <trkpt lat="45.25722" lon="6.04968">
        <ele>1605.4580078125</ele>
        <time>2017-12-01T10:07:35Z</time>
      </trkpt>
      <trkpt lat="45.25726" lon="6.04962">
        <ele>1608.4580078125</ele>
        <time>2017-12-01T10:07:45Z</time>
      </trkpt>
      <trkpt lat="45.25726" lon="6.04955">
        <ele>1609.4580078125</ele>
        <time>2017-12-01T10:07:57Z</time>
      </trkpt>
      <trkpt lat="45.25722" lon="6.04953">
        <ele>1611.4580078125</ele>
        <time>2017-12-01T10:08:08Z</time>
      </trkpt>
      <trkpt lat="45.25718" lon="6.04949">
        <ele>1610.4580078125</ele>
        <time>2017-12-01T10:08:15Z</time>
      </trkpt>
      <trkpt lat="45.25722" lon="6.04945">
        <ele>1614.4580078125</ele>
        <time>2017-12-01T10:08:23Z</time>
      </trkpt>
      <trkpt lat="45.25726" lon="6.04942">
        <ele>1615.4580078125</ele>
        <time>2017-12-01T10:08:33Z</time>
      </trkpt>
      <trkpt lat="45.25727" lon="6.04934">
        <ele>1616.4580078125</ele>
        <time>2017-12-01T10:08:45Z</time>
      </trkpt>
      <trkpt lat="45.25724" lon="6.04929">
        <ele>1612.4580078125</ele>
        <time>2017-12-01T10:08:59Z</time>
      </trkpt>
      <trkpt lat="45.25719" lon="6.04927">
        <ele>1620.4580078125</ele>
        <time>2017-12-01T10:09:13Z</time>
      </trkpt>
      <trkpt lat="45.25714" lon="6.04926">
        <ele>1623.4580078125</ele>
        <time>2017-12-01T10:09:23Z</time>
      </trkpt>
      <trkpt lat="45.25712" lon="6.04919">
        <ele>1629.4580078125</ele>
        <time>2017-12-01T10:09:38Z</time>
      </trkpt>
      <trkpt lat="45.25707" lon="6.04917">
        <ele>1627.4580078125</ele>
        <time>2017-12-01T10:09:45Z</time>
      </trkpt>
      <trkpt lat="45.25703" lon="6.04914">
        <ele>1626.4580078125</ele>
        <time>2017-12-01T10:09:51Z</time>
      </trkpt>
      <trkpt lat="45.25699" lon="6.0491">
        <ele>1632.4580078125</ele>
        <time>2017-12-01T10:10:09Z</time>
      </trkpt>
      <trkpt lat="45.25695" lon="6.04906">
        <ele>1632.4580078125</ele>
        <time>2017-12-01T10:10:22Z</time>
      </trkpt>
      <trkpt lat="45.2569" lon="6.04904">
        <ele>1632.4580078125</ele>
        <time>2017-12-01T10:10:27Z</time>
      </trkpt>
      <trkpt lat="45.25688" lon="6.04899">
        <ele>1632.4580078125</ele>
        <time>2017-12-01T10:10:34Z</time>
      </trkpt>
      <trkpt lat="45.25685" lon="6.04891">
        <ele>1632.4580078125</ele>
        <time>2017-12-01T10:10:43Z</time>
      </trkpt>
      <trkpt lat="45.25683" lon="6.04885">
        <ele>1635.4580078125</ele>
        <time>2017-12-01T10:10:48Z</time>
      </trkpt>
      <trkpt lat="45.25681" lon="6.04879">
        <ele>1634.4580078125</ele>
        <time>2017-12-01T10:10:53Z</time>
      </trkpt>
      <trkpt lat="45.25679" lon="6.04873">
        <ele>1633.4580078125</ele>
        <time>2017-12-01T10:11:01Z</time>
      </trkpt>
      <trkpt lat="45.2568" lon="6.04865">
        <ele>1636.4580078125</ele>
        <time>2017-12-01T10:11:06Z</time>
      </trkpt>
      <trkpt lat="45.25681" lon="6.04858">
        <ele>1640.4580078125</ele>
        <time>2017-12-01T10:11:15Z</time>
      </trkpt>
      <trkpt lat="45.2568" lon="6.04851">
        <ele>1640.4580078125</ele>
        <time>2017-12-01T10:11:24Z</time>
      </trkpt>
      <trkpt lat="45.25681" lon="6.04845">
        <ele>1645.4580078125</ele>
        <time>2017-12-01T10:11:39Z</time>
      </trkpt>
      <trkpt lat="45.25681" lon="6.04838">
        <ele>1650.4580078125</ele>
        <time>2017-12-01T10:11:54Z</time>
      </trkpt>
      <trkpt lat="45.25682" lon="6.0483">
        <ele>1650.4580078125</ele>
        <time>2017-12-01T10:11:58Z</time>
      </trkpt>
      <trkpt lat="45.25682" lon="6.04824">
        <ele>1653.4580078125</ele>
        <time>2017-12-01T10:12:12Z</time>
      </trkpt>
      <trkpt lat="45.25679" lon="6.04817">
        <ele>1652.4580078125</ele>
        <time>2017-12-01T10:12:18Z</time>
      </trkpt>
      <trkpt lat="45.25679" lon="6.04808">
        <ele>1651.4580078125</ele>
        <time>2017-12-01T10:12:22Z</time>
      </trkpt>
      <trkpt lat="45.25676" lon="6.04801">
        <ele>1653.4580078125</ele>
        <time>2017-12-01T10:12:33Z</time>
      </trkpt>
      <trkpt lat="45.25676" lon="6.04794">
        <ele>1655.4580078125</ele>
        <time>2017-12-01T10:12:42Z</time>
      </trkpt>
      <trkpt lat="45.25681" lon="6.04792">
        <ele>1659.4580078125</ele>
        <time>2017-12-01T10:12:57Z</time>
      </trkpt>
      <trkpt lat="45.25685" lon="6.04791">
        <ele>1657.4580078125</ele>
        <time>2017-12-01T10:13:11Z</time>
      </trkpt>
      <trkpt lat="45.25687" lon="6.04785">
        <ele>1655.4580078125</ele>
        <time>2017-12-01T10:13:25Z</time>
      </trkpt>
      <trkpt lat="45.25692" lon="6.04783">
        <ele>1657.4580078125</ele>
        <time>2017-12-01T10:13:33Z</time>
      </trkpt>
      <trkpt lat="45.25697" lon="6.04781">
        <ele>1658.4580078125</ele>
        <time>2017-12-01T10:13:41Z</time>
      </trkpt>
      <trkpt lat="45.25701" lon="6.04782">
        <ele>1662.4580078125</ele>
        <time>2017-12-01T10:13:51Z</time>
      </trkpt>
      <trkpt lat="45.25707" lon="6.04779">
        <ele>1662.4580078125</ele>
        <time>2017-12-01T10:14:04Z</time>
      </trkpt>
      <trkpt lat="45.25707" lon="6.04772">
        <ele>1663.4580078125</ele>
        <time>2017-12-01T10:14:18Z</time>
      </trkpt>
      <trkpt lat="45.25706" lon="6.04766">
        <ele>1658.4580078125</ele>
        <time>2017-12-01T10:14:25Z</time>
      </trkpt>
      <trkpt lat="45.25702" lon="6.04761">
        <ele>1670.4580078125</ele>
        <time>2017-12-01T10:14:40Z</time>
      </trkpt>
      <trkpt lat="45.25699" lon="6.04756">
        <ele>1670.4580078125</ele>
        <time>2017-12-01T10:14:46Z</time>
      </trkpt>
      <trkpt lat="45.25696" lon="6.04751">
        <ele>1671.4580078125</ele>
        <time>2017-12-01T10:14:55Z</time>
      </trkpt>
      <trkpt lat="45.25692" lon="6.04747">
        <ele>1668.4580078125</ele>
        <time>2017-12-01T10:14:59Z</time>
      </trkpt>
      <trkpt lat="45.25689" lon="6.04741">
        <ele>1670.4580078125</ele>
        <time>2017-12-01T10:15:11Z</time>
      </trkpt>
      <trkpt lat="45.25685" lon="6.04739">
        <ele>1670.4580078125</ele>
        <time>2017-12-01T10:15:22Z</time>
      </trkpt>
      <trkpt lat="45.25684" lon="6.04732">
        <ele>1677.4580078125</ele>
        <time>2017-12-01T10:15:33Z</time>
      </trkpt>
      <trkpt lat="45.25683" lon="6.04725">
        <ele>1676.4580078125</ele>
        <time>2017-12-01T10:15:44Z</time>
      </trkpt>
      <trkpt lat="45.2568" lon="6.04721">
        <ele>1682.4580078125</ele>
        <time>2017-12-01T10:15:59Z</time>
      </trkpt>
      <trkpt lat="45.25683" lon="6.04717">
        <ele>1690.4580078125</ele>
        <time>2017-12-01T10:16:12Z</time>
      </trkpt>
      <trkpt lat="45.25686" lon="6.04711">
        <ele>1690.4580078125</ele>
        <time>2017-12-01T10:16:23Z</time>
      </trkpt>
      <trkpt lat="45.25689" lon="6.04705">
        <ele>1690.4580078125</ele>
        <time>2017-12-01T10:16:38Z</time>
      </trkpt>
      <trkpt lat="45.25692" lon="6.047">
        <ele>1692.4580078125</ele>
        <time>2017-12-01T10:16:52Z</time>
      </trkpt>
      <trkpt lat="45.25694" lon="6.04694">
        <ele>1693.4580078125</ele>
        <time>2017-12-01T10:17:08Z</time>
      </trkpt>
      <trkpt lat="45.25699" lon="6.04692">
        <ele>1695.4580078125</ele>
        <time>2017-12-01T10:17:17Z</time>
      </trkpt>
      <trkpt lat="45.25703" lon="6.04687">
        <ele>1700.4580078125</ele>
        <time>2017-12-01T10:17:27Z</time>
      </trkpt>
      <trkpt lat="45.25706" lon="6.04681">
        <ele>1702.4580078125</ele>
        <time>2017-12-01T10:17:39Z</time>
      </trkpt>
      <trkpt lat="45.25708" lon="6.04675">
        <ele>1703.4580078125</ele>
        <time>2017-12-01T10:17:52Z</time>
      </trkpt>
      <trkpt lat="45.2571" lon="6.0467">
        <ele>1702.4580078125</ele>
        <time>2017-12-01T10:18:06Z</time>
      </trkpt>
      <trkpt lat="45.25712" lon="6.04664">
        <ele>1699.4580078125</ele>
        <time>2017-12-01T10:18:16Z</time>
      </trkpt>
      <trkpt lat="45.25714" lon="6.04658">
        <ele>1702.4580078125</ele>
        <time>2017-12-01T10:18:23Z</time>
      </trkpt>
      <trkpt lat="45.25717" lon="6.04651">
        <ele>1707.4580078125</ele>
        <time>2017-12-01T10:18:30Z</time>
      </trkpt>
      <trkpt lat="45.25715" lon="6.04644">
        <ele>1714.4580078125</ele>
        <time>2017-12-01T10:18:46Z</time>
      </trkpt>
      <trkpt lat="45.25712" lon="6.04639">
        <ele>1715.4580078125</ele>
        <time>2017-12-01T10:19:00Z</time>
      </trkpt>
      <trkpt lat="45.25708" lon="6.04634">
        <ele>1713.4580078125</ele>
        <time>2017-12-01T10:19:06Z</time>
      </trkpt>
      <trkpt lat="45.25704" lon="6.0463">
        <ele>1713.4580078125</ele>
        <time>2017-12-01T10:19:13Z</time>
      </trkpt>
      <trkpt lat="45.257" lon="6.04627">
        <ele>1717.4580078125</ele>
        <time>2017-12-01T10:19:32Z</time>
      </trkpt>
      <trkpt lat="45.25699" lon="6.0462">
        <ele>1718.4580078125</ele>
        <time>2017-12-01T10:19:42Z</time>
      </trkpt>
      <trkpt lat="45.25696" lon="6.04613">
        <ele>1718.4580078125</ele>
        <time>2017-12-01T10:19:53Z</time>
      </trkpt>
      <trkpt lat="45.25693" lon="6.04608">
        <ele>1722.4580078125</ele>
        <time>2017-12-01T10:20:10Z</time>
      </trkpt>
      <trkpt lat="45.2569" lon="6.04603">
        <ele>1725.4580078125</ele>
        <time>2017-12-01T10:20:26Z</time>
      </trkpt>
      <trkpt lat="45.25686" lon="6.04599">
        <ele>1728.4580078125</ele>
        <time>2017-12-01T10:20:41Z</time>
      </trkpt>
      <trkpt lat="45.25683" lon="6.04592">
        <ele>1727.4580078125</ele>
        <time>2017-12-01T10:20:54Z</time>
      </trkpt>
      <trkpt lat="45.25682" lon="6.04585">
        <ele>1736.4580078125</ele>
        <time>2017-12-01T10:21:17Z</time>
      </trkpt>
      <trkpt lat="45.25684" lon="6.04579">
        <ele>1737.4580078125</ele>
        <time>2017-12-01T10:21:27Z</time>
      </trkpt>
      <trkpt lat="45.25684" lon="6.04572">
        <ele>1737.4580078125</ele>
        <time>2017-12-01T10:21:44Z</time>
      </trkpt>
      <trkpt lat="45.25679" lon="6.04571">
        <ele>1737.4580078125</ele>
        <time>2017-12-01T10:22:00Z</time>
      </trkpt>
      <trkpt lat="45.25674" lon="6.04571">
        <ele>1737.4580078125</ele>
        <time>2017-12-01T10:22:14Z</time>
      </trkpt>
      <trkpt lat="45.25669" lon="6.04569">
        <ele>1738.4580078125</ele>
        <time>2017-12-01T10:22:24Z</time>
      </trkpt>
      <trkpt lat="45.25665" lon="6.04567">
        <ele>1746.4580078125</ele>
        <time>2017-12-01T10:22:49Z</time>
      </trkpt>
      <trkpt lat="45.25662" lon="6.04562">
        <ele>1745.4580078125</ele>
        <time>2017-12-01T10:23:01Z</time>
      </trkpt>
      <trkpt lat="45.25658" lon="6.04559">
        <ele>1747.4580078125</ele>
        <time>2017-12-01T10:23:06Z</time>
      </trkpt>
      <trkpt lat="45.25653" lon="6.04558">
        <ele>1749.4580078125</ele>
        <time>2017-12-01T10:23:22Z</time>
      </trkpt>
      <trkpt lat="45.25649" lon="6.04554">
        <ele>1750.4580078125</ele>
        <time>2017-12-01T10:23:30Z</time>
      </trkpt>
      <trkpt lat="45.25651" lon="6.04548">
        <ele>1750.4580078125</ele>
        <time>2017-12-01T10:23:40Z</time>
      </trkpt>
      <trkpt lat="45.25654" lon="6.04541">
        <ele>1751.4580078125</ele>
        <time>2017-12-01T10:23:52Z</time>
      </trkpt>
      <trkpt lat="45.25658" lon="6.04539">
        <ele>1757.4580078125</ele>
        <time>2017-12-01T10:24:11Z</time>
      </trkpt>
      <trkpt lat="45.25653" lon="6.04536">
        <ele>1759.4580078125</ele>
        <time>2017-12-01T10:24:24Z</time>
      </trkpt>
      <trkpt lat="45.25648" lon="6.04533">
        <ele>1762.4580078125</ele>
        <time>2017-12-01T10:24:32Z</time>
      </trkpt>
      <trkpt lat="45.25644" lon="6.0453">
        <ele>1760.4580078125</ele>
        <time>2017-12-01T10:24:45Z</time>
      </trkpt>
      <trkpt lat="45.25646" lon="6.04524">
        <ele>1765.45703125</ele>
        <time>2017-12-01T10:25:14Z</time>
      </trkpt>
      <trkpt lat="45.25649" lon="6.0452">
        <ele>1766.45703125</ele>
        <time>2017-12-01T10:25:20Z</time>
      </trkpt>
      <trkpt lat="45.25654" lon="6.04517">
        <ele>1768.4580078125</ele>
        <time>2017-12-01T10:25:33Z</time>
      </trkpt>
      <trkpt lat="45.25657" lon="6.04512">
        <ele>1769.4580078125</ele>
        <time>2017-12-01T10:25:42Z</time>
      </trkpt>
      <trkpt lat="45.2566" lon="6.04508">
        <ele>1776.4580078125</ele>
        <time>2017-12-01T10:26:00Z</time>
      </trkpt>
      <trkpt lat="45.2566" lon="6.04501">
        <ele>1775.45703125</ele>
        <time>2017-12-01T10:26:11Z</time>
      </trkpt>
      <trkpt lat="45.25656" lon="6.04497">
        <ele>1774.45703125</ele>
        <time>2017-12-01T10:26:18Z</time>
      </trkpt>
      <trkpt lat="45.25651" lon="6.04494">
        <ele>1776.45703125</ele>
        <time>2017-12-01T10:26:24Z</time>
      </trkpt>
      <trkpt lat="45.25647" lon="6.04491">
        <ele>1778.45703125</ele>
        <time>2017-12-01T10:26:32Z</time>
      </trkpt>
      <trkpt lat="45.25641" lon="6.04489">
        <ele>1776.45703125</ele>
        <time>2017-12-01T10:26:42Z</time>
      </trkpt>
      <trkpt lat="45.25637" lon="6.04488">
        <ele>1778.45703125</ele>
        <time>2017-12-01T10:26:57Z</time>
      </trkpt>
      <trkpt lat="45.25633" lon="6.04483">
        <ele>1778.45703125</ele>
        <time>2017-12-01T10:27:02Z</time>
      </trkpt>
      <trkpt lat="45.25633" lon="6.04475">
        <ele>1783.45703125</ele>
        <time>2017-12-01T10:27:24Z</time>
      </trkpt>
      <trkpt lat="45.25634" lon="6.04468">
        <ele>1785.45703125</ele>
        <time>2017-12-01T10:27:33Z</time>
      </trkpt>
      <trkpt lat="45.25635" lon="6.04462">
        <ele>1785.45703125</ele>
        <time>2017-12-01T10:27:41Z</time>
      </trkpt>
      <trkpt lat="45.25637" lon="6.04456">
        <ele>1784.45703125</ele>
        <time>2017-12-01T10:27:46Z</time>
      </trkpt>
      <trkpt lat="45.25637" lon="6.04449">
        <ele>1785.45703125</ele>
        <time>2017-12-01T10:27:52Z</time>
      </trkpt>
      <trkpt lat="45.2564" lon="6.04444">
        <ele>1787.45703125</ele>
        <time>2017-12-01T10:28:00Z</time>
      </trkpt>
      <trkpt lat="45.25644" lon="6.0444">
        <ele>1789.45703125</ele>
        <time>2017-12-01T10:28:07Z</time>
      </trkpt>
      <trkpt lat="45.25648" lon="6.04436">
        <ele>1792.45703125</ele>
        <time>2017-12-01T10:28:14Z</time>
      </trkpt>
      <trkpt lat="45.25652" lon="6.04432">
        <ele>1793.45703125</ele>
        <time>2017-12-01T10:28:26Z</time>
      </trkpt>
      <trkpt lat="45.25656" lon="6.0443">
        <ele>1795.45703125</ele>
        <time>2017-12-01T10:28:39Z</time>
      </trkpt>
      <trkpt lat="45.2566" lon="6.04425">
        <ele>1793.45703125</ele>
        <time>2017-12-01T10:28:50Z</time>
      </trkpt>
      <trkpt lat="45.25658" lon="6.04418">
        <ele>1791.45703125</ele>
        <time>2017-12-01T10:29:14Z</time>
      </trkpt>
      <trkpt lat="45.25655" lon="6.04412">
        <ele>1789.45703125</ele>
        <time>2017-12-01T10:29:29Z</time>
      </trkpt>
      <trkpt lat="45.25653" lon="6.04406">
        <ele>1795.45703125</ele>
        <time>2017-12-01T10:29:37Z</time>
      </trkpt>
      <trkpt lat="45.2565" lon="6.04401">
        <ele>1795.45703125</ele>
        <time>2017-12-01T10:29:42Z</time>
      </trkpt>
      <trkpt lat="45.25646" lon="6.04397">
        <ele>1799.45703125</ele>
        <time>2017-12-01T10:29:49Z</time>
      </trkpt>
      <trkpt lat="45.25641" lon="6.04397">
        <ele>1802.45703125</ele>
        <time>2017-12-01T10:29:57Z</time>
      </trkpt>
      <trkpt lat="45.25636" lon="6.04398">
        <ele>1802.45703125</ele>
        <time>2017-12-01T10:30:04Z</time>
      </trkpt>
      <trkpt lat="45.25632" lon="6.04395">
        <ele>1806.45703125</ele>
        <time>2017-12-01T10:30:15Z</time>
      </trkpt>
      <trkpt lat="45.25627" lon="6.04393">
        <ele>1803.45703125</ele>
        <time>2017-12-01T10:30:23Z</time>
      </trkpt>
      <trkpt lat="45.25623" lon="6.04392">
        <ele>1803.45703125</ele>
        <time>2017-12-01T10:30:34Z</time>
      </trkpt>
      <trkpt lat="45.25618" lon="6.0439">
        <ele>1811.45703125</ele>
        <time>2017-12-01T10:30:55Z</time>
      </trkpt>
      <trkpt lat="45.25615" lon="6.04387">
        <ele>1813.45703125</ele>
        <time>2017-12-01T10:31:08Z</time>
      </trkpt>
      <trkpt lat="45.25611" lon="6.04382">
        <ele>1816.45703125</ele>
        <time>2017-12-01T10:31:17Z</time>
      </trkpt>
      <trkpt lat="45.25607" lon="6.04379">
        <ele>1819.45703125</ele>
        <time>2017-12-01T10:31:25Z</time>
      </trkpt>
      <trkpt lat="45.25603" lon="6.04375">
        <ele>1820.45703125</ele>
        <time>2017-12-01T10:31:35Z</time>
      </trkpt>
      <trkpt lat="45.25599" lon="6.04371">
        <ele>1822.45703125</ele>
        <time>2017-12-01T10:31:49Z</time>
      </trkpt>
      <trkpt lat="45.25596" lon="6.04366">
        <ele>1826.45703125</ele>
        <time>2017-12-01T10:32:00Z</time>
      </trkpt>
      <trkpt lat="45.25592" lon="6.04362">
        <ele>1825.45703125</ele>
        <time>2017-12-01T10:32:08Z</time>
      </trkpt>
      <trkpt lat="45.25591" lon="6.04354">
        <ele>1828.45703125</ele>
        <time>2017-12-01T10:32:23Z</time>
      </trkpt>
      <trkpt lat="45.25588" lon="6.04349">
        <ele>1829.45703125</ele>
        <time>2017-12-01T10:32:34Z</time>
      </trkpt>
      <trkpt lat="45.25587" lon="6.04342">
        <ele>1836.45703125</ele>
        <time>2017-12-01T10:32:42Z</time>
      </trkpt>
      <trkpt lat="45.25587" lon="6.04335">
        <ele>1836.45703125</ele>
        <time>2017-12-01T10:32:47Z</time>
      </trkpt>
      <trkpt lat="45.2559" lon="6.0433">
        <ele>1838.45703125</ele>
        <time>2017-12-01T10:32:56Z</time>
      </trkpt>
      <trkpt lat="45.25594" lon="6.04326">
        <ele>1839.45703125</ele>
        <time>2017-12-01T10:33:07Z</time>
      </trkpt>
      <trkpt lat="45.25595" lon="6.04319">
        <ele>1843.45703125</ele>
        <time>2017-12-01T10:33:32Z</time>
      </trkpt>
      <trkpt lat="45.25598" lon="6.04315">
        <ele>1843.45703125</ele>
        <time>2017-12-01T10:33:40Z</time>
      </trkpt>
      <trkpt lat="45.25601" lon="6.04309">
        <ele>1841.45703125</ele>
        <time>2017-12-01T10:33:48Z</time>
      </trkpt>
      <trkpt lat="45.25604" lon="6.04303">
        <ele>1842.45703125</ele>
        <time>2017-12-01T10:33:59Z</time>
      </trkpt>
      <trkpt lat="45.25609" lon="6.04299">
        <ele>1846.45703125</ele>
        <time>2017-12-01T10:34:09Z</time>
      </trkpt>
      <trkpt lat="45.25613" lon="6.04297">
        <ele>1848.45703125</ele>
        <time>2017-12-01T10:34:21Z</time>
      </trkpt>
      <trkpt lat="45.25618" lon="6.04294">
        <ele>1848.45703125</ele>
        <time>2017-12-01T10:34:30Z</time>
      </trkpt>
      <trkpt lat="45.25622" lon="6.04291">
        <ele>1849.45703125</ele>
        <time>2017-12-01T10:34:35Z</time>
      </trkpt>
      <trkpt lat="45.25627" lon="6.0429">
        <ele>1850.45703125</ele>
        <time>2017-12-01T10:34:43Z</time>
      </trkpt>
      <trkpt lat="45.25631" lon="6.04291">
        <ele>1851.45703125</ele>
        <time>2017-12-01T10:34:57Z</time>
      </trkpt>
      <trkpt lat="45.25636" lon="6.04292">
        <ele>1852.45703125</ele>
        <time>2017-12-01T10:35:06Z</time>
      </trkpt>
      <trkpt lat="45.25641" lon="6.04292">
        <ele>1851.45703125</ele>
        <time>2017-12-01T10:35:15Z</time>
      </trkpt>
      <trkpt lat="45.25645" lon="6.04288">
        <ele>1854.45703125</ele>
        <time>2017-12-01T10:35:22Z</time>
      </trkpt>
      <trkpt lat="45.25649" lon="6.04283">
        <ele>1852.45703125</ele>
        <time>2017-12-01T10:35:27Z</time>
      </trkpt>
      <trkpt lat="45.25652" lon="6.04278">
        <ele>1854.45703125</ele>
        <time>2017-12-01T10:35:38Z</time>
      </trkpt>
      <trkpt lat="45.25656" lon="6.04274">
        <ele>1857.45703125</ele>
        <time>2017-12-01T10:35:46Z</time>
      </trkpt>
      <trkpt lat="45.25659" lon="6.04268">
        <ele>1858.45703125</ele>
        <time>2017-12-01T10:35:53Z</time>
      </trkpt>
      <trkpt lat="45.25662" lon="6.04263">
        <ele>1860.45703125</ele>
        <time>2017-12-01T10:35:58Z</time>
      </trkpt>
      <trkpt lat="45.25665" lon="6.04258">
        <ele>1861.45703125</ele>
        <time>2017-12-01T10:36:49Z</time>
      </trkpt>
      <trkpt lat="45.25668" lon="6.04251">
        <ele>1863.45703125</ele>
        <time>2017-12-01T10:36:56Z</time>
      </trkpt>
      <trkpt lat="45.25671" lon="6.04245">
        <ele>1864.45703125</ele>
        <time>2017-12-01T10:37:05Z</time>
      </trkpt>
      <trkpt lat="45.25674" lon="6.0424">
        <ele>1866.45703125</ele>
        <time>2017-12-01T10:37:19Z</time>
      </trkpt>
      <trkpt lat="45.2567" lon="6.04236">
        <ele>1867.45703125</ele>
        <time>2017-12-01T10:37:28Z</time>
      </trkpt>
      <trkpt lat="45.25665" lon="6.04235">
        <ele>1867.45703125</ele>
        <time>2017-12-01T10:37:36Z</time>
      </trkpt>
      <trkpt lat="45.2566" lon="6.04234">
        <ele>1869.45703125</ele>
        <time>2017-12-01T10:37:42Z</time>
      </trkpt>
      <trkpt lat="45.25655" lon="6.04231">
        <ele>1870.45703125</ele>
        <time>2017-12-01T10:37:51Z</time>
      </trkpt>
      <trkpt lat="45.25651" lon="6.04229">
        <ele>1871.45703125</ele>
        <time>2017-12-01T10:38:02Z</time>
      </trkpt>
      <trkpt lat="45.25646" lon="6.04229">
        <ele>1872.45703125</ele>
        <time>2017-12-01T10:38:08Z</time>
      </trkpt>
      <trkpt lat="45.25641" lon="6.04226">
        <ele>1875.45703125</ele>
        <time>2017-12-01T10:38:22Z</time>
      </trkpt>
      <trkpt lat="45.25638" lon="6.04222">
        <ele>1879.45703125</ele>
        <time>2017-12-01T10:38:31Z</time>
      </trkpt>
      <trkpt lat="45.25632" lon="6.0422">
        <ele>1875.45703125</ele>
        <time>2017-12-01T10:38:44Z</time>
      </trkpt>
      <trkpt lat="45.25628" lon="6.04216">
        <ele>1880.45703125</ele>
        <time>2017-12-01T10:38:53Z</time>
      </trkpt>
      <trkpt lat="45.25624" lon="6.04213">
        <ele>1881.45703125</ele>
        <time>2017-12-01T10:39:02Z</time>
      </trkpt>
      <trkpt lat="45.25619" lon="6.04209">
        <ele>1881.45703125</ele>
        <time>2017-12-01T10:39:08Z</time>
      </trkpt>
      <trkpt lat="45.25615" lon="6.04204">
        <ele>1882.45703125</ele>
        <time>2017-12-01T10:39:18Z</time>
      </trkpt>
      <trkpt lat="45.25611" lon="6.04201">
        <ele>1884.45703125</ele>
        <time>2017-12-01T10:39:31Z</time>
      </trkpt>
      <trkpt lat="45.25614" lon="6.04195">
        <ele>1887.45703125</ele>
        <time>2017-12-01T10:39:52Z</time>
      </trkpt>
      <trkpt lat="45.25618" lon="6.0419">
        <ele>1887.45703125</ele>
        <time>2017-12-01T10:40:06Z</time>
      </trkpt>
      <trkpt lat="45.25622" lon="6.04188">
        <ele>1888.45703125</ele>
        <time>2017-12-01T10:40:20Z</time>
      </trkpt>
      <trkpt lat="45.25626" lon="6.04183">
        <ele>1891.45703125</ele>
        <time>2017-12-01T10:40:42Z</time>
      </trkpt>
      <trkpt lat="45.25625" lon="6.04177">
        <ele>1894.45703125</ele>
        <time>2017-12-01T10:40:55Z</time>
      </trkpt>
      <trkpt lat="45.25622" lon="6.04173">
        <ele>1895.45703125</ele>
        <time>2017-12-01T10:41:10Z</time>
      </trkpt>
      <trkpt lat="45.25618" lon="6.04168">
        <ele>1896.45703125</ele>
        <time>2017-12-01T10:41:21Z</time>
      </trkpt>
      <trkpt lat="45.25615" lon="6.04162">
        <ele>1898.45703125</ele>
        <time>2017-12-01T10:41:29Z</time>
      </trkpt>
      <trkpt lat="45.25613" lon="6.04157">
        <ele>1900.45703125</ele>
        <time>2017-12-01T10:41:42Z</time>
      </trkpt>
      <trkpt lat="45.2561" lon="6.04152">
        <ele>1901.45703125</ele>
        <time>2017-12-01T10:41:51Z</time>
      </trkpt>
      <trkpt lat="45.25606" lon="6.04148">
        <ele>1904.45703125</ele>
        <time>2017-12-01T10:42:02Z</time>
      </trkpt>
      <trkpt lat="45.256" lon="6.04146">
        <ele>1904.45703125</ele>
        <time>2017-12-01T10:42:14Z</time>
      </trkpt>
      <trkpt lat="45.25597" lon="6.04142">
        <ele>1903.45703125</ele>
        <time>2017-12-01T10:42:37Z</time>
      </trkpt>
      <trkpt lat="45.25592" lon="6.04141">
        <ele>1900.45703125</ele>
        <time>2017-12-01T10:42:49Z</time>
      </trkpt>
      <trkpt lat="45.25588" lon="6.04138">
        <ele>1902.45703125</ele>
        <time>2017-12-01T10:43:05Z</time>
      </trkpt>
      <trkpt lat="45.25584" lon="6.04133">
        <ele>1903.45703125</ele>
        <time>2017-12-01T10:43:21Z</time>
      </trkpt>
      <trkpt lat="45.25581" lon="6.04129">
        <ele>1904.45703125</ele>
        <time>2017-12-01T10:43:28Z</time>
      </trkpt>
      <trkpt lat="45.25578" lon="6.04123">
        <ele>1907.45703125</ele>
        <time>2017-12-01T10:43:37Z</time>
      </trkpt>
      <trkpt lat="45.25582" lon="6.04121">
        <ele>1914.45703125</ele>
        <time>2017-12-01T10:44:27Z</time>
      </trkpt>
      <trkpt lat="45.25587" lon="6.04122">
        <ele>1915.45703125</ele>
        <time>2017-12-01T10:44:39Z</time>
      </trkpt>
      <trkpt lat="45.25591" lon="6.0412">
        <ele>1915.45703125</ele>
        <time>2017-12-01T10:44:53Z</time>
      </trkpt>
      <trkpt lat="45.25596" lon="6.04119">
        <ele>1917.45703125</ele>
        <time>2017-12-01T10:45:13Z</time>
      </trkpt>
      <trkpt lat="45.256" lon="6.04117">
        <ele>1918.45703125</ele>
        <time>2017-12-01T10:45:19Z</time>
      </trkpt>
      <trkpt lat="45.25605" lon="6.04115">
        <ele>1920.45703125</ele>
        <time>2017-12-01T10:45:26Z</time>
      </trkpt>
      <trkpt lat="45.2561" lon="6.04112">
        <ele>1921.45703125</ele>
        <time>2017-12-01T10:45:39Z</time>
      </trkpt>
      <trkpt lat="45.25615" lon="6.0411">
        <ele>1923.45703125</ele>
        <time>2017-12-01T10:45:48Z</time>
      </trkpt>
      <trkpt lat="45.25619" lon="6.04108">
        <ele>1923.45703125</ele>
        <time>2017-12-01T10:46:02Z</time>
      </trkpt>
      <trkpt lat="45.25624" lon="6.04105">
        <ele>1927.45703125</ele>
        <time>2017-12-01T10:46:25Z</time>
      </trkpt>
      <trkpt lat="45.25626" lon="6.041">
        <ele>1929.45703125</ele>
        <time>2017-12-01T10:46:30Z</time>
      </trkpt>
      <trkpt lat="45.25629" lon="6.04094">
        <ele>1929.45703125</ele>
        <time>2017-12-01T10:46:35Z</time>
      </trkpt>
      <trkpt lat="45.25631" lon="6.04088">
        <ele>1928.45703125</ele>
        <time>2017-12-01T10:46:40Z</time>
      </trkpt>
      <trkpt lat="45.25634" lon="6.04083">
        <ele>1929.45703125</ele>
        <time>2017-12-01T10:46:45Z</time>
      </trkpt>
      <trkpt lat="45.25636" lon="6.04077">
        <ele>1931.45703125</ele>
        <time>2017-12-01T10:46:53Z</time>
      </trkpt>
      <trkpt lat="45.25639" lon="6.04073">
        <ele>1934.45703125</ele>
        <time>2017-12-01T10:47:01Z</time>
      </trkpt>
      <trkpt lat="45.25642" lon="6.04068">
        <ele>1934.45703125</ele>
        <time>2017-12-01T10:47:09Z</time>
      </trkpt>
      <trkpt lat="45.25646" lon="6.04066">
        <ele>1935.45703125</ele>
        <time>2017-12-01T10:47:27Z</time>
      </trkpt>
      <trkpt lat="45.2565" lon="6.0407">
        <ele>1935.45703125</ele>
        <time>2017-12-01T10:47:36Z</time>
      </trkpt>
      <trkpt lat="45.25654" lon="6.04073">
        <ele>1934.45703125</ele>
        <time>2017-12-01T10:47:41Z</time>
      </trkpt>
      <trkpt lat="45.25658" lon="6.04075">
        <ele>1934.45703125</ele>
        <time>2017-12-01T10:50:30Z</time>
      </trkpt>
      <trkpt lat="45.25653" lon="6.04072">
        <ele>1935.45703125</ele>
        <time>2017-12-01T11:00:38Z</time>
      </trkpt>
      <trkpt lat="45.25648" lon="6.04072">
        <ele>1932.45703125</ele>
        <time>2017-12-01T11:00:40Z</time>
      </trkpt>
      <trkpt lat="45.25641" lon="6.04079">
        <ele>1929.45703125</ele>
        <time>2017-12-01T11:00:42Z</time>
      </trkpt>
      <trkpt lat="45.25635" lon="6.04095">
        <ele>1924.45703125</ele>
        <time>2017-12-01T11:00:44Z</time>
      </trkpt>
      <trkpt lat="45.25632" lon="6.04108">
        <ele>1920.45703125</ele>
        <time>2017-12-01T11:00:46Z</time>
      </trkpt>
      <trkpt lat="45.2563" lon="6.04126">
        <ele>1913.45703125</ele>
        <time>2017-12-01T11:00:48Z</time>
      </trkpt>
      <trkpt lat="45.25629" lon="6.04145">
        <ele>1909.45703125</ele>
        <time>2017-12-01T11:00:50Z</time>
      </trkpt>
      <trkpt lat="45.25626" lon="6.04166">
        <ele>1902.45703125</ele>
        <time>2017-12-01T11:00:52Z</time>
      </trkpt>
      <trkpt lat="45.25627" lon="6.0419">
        <ele>1894.45703125</ele>
        <time>2017-12-01T11:00:54Z</time>
      </trkpt>
      <trkpt lat="45.25629" lon="6.04217">
        <ele>1881.45703125</ele>
        <time>2017-12-01T11:00:56Z</time>
      </trkpt>
      <trkpt lat="45.25635" lon="6.0426">
        <ele>1862.45703125</ele>
        <time>2017-12-01T11:00:59Z</time>
      </trkpt>
      <trkpt lat="45.25641" lon="6.04281">
        <ele>1864.45703125</ele>
        <time>2017-12-01T11:01:01Z</time>
      </trkpt>
      <trkpt lat="45.25648" lon="6.04297">
        <ele>1862.45703125</ele>
        <time>2017-12-01T11:01:03Z</time>
      </trkpt>
      <trkpt lat="45.25652" lon="6.04298">
        <ele>1861.45703125</ele>
        <time>2017-12-01T11:01:05Z</time>
      </trkpt>
      <trkpt lat="45.25658" lon="6.043">
        <ele>1859.45703125</ele>
        <time>2017-12-01T11:01:32Z</time>
      </trkpt>
      <trkpt lat="45.25662" lon="6.04306">
        <ele>1856.45703125</ele>
        <time>2017-12-01T11:01:37Z</time>
      </trkpt>
      <trkpt lat="45.25668" lon="6.04316">
        <ele>1854.45703125</ele>
        <time>2017-12-01T11:01:39Z</time>
      </trkpt>
      <trkpt lat="45.25674" lon="6.04331">
        <ele>1849.45703125</ele>
        <time>2017-12-01T11:01:41Z</time>
      </trkpt>
      <trkpt lat="45.25677" lon="6.04347">
        <ele>1846.45703125</ele>
        <time>2017-12-01T11:01:43Z</time>
      </trkpt>
      <trkpt lat="45.25678" lon="6.04368">
        <ele>1838.45703125</ele>
        <time>2017-12-01T11:01:45Z</time>
      </trkpt>
      <trkpt lat="45.25677" lon="6.04389">
        <ele>1831.45703125</ele>
        <time>2017-12-01T11:01:47Z</time>
      </trkpt>
      <trkpt lat="45.25678" lon="6.0441">
        <ele>1821.45703125</ele>
        <time>2017-12-01T11:01:49Z</time>
      </trkpt>
      <trkpt lat="45.2568" lon="6.04432">
        <ele>1817.45703125</ele>
        <time>2017-12-01T11:01:51Z</time>
      </trkpt>
      <trkpt lat="45.25684" lon="6.04449">
        <ele>1812.45703125</ele>
        <time>2017-12-01T11:01:53Z</time>
      </trkpt>
      <trkpt lat="45.25687" lon="6.04462">
        <ele>1809.45703125</ele>
        <time>2017-12-01T11:01:55Z</time>
      </trkpt>
      <trkpt lat="45.25689" lon="6.04479">
        <ele>1803.4580078125</ele>
        <time>2017-12-01T11:01:57Z</time>
      </trkpt>
      <trkpt lat="45.25688" lon="6.04495">
        <ele>1797.4580078125</ele>
        <time>2017-12-01T11:01:59Z</time>
      </trkpt>
      <trkpt lat="45.25679" lon="6.04504">
        <ele>1781.4580078125</ele>
        <time>2017-12-01T11:03:28Z</time>
      </trkpt>
      <trkpt lat="45.25674" lon="6.04513">
        <ele>1777.4580078125</ele>
        <time>2017-12-01T11:03:30Z</time>
      </trkpt>
      <trkpt lat="45.25678" lon="6.0453">
        <ele>1767.4580078125</ele>
        <time>2017-12-01T11:03:32Z</time>
      </trkpt>
      <trkpt lat="45.25682" lon="6.04551">
        <ele>1756.4580078125</ele>
        <time>2017-12-01T11:03:34Z</time>
      </trkpt>
      <trkpt lat="45.25688" lon="6.04574">
        <ele>1744.4580078125</ele>
        <time>2017-12-01T11:03:36Z</time>
      </trkpt>
      <trkpt lat="45.25694" lon="6.04596">
        <ele>1734.4580078125</ele>
        <time>2017-12-01T11:03:38Z</time>
      </trkpt>
      <trkpt lat="45.25699" lon="6.04616">
        <ele>1729.4580078125</ele>
        <time>2017-12-01T11:03:40Z</time>
      </trkpt>
      <trkpt lat="45.257" lon="6.04636">
        <ele>1725.4580078125</ele>
        <time>2017-12-01T11:03:42Z</time>
      </trkpt>
      <trkpt lat="45.25704" lon="6.04655">
        <ele>1722.4580078125</ele>
        <time>2017-12-01T11:03:44Z</time>
      </trkpt>
      <trkpt lat="45.25702" lon="6.04675">
        <ele>1720.4580078125</ele>
        <time>2017-12-01T11:03:46Z</time>
      </trkpt>
      <trkpt lat="45.25702" lon="6.04684">
        <ele>1718.4580078125</ele>
        <time>2017-12-01T11:03:47Z</time>
      </trkpt>
      <trkpt lat="45.257" lon="6.04706">
        <ele>1714.4580078125</ele>
        <time>2017-12-01T11:03:49Z</time>
      </trkpt>
      <trkpt lat="45.25696" lon="6.04727">
        <ele>1708.4580078125</ele>
        <time>2017-12-01T11:03:51Z</time>
      </trkpt>
      <trkpt lat="45.2569" lon="6.04747">
        <ele>1700.4580078125</ele>
        <time>2017-12-01T11:03:53Z</time>
      </trkpt>
      <trkpt lat="45.25681" lon="6.04758">
        <ele>1694.4580078125</ele>
        <time>2017-12-01T11:03:56Z</time>
      </trkpt>
      <trkpt lat="45.25673" lon="6.04768">
        <ele>1690.4580078125</ele>
        <time>2017-12-01T11:03:58Z</time>
      </trkpt>
      <trkpt lat="45.25677" lon="6.04772">
        <ele>1677.4580078125</ele>
        <time>2017-12-01T11:04:22Z</time>
      </trkpt>
      <trkpt lat="45.25676" lon="6.04779">
        <ele>1670.4580078125</ele>
        <time>2017-12-01T11:04:46Z</time>
      </trkpt>
      <trkpt lat="45.25675" lon="6.04789">
        <ele>1668.4580078125</ele>
        <time>2017-12-01T11:04:48Z</time>
      </trkpt>
      <trkpt lat="45.25669" lon="6.04805">
        <ele>1665.4580078125</ele>
        <time>2017-12-01T11:04:50Z</time>
      </trkpt>
      <trkpt lat="45.25669" lon="6.04815">
        <ele>1663.4580078125</ele>
        <time>2017-12-01T11:04:51Z</time>
      </trkpt>
      <trkpt lat="45.25671" lon="6.04832">
        <ele>1659.4580078125</ele>
        <time>2017-12-01T11:04:53Z</time>
      </trkpt>
      <trkpt lat="45.25675" lon="6.04845">
        <ele>1658.4580078125</ele>
        <time>2017-12-01T11:04:55Z</time>
      </trkpt>
      <trkpt lat="45.2568" lon="6.04854">
        <ele>1657.4580078125</ele>
        <time>2017-12-01T11:04:57Z</time>
      </trkpt>
      <trkpt lat="45.25683" lon="6.04865">
        <ele>1653.4580078125</ele>
        <time>2017-12-01T11:04:59Z</time>
      </trkpt>
      <trkpt lat="45.25685" lon="6.0488">
        <ele>1650.4580078125</ele>
        <time>2017-12-01T11:05:01Z</time>
      </trkpt>
      <trkpt lat="45.25689" lon="6.04897">
        <ele>1647.4580078125</ele>
        <time>2017-12-01T11:05:03Z</time>
      </trkpt>
      <trkpt lat="45.25698" lon="6.04914">
        <ele>1646.4580078125</ele>
        <time>2017-12-01T11:05:05Z</time>
      </trkpt>
      <trkpt lat="45.25705" lon="6.04932">
        <ele>1644.4580078125</ele>
        <time>2017-12-01T11:05:07Z</time>
      </trkpt>
      <trkpt lat="45.25712" lon="6.04952">
        <ele>1639.4580078125</ele>
        <time>2017-12-01T11:05:09Z</time>
      </trkpt>
      <trkpt lat="45.25717" lon="6.04971">
        <ele>1632.4580078125</ele>
        <time>2017-12-01T11:05:11Z</time>
      </trkpt>
      <trkpt lat="45.25721" lon="6.04992">
        <ele>1628.4580078125</ele>
        <time>2017-12-01T11:05:13Z</time>
      </trkpt>
      <trkpt lat="45.25721" lon="6.05013">
        <ele>1621.4580078125</ele>
        <time>2017-12-01T11:05:15Z</time>
      </trkpt>
      <trkpt lat="45.25726" lon="6.05031">
        <ele>1612.4580078125</ele>
        <time>2017-12-01T11:05:17Z</time>
      </trkpt>
      <trkpt lat="45.25731" lon="6.05032">
        <ele>1610.4580078125</ele>
        <time>2017-12-01T11:05:19Z</time>
      </trkpt>
      <trkpt lat="45.25728" lon="6.05027">
        <ele>1596.4580078125</ele>
        <time>2017-12-01T11:06:28Z</time>
      </trkpt>
      <trkpt lat="45.25724" lon="6.0503">
        <ele>1598.4580078125</ele>
        <time>2017-12-01T11:12:15Z</time>
      </trkpt>
      <trkpt lat="45.25719" lon="6.0503">
        <ele>1590.4580078125</ele>
        <time>2017-12-01T11:14:33Z</time>
      </trkpt>
      <trkpt lat="45.25718" lon="6.05023">
        <ele>1598.4580078125</ele>
        <time>2017-12-01T11:14:50Z</time>
      </trkpt>
      <trkpt lat="45.2572" lon="6.05017">
        <ele>1600.4580078125</ele>
        <time>2017-12-01T11:14:57Z</time>
      </trkpt>
      <trkpt lat="45.25718" lon="6.0501">
        <ele>1601.4580078125</ele>
        <time>2017-12-01T11:15:04Z</time>
      </trkpt>
      <trkpt lat="45.25719" lon="6.05003">
        <ele>1602.4580078125</ele>
        <time>2017-12-01T11:15:11Z</time>
      </trkpt>
      <trkpt lat="45.25718" lon="6.04996">
        <ele>1603.4580078125</ele>
        <time>2017-12-01T11:15:17Z</time>
      </trkpt>
      <trkpt lat="45.25718" lon="6.0499">
        <ele>1604.4580078125</ele>
        <time>2017-12-01T11:15:22Z</time>
      </trkpt>
      <trkpt lat="45.25719" lon="6.04983">
        <ele>1606.4580078125</ele>
        <time>2017-12-01T11:15:30Z</time>
      </trkpt>
      <trkpt lat="45.25723" lon="6.04978">
        <ele>1604.4580078125</ele>
        <time>2017-12-01T11:15:42Z</time>
      </trkpt>
      <trkpt lat="45.25724" lon="6.04971">
        <ele>1603.4580078125</ele>
        <time>2017-12-01T11:15:49Z</time>
      </trkpt>
      <trkpt lat="45.25725" lon="6.04964">
        <ele>1605.4580078125</ele>
        <time>2017-12-01T11:15:54Z</time>
      </trkpt>
      <trkpt lat="45.25724" lon="6.04957">
        <ele>1604.4580078125</ele>
        <time>2017-12-01T11:16:01Z</time>
      </trkpt>
      <trkpt lat="45.25723" lon="6.0495">
        <ele>1608.4580078125</ele>
        <time>2017-12-01T11:16:14Z</time>
      </trkpt>
      <trkpt lat="45.25726" lon="6.04943">
        <ele>1611.4580078125</ele>
        <time>2017-12-01T11:16:34Z</time>
      </trkpt>
      <trkpt lat="45.25727" lon="6.04936">
        <ele>1613.4580078125</ele>
        <time>2017-12-01T11:16:49Z</time>
      </trkpt>
      <trkpt lat="45.25723" lon="6.04933">
        <ele>1619.4580078125</ele>
        <time>2017-12-01T11:16:58Z</time>
      </trkpt>
      <trkpt lat="45.25718" lon="6.04929">
        <ele>1624.4580078125</ele>
        <time>2017-12-01T11:17:09Z</time>
      </trkpt>
      <trkpt lat="45.25715" lon="6.04924">
        <ele>1626.4580078125</ele>
        <time>2017-12-01T11:17:15Z</time>
      </trkpt>
      <trkpt lat="45.25711" lon="6.0492">
        <ele>1625.4580078125</ele>
        <time>2017-12-01T11:17:22Z</time>
      </trkpt>
      <trkpt lat="45.25707" lon="6.04916">
        <ele>1626.4580078125</ele>
        <time>2017-12-01T11:17:29Z</time>
      </trkpt>
      <trkpt lat="45.25702" lon="6.04913">
        <ele>1629.4580078125</ele>
        <time>2017-12-01T11:17:39Z</time>
      </trkpt>
      <trkpt lat="45.25696" lon="6.04909">
        <ele>1635.4580078125</ele>
        <time>2017-12-01T11:17:46Z</time>
      </trkpt>
      <trkpt lat="45.25691" lon="6.04905">
        <ele>1636.4580078125</ele>
        <time>2017-12-01T11:17:54Z</time>
      </trkpt>
      <trkpt lat="45.25688" lon="6.04899">
        <ele>1634.4580078125</ele>
        <time>2017-12-01T11:18:02Z</time>
      </trkpt>
      <trkpt lat="45.25685" lon="6.04892">
        <ele>1634.4580078125</ele>
        <time>2017-12-01T11:18:08Z</time>
      </trkpt>
      <trkpt lat="45.25683" lon="6.04886">
        <ele>1639.4580078125</ele>
        <time>2017-12-01T11:18:16Z</time>
      </trkpt>
      <trkpt lat="45.25681" lon="6.04878">
        <ele>1643.4580078125</ele>
        <time>2017-12-01T11:18:22Z</time>
      </trkpt>
      <trkpt lat="45.25679" lon="6.04872">
        <ele>1642.4580078125</ele>
        <time>2017-12-01T11:18:27Z</time>
      </trkpt>
      <trkpt lat="45.25679" lon="6.04865">
        <ele>1640.4580078125</ele>
        <time>2017-12-01T11:18:33Z</time>
      </trkpt>
      <trkpt lat="45.25678" lon="6.04858">
        <ele>1641.4580078125</ele>
        <time>2017-12-01T11:18:40Z</time>
      </trkpt>
      <trkpt lat="45.25677" lon="6.04851">
        <ele>1642.4580078125</ele>
        <time>2017-12-01T11:18:46Z</time>
      </trkpt>
      <trkpt lat="45.25678" lon="6.04843">
        <ele>1642.4580078125</ele>
        <time>2017-12-01T11:18:53Z</time>
      </trkpt>
      <trkpt lat="45.25678" lon="6.04836">
        <ele>1642.4580078125</ele>
        <time>2017-12-01T11:18:59Z</time>
      </trkpt>
      <trkpt lat="45.25678" lon="6.04829">
        <ele>1647.4580078125</ele>
        <time>2017-12-01T11:19:05Z</time>
      </trkpt>
      <trkpt lat="45.25678" lon="6.04822">
        <ele>1646.4580078125</ele>
        <time>2017-12-01T11:19:11Z</time>
      </trkpt>
      <trkpt lat="45.25677" lon="6.04815">
        <ele>1652.4580078125</ele>
        <time>2017-12-01T11:19:17Z</time>
      </trkpt>
      <trkpt lat="45.25679" lon="6.04809">
        <ele>1654.4580078125</ele>
        <time>2017-12-01T11:19:27Z</time>
      </trkpt>
      <trkpt lat="45.25676" lon="6.04803">
        <ele>1656.4580078125</ele>
        <time>2017-12-01T11:19:35Z</time>
      </trkpt>
      <trkpt lat="45.25675" lon="6.04796">
        <ele>1660.4580078125</ele>
        <time>2017-12-01T11:19:44Z</time>
      </trkpt>
      <trkpt lat="45.2568" lon="6.04793">
        <ele>1660.4580078125</ele>
        <time>2017-12-01T11:19:57Z</time>
      </trkpt>
      <trkpt lat="45.25685" lon="6.04793">
        <ele>1659.4580078125</ele>
        <time>2017-12-01T11:20:06Z</time>
      </trkpt>
      <trkpt lat="45.2569" lon="6.04792">
        <ele>1661.4580078125</ele>
        <time>2017-12-01T11:20:14Z</time>
      </trkpt>
      <trkpt lat="45.25694" lon="6.04789">
        <ele>1663.4580078125</ele>
        <time>2017-12-01T11:20:18Z</time>
      </trkpt>
      <trkpt lat="45.25699" lon="6.04786">
        <ele>1666.4580078125</ele>
        <time>2017-12-01T11:20:23Z</time>
      </trkpt>
      <trkpt lat="45.25704" lon="6.04785">
        <ele>1669.4580078125</ele>
        <time>2017-12-01T11:20:29Z</time>
      </trkpt>
      <trkpt lat="45.25708" lon="6.04779">
        <ele>1671.4580078125</ele>
        <time>2017-12-01T11:20:39Z</time>
      </trkpt>
      <trkpt lat="45.25706" lon="6.04773">
        <ele>1670.4580078125</ele>
        <time>2017-12-01T11:20:52Z</time>
      </trkpt>
      <trkpt lat="45.25704" lon="6.04767">
        <ele>1676.4580078125</ele>
        <time>2017-12-01T11:21:04Z</time>
      </trkpt>
      <trkpt lat="45.25702" lon="6.04761">
        <ele>1681.4580078125</ele>
        <time>2017-12-01T11:21:12Z</time>
      </trkpt>
      <trkpt lat="45.25698" lon="6.04757">
        <ele>1678.4580078125</ele>
        <time>2017-12-01T11:21:17Z</time>
      </trkpt>
      <trkpt lat="45.25693" lon="6.04753">
        <ele>1676.4580078125</ele>
        <time>2017-12-01T11:21:24Z</time>
      </trkpt>
      <trkpt lat="45.25691" lon="6.04746">
        <ele>1677.4580078125</ele>
        <time>2017-12-01T11:21:32Z</time>
      </trkpt>
      <trkpt lat="45.25689" lon="6.0474">
        <ele>1680.4580078125</ele>
        <time>2017-12-01T11:21:42Z</time>
      </trkpt>
      <trkpt lat="45.25685" lon="6.04735">
        <ele>1683.4580078125</ele>
        <time>2017-12-01T11:21:50Z</time>
      </trkpt>
      <trkpt lat="45.25682" lon="6.0473">
        <ele>1684.4580078125</ele>
        <time>2017-12-01T11:21:57Z</time>
      </trkpt>
      <trkpt lat="45.2568" lon="6.04724">
        <ele>1689.4580078125</ele>
        <time>2017-12-01T11:22:09Z</time>
      </trkpt>
      <trkpt lat="45.25681" lon="6.04718">
        <ele>1689.4580078125</ele>
        <time>2017-12-01T11:22:23Z</time>
      </trkpt>
      <trkpt lat="45.25684" lon="6.04712">
        <ele>1689.4580078125</ele>
        <time>2017-12-01T11:22:33Z</time>
      </trkpt>
      <trkpt lat="45.25688" lon="6.04708">
        <ele>1687.4580078125</ele>
        <time>2017-12-01T11:22:43Z</time>
      </trkpt>
      <trkpt lat="45.25692" lon="6.04705">
        <ele>1691.4580078125</ele>
        <time>2017-12-01T11:22:56Z</time>
      </trkpt>
      <trkpt lat="45.25696" lon="6.047">
        <ele>1694.4580078125</ele>
        <time>2017-12-01T11:23:09Z</time>
      </trkpt>
      <trkpt lat="45.25699" lon="6.04694">
        <ele>1696.4580078125</ele>
        <time>2017-12-01T11:23:22Z</time>
      </trkpt>
      <trkpt lat="45.25703" lon="6.0469">
        <ele>1697.4580078125</ele>
        <time>2017-12-01T11:23:28Z</time>
      </trkpt>
      <trkpt lat="45.25707" lon="6.04686">
        <ele>1702.4580078125</ele>
        <time>2017-12-01T11:23:33Z</time>
      </trkpt>
      <trkpt lat="45.25709" lon="6.0468">
        <ele>1702.4580078125</ele>
        <time>2017-12-01T11:23:39Z</time>
      </trkpt>
      <trkpt lat="45.2571" lon="6.04673">
        <ele>1704.4580078125</ele>
        <time>2017-12-01T11:23:55Z</time>
      </trkpt>
      <trkpt lat="45.25711" lon="6.04667">
        <ele>1704.4580078125</ele>
        <time>2017-12-01T11:24:03Z</time>
      </trkpt>
      <trkpt lat="45.25714" lon="6.0466">
        <ele>1708.4580078125</ele>
        <time>2017-12-01T11:24:10Z</time>
      </trkpt>
      <trkpt lat="45.25715" lon="6.04654">
        <ele>1711.4580078125</ele>
        <time>2017-12-01T11:24:27Z</time>
      </trkpt>
      <trkpt lat="45.25713" lon="6.04647">
        <ele>1712.4580078125</ele>
        <time>2017-12-01T11:24:36Z</time>
      </trkpt>
      <trkpt lat="45.25709" lon="6.04641">
        <ele>1717.4580078125</ele>
        <time>2017-12-01T11:24:47Z</time>
      </trkpt>
      <trkpt lat="45.25706" lon="6.04637">
        <ele>1718.4580078125</ele>
        <time>2017-12-01T11:24:54Z</time>
      </trkpt>
      <trkpt lat="45.25703" lon="6.04632">
        <ele>1722.4580078125</ele>
        <time>2017-12-01T11:25:05Z</time>
      </trkpt>
      <trkpt lat="45.25698" lon="6.04629">
        <ele>1723.4580078125</ele>
        <time>2017-12-01T11:25:14Z</time>
      </trkpt>
      <trkpt lat="45.25696" lon="6.04623">
        <ele>1726.4580078125</ele>
        <time>2017-12-01T11:25:20Z</time>
      </trkpt>
      <trkpt lat="45.25693" lon="6.04617">
        <ele>1725.4580078125</ele>
        <time>2017-12-01T11:25:27Z</time>
      </trkpt>
      <trkpt lat="45.25691" lon="6.04611">
        <ele>1726.4580078125</ele>
        <time>2017-12-01T11:25:38Z</time>
      </trkpt>
      <trkpt lat="45.25689" lon="6.04605">
        <ele>1729.4580078125</ele>
        <time>2017-12-01T11:25:49Z</time>
      </trkpt>
      <trkpt lat="45.25686" lon="6.046">
        <ele>1727.4580078125</ele>
        <time>2017-12-01T11:25:59Z</time>
      </trkpt>
      <trkpt lat="45.25683" lon="6.04594">
        <ele>1730.4580078125</ele>
        <time>2017-12-01T11:26:07Z</time>
      </trkpt>
      <trkpt lat="45.25679" lon="6.04591">
        <ele>1734.4580078125</ele>
        <time>2017-12-01T11:26:14Z</time>
      </trkpt>
      <trkpt lat="45.25682" lon="6.04586">
        <ele>1733.4580078125</ele>
        <time>2017-12-01T11:26:30Z</time>
      </trkpt>
      <trkpt lat="45.25684" lon="6.0458">
        <ele>1734.4580078125</ele>
        <time>2017-12-01T11:26:43Z</time>
      </trkpt>
      <trkpt lat="45.25684" lon="6.04573">
        <ele>1741.4580078125</ele>
        <time>2017-12-01T11:26:52Z</time>
      </trkpt>
      <trkpt lat="45.25679" lon="6.04574">
        <ele>1742.4580078125</ele>
        <time>2017-12-01T11:26:57Z</time>
      </trkpt>
      <trkpt lat="45.25674" lon="6.04573">
        <ele>1741.4580078125</ele>
        <time>2017-12-01T11:27:05Z</time>
      </trkpt>
      <trkpt lat="45.2567" lon="6.0457">
        <ele>1747.4580078125</ele>
        <time>2017-12-01T11:27:12Z</time>
      </trkpt>
      <trkpt lat="45.25665" lon="6.04568">
        <ele>1749.4580078125</ele>
        <time>2017-12-01T11:27:20Z</time>
      </trkpt>
      <trkpt lat="45.25661" lon="6.04564">
        <ele>1748.4580078125</ele>
        <time>2017-12-01T11:27:27Z</time>
      </trkpt>
      <trkpt lat="45.25656" lon="6.04561">
        <ele>1746.4580078125</ele>
        <time>2017-12-01T11:27:36Z</time>
      </trkpt>
      <trkpt lat="45.25652" lon="6.04557">
        <ele>1747.4580078125</ele>
        <time>2017-12-01T11:27:42Z</time>
      </trkpt>
      <trkpt lat="45.25648" lon="6.04553">
        <ele>1749.4580078125</ele>
        <time>2017-12-01T11:27:50Z</time>
      </trkpt>
      <trkpt lat="45.25651" lon="6.04547">
        <ele>1753.4580078125</ele>
        <time>2017-12-01T11:28:07Z</time>
      </trkpt>
      <trkpt lat="45.25655" lon="6.04544">
        <ele>1754.4580078125</ele>
        <time>2017-12-01T11:28:15Z</time>
      </trkpt>
      <trkpt lat="45.25651" lon="6.04539">
        <ele>1755.4580078125</ele>
        <time>2017-12-01T11:28:30Z</time>
      </trkpt>
      <trkpt lat="45.25647" lon="6.0454">
        <ele>1759.4580078125</ele>
        <time>2017-12-01T11:28:38Z</time>
      </trkpt>
      <trkpt lat="45.25642" lon="6.04536">
        <ele>1759.4580078125</ele>
        <time>2017-12-01T11:28:47Z</time>
      </trkpt>
      <trkpt lat="45.25639" lon="6.04531">
        <ele>1760.45703125</ele>
        <time>2017-12-01T11:28:55Z</time>
      </trkpt>
      <trkpt lat="45.25642" lon="6.04526">
        <ele>1762.45703125</ele>
        <time>2017-12-01T11:29:06Z</time>
      </trkpt>
      <trkpt lat="45.25646" lon="6.04522">
        <ele>1762.45703125</ele>
        <time>2017-12-01T11:29:11Z</time>
      </trkpt>
      <trkpt lat="45.2565" lon="6.04519">
        <ele>1763.4580078125</ele>
        <time>2017-12-01T11:29:18Z</time>
      </trkpt>
      <trkpt lat="45.25654" lon="6.04515">
        <ele>1766.4580078125</ele>
        <time>2017-12-01T11:29:28Z</time>
      </trkpt>
      <trkpt lat="45.25657" lon="6.04509">
        <ele>1767.4580078125</ele>
        <time>2017-12-01T11:29:35Z</time>
      </trkpt>
      <trkpt lat="45.2566" lon="6.04503">
        <ele>1769.45703125</ele>
        <time>2017-12-01T11:29:46Z</time>
      </trkpt>
      <trkpt lat="45.25655" lon="6.04499">
        <ele>1767.45703125</ele>
        <time>2017-12-01T11:29:54Z</time>
      </trkpt>
      <trkpt lat="45.25651" lon="6.04496">
        <ele>1768.45703125</ele>
        <time>2017-12-01T11:30:00Z</time>
      </trkpt>
      <trkpt lat="45.25646" lon="6.04491">
        <ele>1775.45703125</ele>
        <time>2017-12-01T11:30:11Z</time>
      </trkpt>
      <trkpt lat="45.25641" lon="6.0449">
        <ele>1779.45703125</ele>
        <time>2017-12-01T11:30:18Z</time>
      </trkpt>
      <trkpt lat="45.25636" lon="6.04491">
        <ele>1781.45703125</ele>
        <time>2017-12-01T11:30:25Z</time>
      </trkpt>
      <trkpt lat="45.25632" lon="6.04488">
        <ele>1782.45703125</ele>
        <time>2017-12-01T11:30:34Z</time>
      </trkpt>
      <trkpt lat="45.25632" lon="6.0448">
        <ele>1782.45703125</ele>
        <time>2017-12-01T11:30:46Z</time>
      </trkpt>
      <trkpt lat="45.25634" lon="6.04474">
        <ele>1785.45703125</ele>
        <time>2017-12-01T11:30:51Z</time>
      </trkpt>
      <trkpt lat="45.25635" lon="6.04467">
        <ele>1781.45703125</ele>
        <time>2017-12-01T11:30:54Z</time>
      </trkpt>
      <trkpt lat="45.25636" lon="6.0446">
        <ele>1781.45703125</ele>
        <time>2017-12-01T11:31:00Z</time>
      </trkpt>
      <trkpt lat="45.25636" lon="6.04453">
        <ele>1781.45703125</ele>
        <time>2017-12-01T11:31:06Z</time>
      </trkpt>
      <trkpt lat="45.25639" lon="6.04447">
        <ele>1784.45703125</ele>
        <time>2017-12-01T11:31:12Z</time>
      </trkpt>
      <trkpt lat="45.25641" lon="6.04441">
        <ele>1785.45703125</ele>
        <time>2017-12-01T11:31:18Z</time>
      </trkpt>
      <trkpt lat="45.25645" lon="6.04438">
        <ele>1789.45703125</ele>
        <time>2017-12-01T11:31:25Z</time>
      </trkpt>
      <trkpt lat="45.25649" lon="6.04434">
        <ele>1788.45703125</ele>
        <time>2017-12-01T11:31:30Z</time>
      </trkpt>
      <trkpt lat="45.25653" lon="6.0443">
        <ele>1788.45703125</ele>
        <time>2017-12-01T11:31:37Z</time>
      </trkpt>
      <trkpt lat="45.25658" lon="6.04426">
        <ele>1791.45703125</ele>
        <time>2017-12-01T11:31:48Z</time>
      </trkpt>
      <trkpt lat="45.25655" lon="6.0442">
        <ele>1795.45703125</ele>
        <time>2017-12-01T11:31:59Z</time>
      </trkpt>
      <trkpt lat="45.25651" lon="6.04415">
        <ele>1800.45703125</ele>
        <time>2017-12-01T11:32:06Z</time>
      </trkpt>
      <trkpt lat="45.2565" lon="6.04408">
        <ele>1801.45703125</ele>
        <time>2017-12-01T11:32:16Z</time>
      </trkpt>
      <trkpt lat="45.25648" lon="6.04403">
        <ele>1805.45703125</ele>
        <time>2017-12-01T11:32:30Z</time>
      </trkpt>
      <trkpt lat="45.25643" lon="6.04398">
        <ele>1808.45703125</ele>
        <time>2017-12-01T11:32:36Z</time>
      </trkpt>
      <trkpt lat="45.25638" lon="6.04397">
        <ele>1807.45703125</ele>
        <time>2017-12-01T11:32:45Z</time>
      </trkpt>
      <trkpt lat="45.25633" lon="6.04395">
        <ele>1808.45703125</ele>
        <time>2017-12-01T11:32:53Z</time>
      </trkpt>
      <trkpt lat="45.25629" lon="6.04395">
        <ele>1810.45703125</ele>
        <time>2017-12-01T11:33:00Z</time>
      </trkpt>
      <trkpt lat="45.25624" lon="6.04393">
        <ele>1812.45703125</ele>
        <time>2017-12-01T11:33:13Z</time>
      </trkpt>
      <trkpt lat="45.25619" lon="6.04392">
        <ele>1816.45703125</ele>
        <time>2017-12-01T11:33:24Z</time>
      </trkpt>
      <trkpt lat="45.25616" lon="6.04388">
        <ele>1817.45703125</ele>
        <time>2017-12-01T11:33:29Z</time>
      </trkpt>
      <trkpt lat="45.25611" lon="6.04385">
        <ele>1819.45703125</ele>
        <time>2017-12-01T11:33:43Z</time>
      </trkpt>
      <trkpt lat="45.25608" lon="6.0438">
        <ele>1819.45703125</ele>
        <time>2017-12-01T11:33:57Z</time>
      </trkpt>
      <trkpt lat="45.25604" lon="6.04376">
        <ele>1821.45703125</ele>
        <time>2017-12-01T11:34:03Z</time>
      </trkpt>
      <trkpt lat="45.256" lon="6.04371">
        <ele>1823.45703125</ele>
        <time>2017-12-01T11:34:10Z</time>
      </trkpt>
      <trkpt lat="45.25597" lon="6.04367">
        <ele>1825.45703125</ele>
        <time>2017-12-01T11:34:16Z</time>
      </trkpt>
      <trkpt lat="45.25594" lon="6.04361">
        <ele>1826.45703125</ele>
        <time>2017-12-01T11:34:29Z</time>
      </trkpt>
      <trkpt lat="45.25592" lon="6.04356">
        <ele>1825.45703125</ele>
        <time>2017-12-01T11:34:37Z</time>
      </trkpt>
      <trkpt lat="45.2559" lon="6.04349">
        <ele>1826.45703125</ele>
        <time>2017-12-01T11:34:44Z</time>
      </trkpt>
      <trkpt lat="45.25587" lon="6.04343">
        <ele>1826.45703125</ele>
        <time>2017-12-01T11:34:49Z</time>
      </trkpt>
      <trkpt lat="45.25587" lon="6.04337">
        <ele>1833.45703125</ele>
        <time>2017-12-01T11:35:02Z</time>
      </trkpt>
      <trkpt lat="45.25591" lon="6.04331">
        <ele>1833.45703125</ele>
        <time>2017-12-01T11:35:13Z</time>
      </trkpt>
      <trkpt lat="45.25592" lon="6.04324">
        <ele>1834.45703125</ele>
        <time>2017-12-01T11:35:20Z</time>
      </trkpt>
      <trkpt lat="45.25595" lon="6.04318">
        <ele>1836.45703125</ele>
        <time>2017-12-01T11:35:31Z</time>
      </trkpt>
      <trkpt lat="45.25598" lon="6.04312">
        <ele>1838.45703125</ele>
        <time>2017-12-01T11:35:38Z</time>
      </trkpt>
      <trkpt lat="45.25601" lon="6.04307">
        <ele>1838.45703125</ele>
        <time>2017-12-01T11:35:43Z</time>
      </trkpt>
      <trkpt lat="45.25604" lon="6.04301">
        <ele>1838.45703125</ele>
        <time>2017-12-01T11:35:50Z</time>
      </trkpt>
      <trkpt lat="45.25608" lon="6.04297">
        <ele>1842.45703125</ele>
        <time>2017-12-01T11:35:56Z</time>
      </trkpt>
      <trkpt lat="45.25613" lon="6.04294">
        <ele>1843.45703125</ele>
        <time>2017-12-01T11:36:06Z</time>
      </trkpt>
      <trkpt lat="45.25617" lon="6.04292">
        <ele>1843.45703125</ele>
        <time>2017-12-01T11:36:12Z</time>
      </trkpt>
      <trkpt lat="45.25622" lon="6.04291">
        <ele>1845.45703125</ele>
        <time>2017-12-01T11:36:16Z</time>
      </trkpt>
      <trkpt lat="45.25626" lon="6.04291">
        <ele>1847.45703125</ele>
        <time>2017-12-01T11:36:23Z</time>
      </trkpt>
      <trkpt lat="45.25631" lon="6.0429">
        <ele>1850.45703125</ele>
        <time>2017-12-01T11:36:28Z</time>
      </trkpt>
      <trkpt lat="45.25636" lon="6.04291">
        <ele>1852.45703125</ele>
        <time>2017-12-01T11:36:39Z</time>
      </trkpt>
      <trkpt lat="45.2564" lon="6.04292">
        <ele>1854.45703125</ele>
        <time>2017-12-01T11:36:45Z</time>
      </trkpt>
      <trkpt lat="45.25645" lon="6.04289">
        <ele>1852.45703125</ele>
        <time>2017-12-01T11:36:57Z</time>
      </trkpt>
      <trkpt lat="45.25648" lon="6.04284">
        <ele>1851.45703125</ele>
        <time>2017-12-01T11:37:03Z</time>
      </trkpt>
      <trkpt lat="45.25652" lon="6.04279">
        <ele>1853.45703125</ele>
        <time>2017-12-01T11:37:09Z</time>
      </trkpt>
      <trkpt lat="45.25656" lon="6.04274">
        <ele>1860.45703125</ele>
        <time>2017-12-01T11:37:15Z</time>
      </trkpt>
      <trkpt lat="45.2566" lon="6.04271">
        <ele>1862.45703125</ele>
        <time>2017-12-01T11:37:23Z</time>
      </trkpt>
      <trkpt lat="45.25664" lon="6.04268">
        <ele>1863.45703125</ele>
        <time>2017-12-01T11:37:28Z</time>
      </trkpt>
      <trkpt lat="45.25668" lon="6.04265">
        <ele>1863.45703125</ele>
        <time>2017-12-01T11:37:32Z</time>
      </trkpt>
      <trkpt lat="45.25672" lon="6.04262">
        <ele>1863.45703125</ele>
        <time>2017-12-01T11:37:37Z</time>
      </trkpt>
      <trkpt lat="45.25677" lon="6.04258">
        <ele>1867.45703125</ele>
        <time>2017-12-01T11:37:40Z</time>
      </trkpt>
      <trkpt lat="45.25681" lon="6.04255">
        <ele>1864.45703125</ele>
        <time>2017-12-01T11:37:46Z</time>
      </trkpt>
      <trkpt lat="45.25686" lon="6.0425">
        <ele>1861.45703125</ele>
        <time>2017-12-01T11:37:53Z</time>
      </trkpt>
      <trkpt lat="45.25689" lon="6.04246">
        <ele>1861.45703125</ele>
        <time>2017-12-01T11:38:02Z</time>
      </trkpt>
      <trkpt lat="45.25693" lon="6.04241">
        <ele>1859.45703125</ele>
        <time>2017-12-01T11:38:07Z</time>
      </trkpt>
      <trkpt lat="45.25696" lon="6.04235">
        <ele>1861.45703125</ele>
        <time>2017-12-01T11:38:14Z</time>
      </trkpt>
      <trkpt lat="45.25697" lon="6.04228">
        <ele>1860.45703125</ele>
        <time>2017-12-01T11:38:23Z</time>
      </trkpt>
      <trkpt lat="45.25699" lon="6.0422">
        <ele>1857.45703125</ele>
        <time>2017-12-01T11:38:29Z</time>
      </trkpt>
      <trkpt lat="45.25701" lon="6.04214">
        <ele>1855.45703125</ele>
        <time>2017-12-01T11:38:36Z</time>
      </trkpt>
      <trkpt lat="45.25703" lon="6.04207">
        <ele>1857.45703125</ele>
        <time>2017-12-01T11:38:42Z</time>
      </trkpt>
      <trkpt lat="45.25706" lon="6.04201">
        <ele>1856.45703125</ele>
        <time>2017-12-01T11:38:49Z</time>
      </trkpt>
      <trkpt lat="45.25709" lon="6.04195">
        <ele>1853.45703125</ele>
        <time>2017-12-01T11:38:53Z</time>
      </trkpt>
      <trkpt lat="45.25713" lon="6.0419">
        <ele>1855.45703125</ele>
        <time>2017-12-01T11:38:57Z</time>
      </trkpt>
      <trkpt lat="45.25715" lon="6.04183">
        <ele>1855.45703125</ele>
        <time>2017-12-01T11:39:04Z</time>
      </trkpt>
      <trkpt lat="45.25717" lon="6.04176">
        <ele>1856.45703125</ele>
        <time>2017-12-01T11:39:10Z</time>
      </trkpt>
      <trkpt lat="45.2572" lon="6.04168">
        <ele>1855.45703125</ele>
        <time>2017-12-01T11:39:20Z</time>
      </trkpt>
      <trkpt lat="45.25722" lon="6.04163">
        <ele>1860.45703125</ele>
        <time>2017-12-01T11:39:27Z</time>
      </trkpt>
      <trkpt lat="45.25726" lon="6.04157">
        <ele>1858.45703125</ele>
        <time>2017-12-01T11:39:33Z</time>
      </trkpt>
      <trkpt lat="45.25727" lon="6.04151">
        <ele>1853.45703125</ele>
        <time>2017-12-01T11:39:42Z</time>
      </trkpt>
      <trkpt lat="45.25729" lon="6.04145">
        <ele>1853.45703125</ele>
        <time>2017-12-01T11:39:47Z</time>
      </trkpt>
      <trkpt lat="45.25733" lon="6.0414">
        <ele>1853.45703125</ele>
        <time>2017-12-01T11:39:52Z</time>
      </trkpt>
      <trkpt lat="45.25737" lon="6.04135">
        <ele>1853.45703125</ele>
        <time>2017-12-01T11:39:57Z</time>
      </trkpt>
      <trkpt lat="45.2574" lon="6.0413">
        <ele>1851.45703125</ele>
        <time>2017-12-01T11:40:05Z</time>
      </trkpt>
      <trkpt lat="45.25744" lon="6.04125">
        <ele>1857.45703125</ele>
        <time>2017-12-01T11:40:11Z</time>
      </trkpt>
      <trkpt lat="45.25747" lon="6.0412">
        <ele>1857.45703125</ele>
        <time>2017-12-01T11:40:15Z</time>
      </trkpt>
      <trkpt lat="45.25751" lon="6.04116">
        <ele>1859.45703125</ele>
        <time>2017-12-01T11:40:19Z</time>
      </trkpt>
      <trkpt lat="45.25754" lon="6.0411">
        <ele>1857.45703125</ele>
        <time>2017-12-01T11:40:28Z</time>
      </trkpt>
      <trkpt lat="45.25756" lon="6.04103">
        <ele>1854.45703125</ele>
        <time>2017-12-01T11:40:35Z</time>
      </trkpt>
      <trkpt lat="45.25758" lon="6.04097">
        <ele>1851.45703125</ele>
        <time>2017-12-01T11:40:43Z</time>
      </trkpt>
      <trkpt lat="45.25759" lon="6.04091">
        <ele>1851.45703125</ele>
        <time>2017-12-01T11:40:51Z</time>
      </trkpt>
      <trkpt lat="45.25763" lon="6.04085">
        <ele>1851.45703125</ele>
        <time>2017-12-01T11:40:56Z</time>
      </trkpt>
      <trkpt lat="45.25766" lon="6.04081">
        <ele>1852.45703125</ele>
        <time>2017-12-01T11:41:02Z</time>
      </trkpt>
      <trkpt lat="45.25768" lon="6.04073">
        <ele>1856.45703125</ele>
        <time>2017-12-01T11:41:14Z</time>
      </trkpt>
      <trkpt lat="45.25772" lon="6.04069">
        <ele>1860.45703125</ele>
        <time>2017-12-01T11:41:20Z</time>
      </trkpt>
      <trkpt lat="45.25772" lon="6.04062">
        <ele>1858.45703125</ele>
        <time>2017-12-01T11:41:26Z</time>
      </trkpt>
      <trkpt lat="45.25777" lon="6.0406">
        <ele>1862.45703125</ele>
        <time>2017-12-01T11:41:36Z</time>
      </trkpt>
      <trkpt lat="45.25782" lon="6.04059">
        <ele>1863.45703125</ele>
        <time>2017-12-01T11:41:46Z</time>
      </trkpt>
      <trkpt lat="45.25785" lon="6.04054">
        <ele>1865.45703125</ele>
        <time>2017-12-01T11:41:52Z</time>
      </trkpt>
      <trkpt lat="45.25784" lon="6.04048">
        <ele>1868.45703125</ele>
        <time>2017-12-01T11:42:07Z</time>
      </trkpt>
      <trkpt lat="45.25782" lon="6.04042">
        <ele>1870.45703125</ele>
        <time>2017-12-01T11:42:17Z</time>
      </trkpt>
      <trkpt lat="45.25781" lon="6.04034">
        <ele>1872.45703125</ele>
        <time>2017-12-01T11:42:25Z</time>
      </trkpt>
      <trkpt lat="45.25782" lon="6.04028">
        <ele>1869.45703125</ele>
        <time>2017-12-01T11:42:35Z</time>
      </trkpt>
      <trkpt lat="45.25784" lon="6.04021">
        <ele>1867.45703125</ele>
        <time>2017-12-01T11:42:44Z</time>
      </trkpt>
      <trkpt lat="45.25789" lon="6.04022">
        <ele>1870.45703125</ele>
        <time>2017-12-01T11:42:51Z</time>
      </trkpt>
      <trkpt lat="45.25794" lon="6.04021">
        <ele>1873.45703125</ele>
        <time>2017-12-01T11:42:55Z</time>
      </trkpt>
      <trkpt lat="45.25795" lon="6.04014">
        <ele>1871.45703125</ele>
        <time>2017-12-01T11:43:03Z</time>
      </trkpt>
      <trkpt lat="45.25793" lon="6.04008">
        <ele>1870.45703125</ele>
        <time>2017-12-01T11:43:09Z</time>
      </trkpt>
      <trkpt lat="45.25793" lon="6.04">
        <ele>1875.45703125</ele>
        <time>2017-12-01T11:43:22Z</time>
      </trkpt>
      <trkpt lat="45.25792" lon="6.03991">
        <ele>1871.45703125</ele>
        <time>2017-12-01T11:43:27Z</time>
      </trkpt>
      <trkpt lat="45.25792" lon="6.03984">
        <ele>1870.45703125</ele>
        <time>2017-12-01T11:43:34Z</time>
      </trkpt>
      <trkpt lat="45.25791" lon="6.03978">
        <ele>1875.45703125</ele>
        <time>2017-12-01T11:43:40Z</time>
      </trkpt>
      <trkpt lat="45.25791" lon="6.0397">
        <ele>1880.45703125</ele>
        <time>2017-12-01T11:43:51Z</time>
      </trkpt>
      <trkpt lat="45.25791" lon="6.03964">
        <ele>1879.45703125</ele>
        <time>2017-12-01T11:44:02Z</time>
      </trkpt>
      <trkpt lat="45.25789" lon="6.03958">
        <ele>1882.45703125</ele>
        <time>2017-12-01T11:44:10Z</time>
      </trkpt>
      <trkpt lat="45.25787" lon="6.03951">
        <ele>1883.45703125</ele>
        <time>2017-12-01T11:44:17Z</time>
      </trkpt>
      <trkpt lat="45.25789" lon="6.03944">
        <ele>1882.45703125</ele>
        <time>2017-12-01T11:44:26Z</time>
      </trkpt>
      <trkpt lat="45.25788" lon="6.03937">
        <ele>1881.45703125</ele>
        <time>2017-12-01T11:44:32Z</time>
      </trkpt>
      <trkpt lat="45.25788" lon="6.03929">
        <ele>1884.45703125</ele>
        <time>2017-12-01T11:44:42Z</time>
      </trkpt>
      <trkpt lat="45.25787" lon="6.03923">
        <ele>1883.45703125</ele>
        <time>2017-12-01T11:44:49Z</time>
      </trkpt>
      <trkpt lat="45.25785" lon="6.03917">
        <ele>1886.45703125</ele>
        <time>2017-12-01T11:44:56Z</time>
      </trkpt>
      <trkpt lat="45.25783" lon="6.03911">
        <ele>1889.45703125</ele>
        <time>2017-12-01T11:45:07Z</time>
      </trkpt>
      <trkpt lat="45.25783" lon="6.03903">
        <ele>1890.45703125</ele>
        <time>2017-12-01T11:45:18Z</time>
      </trkpt>
      <trkpt lat="45.25783" lon="6.03896">
        <ele>1891.45703125</ele>
        <time>2017-12-01T11:45:27Z</time>
      </trkpt>
      <trkpt lat="45.25781" lon="6.03889">
        <ele>1889.45703125</ele>
        <time>2017-12-01T11:45:32Z</time>
      </trkpt>
      <trkpt lat="45.25784" lon="6.03884">
        <ele>1892.45703125</ele>
        <time>2017-12-01T11:45:39Z</time>
      </trkpt>
      <trkpt lat="45.25785" lon="6.03877">
        <ele>1898.45703125</ele>
        <time>2017-12-01T11:45:45Z</time>
      </trkpt>
      <trkpt lat="45.25787" lon="6.0387">
        <ele>1898.45703125</ele>
        <time>2017-12-01T11:45:55Z</time>
      </trkpt>
      <trkpt lat="45.2579" lon="6.03864">
        <ele>1900.45703125</ele>
        <time>2017-12-01T11:46:03Z</time>
      </trkpt>
      <trkpt lat="45.25791" lon="6.03858">
        <ele>1900.45703125</ele>
        <time>2017-12-01T11:46:14Z</time>
      </trkpt>
      <trkpt lat="45.25795" lon="6.03852">
        <ele>1900.45703125</ele>
        <time>2017-12-01T11:46:24Z</time>
      </trkpt>
      <trkpt lat="45.25801" lon="6.03854">
        <ele>1901.45703125</ele>
        <time>2017-12-01T11:46:30Z</time>
      </trkpt>
      <trkpt lat="45.25805" lon="6.03857">
        <ele>1903.45703125</ele>
        <time>2017-12-01T11:46:44Z</time>
      </trkpt>
      <trkpt lat="45.25808" lon="6.03861">
        <ele>1905.45703125</ele>
        <time>2017-12-01T11:46:55Z</time>
      </trkpt>
      <trkpt lat="45.25813" lon="6.0386">
        <ele>1904.45703125</ele>
        <time>2017-12-01T11:47:03Z</time>
      </trkpt>
      <trkpt lat="45.25815" lon="6.03854">
        <ele>1906.45703125</ele>
        <time>2017-12-01T11:52:45Z</time>
      </trkpt>
      <trkpt lat="45.25816" lon="6.03848">
        <ele>1910.45703125</ele>
        <time>2017-12-01T11:53:19Z</time>
      </trkpt>
      <trkpt lat="45.25818" lon="6.03841">
        <ele>1909.45703125</ele>
        <time>2017-12-01T11:53:24Z</time>
      </trkpt>
      <trkpt lat="45.25816" lon="6.03834">
        <ele>1911.45703125</ele>
        <time>2017-12-01T11:53:33Z</time>
      </trkpt>
      <trkpt lat="45.25815" lon="6.03826">
        <ele>1908.45703125</ele>
        <time>2017-12-01T11:53:42Z</time>
      </trkpt>
      <trkpt lat="45.25816" lon="6.03819">
        <ele>1908.45703125</ele>
        <time>2017-12-01T11:53:49Z</time>
      </trkpt>
      <trkpt lat="45.25818" lon="6.03813">
        <ele>1911.45703125</ele>
        <time>2017-12-01T11:53:54Z</time>
      </trkpt>
      <trkpt lat="45.25819" lon="6.03806">
        <ele>1913.45703125</ele>
        <time>2017-12-01T11:54:02Z</time>
      </trkpt>
      <trkpt lat="45.25819" lon="6.03799">
        <ele>1914.45703125</ele>
        <time>2017-12-01T11:54:09Z</time>
      </trkpt>
      <trkpt lat="45.25817" lon="6.03793">
        <ele>1919.45703125</ele>
        <time>2017-12-01T11:54:21Z</time>
      </trkpt>
      <trkpt lat="45.25813" lon="6.03792">
        <ele>1920.45703125</ele>
        <time>2017-12-01T11:54:27Z</time>
      </trkpt>
      <trkpt lat="45.25809" lon="6.03788">
        <ele>1923.45703125</ele>
        <time>2017-12-01T11:54:33Z</time>
      </trkpt>
      <trkpt lat="45.25804" lon="6.03784">
        <ele>1925.45703125</ele>
        <time>2017-12-01T11:54:46Z</time>
      </trkpt>
      <trkpt lat="45.258" lon="6.03783">
        <ele>1927.45703125</ele>
        <time>2017-12-01T11:54:54Z</time>
      </trkpt>
      <trkpt lat="45.25795" lon="6.03782">
        <ele>1929.45703125</ele>
        <time>2017-12-01T11:55:00Z</time>
      </trkpt>
      <trkpt lat="45.25791" lon="6.03776">
        <ele>1930.45703125</ele>
        <time>2017-12-01T11:55:07Z</time>
      </trkpt>
      <trkpt lat="45.25791" lon="6.0377">
        <ele>1930.45703125</ele>
        <time>2017-12-01T11:55:17Z</time>
      </trkpt>
      <trkpt lat="45.25793" lon="6.03764">
        <ele>1933.45703125</ele>
        <time>2017-12-01T11:55:26Z</time>
      </trkpt>
      <trkpt lat="45.25793" lon="6.03756">
        <ele>1931.45703125</ele>
        <time>2017-12-01T11:55:32Z</time>
      </trkpt>
      <trkpt lat="45.25795" lon="6.03748">
        <ele>1935.45703125</ele>
        <time>2017-12-01T11:55:39Z</time>
      </trkpt>
      <trkpt lat="45.25796" lon="6.03742">
        <ele>1937.45703125</ele>
        <time>2017-12-01T11:55:47Z</time>
      </trkpt>
      <trkpt lat="45.25797" lon="6.03735">
        <ele>1935.45703125</ele>
        <time>2017-12-01T11:55:53Z</time>
      </trkpt>
      <trkpt lat="45.25794" lon="6.0373">
        <ele>1938.45703125</ele>
        <time>2017-12-01T11:56:11Z</time>
      </trkpt>
      <trkpt lat="45.25791" lon="6.03724">
        <ele>1943.45703125</ele>
        <time>2017-12-01T11:56:26Z</time>
      </trkpt>
      <trkpt lat="45.25786" lon="6.03725">
        <ele>1946.45703125</ele>
        <time>2017-12-01T11:56:30Z</time>
      </trkpt>
      <trkpt lat="45.25781" lon="6.03724">
        <ele>1950.45703125</ele>
        <time>2017-12-01T11:56:37Z</time>
      </trkpt>
      <trkpt lat="45.25777" lon="6.03725">
        <ele>1954.45703125</ele>
        <time>2017-12-01T11:56:43Z</time>
      </trkpt>
      <trkpt lat="45.25772" lon="6.03725">
        <ele>1956.45703125</ele>
        <time>2017-12-01T11:56:47Z</time>
      </trkpt>
      <trkpt lat="45.25768" lon="6.03721">
        <ele>1955.45703125</ele>
        <time>2017-12-01T11:56:53Z</time>
      </trkpt>
      <trkpt lat="45.25763" lon="6.0372">
        <ele>1956.45703125</ele>
        <time>2017-12-01T11:57:04Z</time>
      </trkpt>
      <trkpt lat="45.25765" lon="6.03714">
        <ele>1955.45703125</ele>
        <time>2017-12-01T11:57:09Z</time>
      </trkpt>
      <trkpt lat="45.25768" lon="6.03709">
        <ele>1954.45703125</ele>
        <time>2017-12-01T11:57:16Z</time>
      </trkpt>
      <trkpt lat="45.2577" lon="6.03702">
        <ele>1956.45703125</ele>
        <time>2017-12-01T11:57:21Z</time>
      </trkpt>
      <trkpt lat="45.2577" lon="6.03695">
        <ele>1954.45703125</ele>
        <time>2017-12-01T11:57:29Z</time>
      </trkpt>
      <trkpt lat="45.2577" lon="6.03688">
        <ele>1956.45703125</ele>
        <time>2017-12-01T11:57:37Z</time>
      </trkpt>
      <trkpt lat="45.25769" lon="6.03681">
        <ele>1955.45703125</ele>
        <time>2017-12-01T11:57:43Z</time>
      </trkpt>
      <trkpt lat="45.2577" lon="6.03675">
        <ele>1953.45703125</ele>
        <time>2017-12-01T11:57:51Z</time>
      </trkpt>
      <trkpt lat="45.25771" lon="6.03668">
        <ele>1954.45703125</ele>
        <time>2017-12-01T11:57:56Z</time>
      </trkpt>
      <trkpt lat="45.25774" lon="6.03663">
        <ele>1957.45703125</ele>
        <time>2017-12-01T11:58:02Z</time>
      </trkpt>
      <trkpt lat="45.2577" lon="6.0366">
        <ele>1958.45703125</ele>
        <time>2017-12-01T11:58:09Z</time>
      </trkpt>
      <trkpt lat="45.25766" lon="6.03656">
        <ele>1958.45703125</ele>
        <time>2017-12-01T11:58:16Z</time>
      </trkpt>
      <trkpt lat="45.25761" lon="6.03653">
        <ele>1956.45703125</ele>
        <time>2017-12-01T11:58:20Z</time>
      </trkpt>
      <trkpt lat="45.25757" lon="6.03652">
        <ele>1956.45703125</ele>
        <time>2017-12-01T11:58:25Z</time>
      </trkpt>
      <trkpt lat="45.25752" lon="6.0365">
        <ele>1959.45703125</ele>
        <time>2017-12-01T11:58:30Z</time>
      </trkpt>
      <trkpt lat="45.25748" lon="6.03645">
        <ele>1963.4560546875</ele>
        <time>2017-12-01T11:58:38Z</time>
      </trkpt>
      <trkpt lat="45.25749" lon="6.03638">
        <ele>1968.4560546875</ele>
        <time>2017-12-01T11:58:45Z</time>
      </trkpt>
      <trkpt lat="45.2575" lon="6.03631">
        <ele>1969.4560546875</ele>
        <time>2017-12-01T11:58:51Z</time>
      </trkpt>
      <trkpt lat="45.25749" lon="6.03623">
        <ele>1971.4560546875</ele>
        <time>2017-12-01T11:58:59Z</time>
      </trkpt>
      <trkpt lat="45.25748" lon="6.03615">
        <ele>1972.4560546875</ele>
        <time>2017-12-01T11:59:07Z</time>
      </trkpt>
      <trkpt lat="45.25746" lon="6.03609">
        <ele>1972.4560546875</ele>
        <time>2017-12-01T11:59:15Z</time>
      </trkpt>
      <trkpt lat="45.25745" lon="6.03603">
        <ele>1972.4560546875</ele>
        <time>2017-12-01T11:59:20Z</time>
      </trkpt>
      <trkpt lat="45.25743" lon="6.03596">
        <ele>1972.4560546875</ele>
        <time>2017-12-01T11:59:25Z</time>
      </trkpt>
      <trkpt lat="45.2574" lon="6.03591">
        <ele>1968.4560546875</ele>
        <time>2017-12-01T11:59:31Z</time>
      </trkpt>
      <trkpt lat="45.25737" lon="6.03584">
        <ele>1965.4560546875</ele>
        <time>2017-12-01T11:59:39Z</time>
      </trkpt>
      <trkpt lat="45.25736" lon="6.03578">
        <ele>1973.4560546875</ele>
        <time>2017-12-01T11:59:47Z</time>
      </trkpt>
      <trkpt lat="45.25732" lon="6.03574">
        <ele>1977.4560546875</ele>
        <time>2017-12-01T11:59:55Z</time>
      </trkpt>
      <trkpt lat="45.25732" lon="6.03568">
        <ele>1982.4560546875</ele>
        <time>2017-12-01T12:00:06Z</time>
      </trkpt>
      <trkpt lat="45.2573" lon="6.03558">
        <ele>1981.4560546875</ele>
        <time>2017-12-01T12:00:16Z</time>
      </trkpt>
      <trkpt lat="45.25728" lon="6.03552">
        <ele>1980.4560546875</ele>
        <time>2017-12-01T12:00:20Z</time>
      </trkpt>
      <trkpt lat="45.25724" lon="6.03547">
        <ele>1985.4560546875</ele>
        <time>2017-12-01T12:00:30Z</time>
      </trkpt>
      <trkpt lat="45.25724" lon="6.03541">
        <ele>1985.4560546875</ele>
        <time>2017-12-01T12:00:39Z</time>
      </trkpt>
      <trkpt lat="45.25728" lon="6.03537">
        <ele>1991.4560546875</ele>
        <time>2017-12-01T12:00:55Z</time>
      </trkpt>
      <trkpt lat="45.25732" lon="6.03534">
        <ele>1992.4560546875</ele>
        <time>2017-12-01T12:01:00Z</time>
      </trkpt>
      <trkpt lat="45.25737" lon="6.03531">
        <ele>1992.4560546875</ele>
        <time>2017-12-01T12:01:06Z</time>
      </trkpt>
      <trkpt lat="45.2574" lon="6.03526">
        <ele>1994.4560546875</ele>
        <time>2017-12-01T12:01:13Z</time>
      </trkpt>
      <trkpt lat="45.25745" lon="6.03523">
        <ele>1998.4560546875</ele>
        <time>2017-12-01T12:01:22Z</time>
      </trkpt>
      <trkpt lat="45.25743" lon="6.03516">
        <ele>1998.4560546875</ele>
        <time>2017-12-01T12:01:29Z</time>
      </trkpt>
      <trkpt lat="45.25742" lon="6.03509">
        <ele>1998.4560546875</ele>
        <time>2017-12-01T12:01:35Z</time>
      </trkpt>
      <trkpt lat="45.25744" lon="6.03503">
        <ele>1998.4560546875</ele>
        <time>2017-12-01T12:01:39Z</time>
      </trkpt>
      <trkpt lat="45.25743" lon="6.03495">
        <ele>1998.4560546875</ele>
        <time>2017-12-01T12:01:49Z</time>
      </trkpt>
      <trkpt lat="45.25745" lon="6.03489">
        <ele>1997.4560546875</ele>
        <time>2017-12-01T12:01:55Z</time>
      </trkpt>
      <trkpt lat="45.2574" lon="6.03486">
        <ele>2000.4560546875</ele>
        <time>2017-12-01T12:02:00Z</time>
      </trkpt>
      <trkpt lat="45.25742" lon="6.0348">
        <ele>2001.4560546875</ele>
        <time>2017-12-01T12:02:09Z</time>
      </trkpt>
      <trkpt lat="45.2574" lon="6.03473">
        <ele>2003.4560546875</ele>
        <time>2017-12-01T12:02:13Z</time>
      </trkpt>
      <trkpt lat="45.25741" lon="6.03466">
        <ele>2003.4560546875</ele>
        <time>2017-12-01T12:02:16Z</time>
      </trkpt>
      <trkpt lat="45.2574" lon="6.03457">
        <ele>2002.4560546875</ele>
        <time>2017-12-01T12:02:23Z</time>
      </trkpt>
      <trkpt lat="45.25739" lon="6.0345">
        <ele>2004.4560546875</ele>
        <time>2017-12-01T12:02:27Z</time>
      </trkpt>
      <trkpt lat="45.2574" lon="6.03442">
        <ele>2004.4560546875</ele>
        <time>2017-12-01T12:02:31Z</time>
      </trkpt>
      <trkpt lat="45.25739" lon="6.03435">
        <ele>2007.4560546875</ele>
        <time>2017-12-01T12:02:37Z</time>
      </trkpt>
      <trkpt lat="45.25742" lon="6.0343">
        <ele>2004.4560546875</ele>
        <time>2017-12-01T12:02:44Z</time>
      </trkpt>
      <trkpt lat="45.25743" lon="6.03422">
        <ele>2009.4560546875</ele>
        <time>2017-12-01T12:02:49Z</time>
      </trkpt>
      <trkpt lat="45.25741" lon="6.03416">
        <ele>2009.4560546875</ele>
        <time>2017-12-01T12:02:55Z</time>
      </trkpt>
      <trkpt lat="45.25742" lon="6.03409">
        <ele>2010.4560546875</ele>
        <time>2017-12-01T12:03:01Z</time>
      </trkpt>
      <trkpt lat="45.25741" lon="6.03401">
        <ele>2017.4560546875</ele>
        <time>2017-12-01T12:03:13Z</time>
      </trkpt>
      <trkpt lat="45.25739" lon="6.03395">
        <ele>2021.4560546875</ele>
        <time>2017-12-01T12:03:18Z</time>
      </trkpt>
      <trkpt lat="45.25738" lon="6.03389">
        <ele>2015.4560546875</ele>
        <time>2017-12-01T12:03:23Z</time>
      </trkpt>
      <trkpt lat="45.25738" lon="6.03382">
        <ele>2016.4560546875</ele>
        <time>2017-12-01T12:03:29Z</time>
      </trkpt>
      <trkpt lat="45.25737" lon="6.03376">
        <ele>2018.4560546875</ele>
        <time>2017-12-01T12:03:36Z</time>
      </trkpt>
      <trkpt lat="45.25738" lon="6.03369">
        <ele>2016.4560546875</ele>
        <time>2017-12-01T12:03:41Z</time>
      </trkpt>
      <trkpt lat="45.2574" lon="6.03362">
        <ele>2012.4560546875</ele>
        <time>2017-12-01T12:03:48Z</time>
      </trkpt>
      <trkpt lat="45.25739" lon="6.03355">
        <ele>2013.4560546875</ele>
        <time>2017-12-01T12:03:55Z</time>
      </trkpt>
      <trkpt lat="45.25741" lon="6.03349">
        <ele>2017.4560546875</ele>
        <time>2017-12-01T12:04:01Z</time>
      </trkpt>
      <trkpt lat="45.2574" lon="6.03342">
        <ele>2019.4560546875</ele>
        <time>2017-12-01T12:04:04Z</time>
      </trkpt>
      <trkpt lat="45.2574" lon="6.03335">
        <ele>2016.4560546875</ele>
        <time>2017-12-01T12:04:12Z</time>
      </trkpt>
      <trkpt lat="45.25738" lon="6.03329">
        <ele>2016.4560546875</ele>
        <time>2017-12-01T12:04:18Z</time>
      </trkpt>
      <trkpt lat="45.25738" lon="6.03322">
        <ele>2020.4560546875</ele>
        <time>2017-12-01T12:04:22Z</time>
      </trkpt>
      <trkpt lat="45.25737" lon="6.03315">
        <ele>2027.4560546875</ele>
        <time>2017-12-01T12:04:35Z</time>
      </trkpt>
      <trkpt lat="45.25737" lon="6.03307">
        <ele>2026.4560546875</ele>
        <time>2017-12-01T12:04:41Z</time>
      </trkpt>
      <trkpt lat="45.2574" lon="6.03301">
        <ele>2029.4560546875</ele>
        <time>2017-12-01T12:04:46Z</time>
      </trkpt>
      <trkpt lat="45.25743" lon="6.03297">
        <ele>2031.4560546875</ele>
        <time>2017-12-01T12:04:48Z</time>
      </trkpt>
      <trkpt lat="45.25744" lon="6.0329">
        <ele>2030.4560546875</ele>
        <time>2017-12-01T12:04:53Z</time>
      </trkpt>
      <trkpt lat="45.25743" lon="6.03283">
        <ele>2028.4560546875</ele>
        <time>2017-12-01T12:05:00Z</time>
      </trkpt>
      <trkpt lat="45.25746" lon="6.03276">
        <ele>2032.4560546875</ele>
        <time>2017-12-01T12:05:06Z</time>
      </trkpt>
      <trkpt lat="45.25749" lon="6.03271">
        <ele>2034.4560546875</ele>
        <time>2017-12-01T12:05:14Z</time>
      </trkpt>
      <trkpt lat="45.25752" lon="6.03266">
        <ele>2034.4560546875</ele>
        <time>2017-12-01T12:05:22Z</time>
      </trkpt>
      <trkpt lat="45.25757" lon="6.03264">
        <ele>2038.4560546875</ele>
        <time>2017-12-01T12:05:28Z</time>
      </trkpt>
      <trkpt lat="45.25762" lon="6.03261">
        <ele>2039.4560546875</ele>
        <time>2017-12-01T12:05:34Z</time>
      </trkpt>
      <trkpt lat="45.25766" lon="6.03257">
        <ele>2042.4560546875</ele>
        <time>2017-12-01T12:05:42Z</time>
      </trkpt>
      <trkpt lat="45.25771" lon="6.03253">
        <ele>2043.4560546875</ele>
        <time>2017-12-01T12:05:51Z</time>
      </trkpt>
      <trkpt lat="45.25775" lon="6.03249">
        <ele>2046.4560546875</ele>
        <time>2017-12-01T12:05:58Z</time>
      </trkpt>
      <trkpt lat="45.2578" lon="6.03247">
        <ele>2047.4560546875</ele>
        <time>2017-12-01T12:06:04Z</time>
      </trkpt>
      <trkpt lat="45.25785" lon="6.03245">
        <ele>2051.4560546875</ele>
        <time>2017-12-01T12:06:14Z</time>
      </trkpt>
      <trkpt lat="45.25788" lon="6.03241">
        <ele>2051.4560546875</ele>
        <time>2017-12-01T12:06:19Z</time>
      </trkpt>
      <trkpt lat="45.25787" lon="6.03234">
        <ele>2049.4560546875</ele>
        <time>2017-12-01T12:06:27Z</time>
      </trkpt>
      <trkpt lat="45.25784" lon="6.03228">
        <ele>2053.4560546875</ele>
        <time>2017-12-01T12:06:32Z</time>
      </trkpt>
      <trkpt lat="45.2578" lon="6.03223">
        <ele>2056.4560546875</ele>
        <time>2017-12-01T12:06:38Z</time>
      </trkpt>
      <trkpt lat="45.25776" lon="6.03218">
        <ele>2058.4560546875</ele>
        <time>2017-12-01T12:06:46Z</time>
      </trkpt>
      <trkpt lat="45.25773" lon="6.03213">
        <ele>2059.4560546875</ele>
        <time>2017-12-01T12:06:51Z</time>
      </trkpt>
      <trkpt lat="45.25768" lon="6.03209">
        <ele>2060.4560546875</ele>
        <time>2017-12-01T12:06:57Z</time>
      </trkpt>
      <trkpt lat="45.25764" lon="6.03206">
        <ele>2061.4560546875</ele>
        <time>2017-12-01T12:07:03Z</time>
      </trkpt>
      <trkpt lat="45.25758" lon="6.03203">
        <ele>2061.4560546875</ele>
        <time>2017-12-01T12:07:07Z</time>
      </trkpt>
      <trkpt lat="45.25753" lon="6.03201">
        <ele>2060.4560546875</ele>
        <time>2017-12-01T12:07:12Z</time>
      </trkpt>
      <trkpt lat="45.25749" lon="6.032">
        <ele>2060.4560546875</ele>
        <time>2017-12-01T12:07:18Z</time>
      </trkpt>
      <trkpt lat="45.25744" lon="6.03198">
        <ele>2060.4560546875</ele>
        <time>2017-12-01T12:07:23Z</time>
      </trkpt>
      <trkpt lat="45.25739" lon="6.03197">
        <ele>2062.4560546875</ele>
        <time>2017-12-01T12:07:29Z</time>
      </trkpt>
      <trkpt lat="45.25734" lon="6.03195">
        <ele>2063.4560546875</ele>
        <time>2017-12-01T12:07:36Z</time>
      </trkpt>
      <trkpt lat="45.25729" lon="6.03193">
        <ele>2064.4560546875</ele>
        <time>2017-12-01T12:07:42Z</time>
      </trkpt>
      <trkpt lat="45.25724" lon="6.03194">
        <ele>2066.4560546875</ele>
        <time>2017-12-01T12:07:48Z</time>
      </trkpt>
      <trkpt lat="45.25719" lon="6.03194">
        <ele>2067.4560546875</ele>
        <time>2017-12-01T12:07:54Z</time>
      </trkpt>
      <trkpt lat="45.25714" lon="6.03195">
        <ele>2068.4560546875</ele>
        <time>2017-12-01T12:07:59Z</time>
      </trkpt>
      <trkpt lat="45.25709" lon="6.03194">
        <ele>2067.4560546875</ele>
        <time>2017-12-01T12:08:03Z</time>
      </trkpt>
      <trkpt lat="45.25704" lon="6.03194">
        <ele>2069.4560546875</ele>
        <time>2017-12-01T12:08:07Z</time>
      </trkpt>
      <trkpt lat="45.25698" lon="6.03194">
        <ele>2070.4560546875</ele>
        <time>2017-12-01T12:08:14Z</time>
      </trkpt>
      <trkpt lat="45.25694" lon="6.03194">
        <ele>2072.4560546875</ele>
        <time>2017-12-01T12:08:18Z</time>
      </trkpt>
      <trkpt lat="45.25689" lon="6.03194">
        <ele>2074.4560546875</ele>
        <time>2017-12-01T12:08:25Z</time>
      </trkpt>
      <trkpt lat="45.25683" lon="6.03193">
        <ele>2075.4560546875</ele>
        <time>2017-12-01T12:08:32Z</time>
      </trkpt>
      <trkpt lat="45.25678" lon="6.03194">
        <ele>2078.4560546875</ele>
        <time>2017-12-01T12:08:41Z</time>
      </trkpt>
      <trkpt lat="45.25673" lon="6.03195">
        <ele>2082.4560546875</ele>
        <time>2017-12-01T12:08:48Z</time>
      </trkpt>
      <trkpt lat="45.25668" lon="6.03193">
        <ele>2081.4560546875</ele>
        <time>2017-12-01T12:08:55Z</time>
      </trkpt>
      <trkpt lat="45.25663" lon="6.03191">
        <ele>2082.4560546875</ele>
        <time>2017-12-01T12:09:00Z</time>
      </trkpt>
      <trkpt lat="45.25657" lon="6.03188">
        <ele>2083.4560546875</ele>
        <time>2017-12-01T12:09:07Z</time>
      </trkpt>
      <trkpt lat="45.25653" lon="6.03185">
        <ele>2084.4560546875</ele>
        <time>2017-12-01T12:09:12Z</time>
      </trkpt>
      <trkpt lat="45.25649" lon="6.03182">
        <ele>2086.4560546875</ele>
        <time>2017-12-01T12:09:17Z</time>
      </trkpt>
      <trkpt lat="45.25644" lon="6.0318">
        <ele>2085.4560546875</ele>
        <time>2017-12-01T12:09:25Z</time>
      </trkpt>
      <trkpt lat="45.25639" lon="6.03175">
        <ele>2086.4560546875</ele>
        <time>2017-12-01T12:09:32Z</time>
      </trkpt>
      <trkpt lat="45.25634" lon="6.0317">
        <ele>2089.4560546875</ele>
        <time>2017-12-01T12:09:39Z</time>
      </trkpt>
      <trkpt lat="45.25632" lon="6.03164">
        <ele>2092.4560546875</ele>
        <time>2017-12-01T12:09:44Z</time>
      </trkpt>
      <trkpt lat="45.25629" lon="6.03159">
        <ele>2090.4560546875</ele>
        <time>2017-12-01T12:09:52Z</time>
      </trkpt>
      <trkpt lat="45.25626" lon="6.03152">
        <ele>2094.4560546875</ele>
        <time>2017-12-01T12:10:01Z</time>
      </trkpt>
      <trkpt lat="45.25624" lon="6.03147">
        <ele>2096.4560546875</ele>
        <time>2017-12-01T12:10:05Z</time>
      </trkpt>
      <trkpt lat="45.25623" lon="6.03141">
        <ele>2097.4560546875</ele>
        <time>2017-12-01T12:10:13Z</time>
      </trkpt>
      <trkpt lat="45.25622" lon="6.03134">
        <ele>2098.4560546875</ele>
        <time>2017-12-01T12:10:23Z</time>
      </trkpt>
      <trkpt lat="45.25625" lon="6.03129">
        <ele>2098.4560546875</ele>
        <time>2017-12-01T12:10:29Z</time>
      </trkpt>
      <trkpt lat="45.25627" lon="6.03124">
        <ele>2098.4560546875</ele>
        <time>2017-12-01T12:10:36Z</time>
      </trkpt>
      <trkpt lat="45.2563" lon="6.03117">
        <ele>2099.4560546875</ele>
        <time>2017-12-01T12:10:43Z</time>
      </trkpt>
      <trkpt lat="45.25633" lon="6.03113">
        <ele>2101.4560546875</ele>
        <time>2017-12-01T12:10:49Z</time>
      </trkpt>
      <trkpt lat="45.25637" lon="6.03107">
        <ele>2102.4560546875</ele>
        <time>2017-12-01T12:10:56Z</time>
      </trkpt>
      <trkpt lat="45.25641" lon="6.03104">
        <ele>2101.4560546875</ele>
        <time>2017-12-01T12:11:02Z</time>
      </trkpt>
      <trkpt lat="45.25644" lon="6.03099">
        <ele>2104.4560546875</ele>
        <time>2017-12-01T12:11:08Z</time>
      </trkpt>
      <trkpt lat="45.25648" lon="6.03094">
        <ele>2105.4560546875</ele>
        <time>2017-12-01T12:11:15Z</time>
      </trkpt>
      <trkpt lat="45.25651" lon="6.03089">
        <ele>2107.4560546875</ele>
        <time>2017-12-01T12:11:21Z</time>
      </trkpt>
      <trkpt lat="45.25654" lon="6.03084">
        <ele>2109.4560546875</ele>
        <time>2017-12-01T12:11:27Z</time>
      </trkpt>
      <trkpt lat="45.25658" lon="6.03079">
        <ele>2110.4560546875</ele>
        <time>2017-12-01T12:11:34Z</time>
      </trkpt>
      <trkpt lat="45.25663" lon="6.03077">
        <ele>2111.4560546875</ele>
        <time>2017-12-01T12:11:39Z</time>
      </trkpt>
      <trkpt lat="45.25667" lon="6.03075">
        <ele>2113.4560546875</ele>
        <time>2017-12-01T12:11:45Z</time>
      </trkpt>
      <trkpt lat="45.25673" lon="6.03075">
        <ele>2113.4560546875</ele>
        <time>2017-12-01T12:11:52Z</time>
      </trkpt>
      <trkpt lat="45.25677" lon="6.03072">
        <ele>2115.4560546875</ele>
        <time>2017-12-01T12:11:59Z</time>
      </trkpt>
      <trkpt lat="45.25682" lon="6.03071">
        <ele>2116.4560546875</ele>
        <time>2017-12-01T12:12:04Z</time>
      </trkpt>
      <trkpt lat="45.25687" lon="6.03071">
        <ele>2116.4560546875</ele>
        <time>2017-12-01T12:12:10Z</time>
      </trkpt>
      <trkpt lat="45.25692" lon="6.03072">
        <ele>2117.4560546875</ele>
        <time>2017-12-01T12:12:17Z</time>
      </trkpt>
      <trkpt lat="45.25697" lon="6.03071">
        <ele>2118.4560546875</ele>
        <time>2017-12-01T12:12:23Z</time>
      </trkpt>
      <trkpt lat="45.25701" lon="6.03066">
        <ele>2118.4560546875</ele>
        <time>2017-12-01T12:12:28Z</time>
      </trkpt>
      <trkpt lat="45.25704" lon="6.03061">
        <ele>2119.4560546875</ele>
        <time>2017-12-01T12:12:33Z</time>
      </trkpt>
      <trkpt lat="45.25708" lon="6.03055">
        <ele>2119.4560546875</ele>
        <time>2017-12-01T12:12:40Z</time>
      </trkpt>
      <trkpt lat="45.25704" lon="6.03049">
        <ele>2122.4560546875</ele>
        <time>2017-12-01T12:13:08Z</time>
      </trkpt>
      <trkpt lat="45.25701" lon="6.03054">
        <ele>2121.4560546875</ele>
        <time>2017-12-01T12:23:20Z</time>
      </trkpt>
      <trkpt lat="45.25699" lon="6.0306">
        <ele>2120.4560546875</ele>
        <time>2017-12-01T12:23:28Z</time>
      </trkpt>
      <trkpt lat="45.25695" lon="6.03066">
        <ele>2121.4560546875</ele>
        <time>2017-12-01T12:23:38Z</time>
      </trkpt>
      <trkpt lat="45.25691" lon="6.0307">
        <ele>2119.4560546875</ele>
        <time>2017-12-01T12:23:40Z</time>
      </trkpt>
      <trkpt lat="45.25683" lon="6.03073">
        <ele>2118.4560546875</ele>
        <time>2017-12-01T12:23:42Z</time>
      </trkpt>
      <trkpt lat="45.25675" lon="6.03075">
        <ele>2116.4560546875</ele>
        <time>2017-12-01T12:23:44Z</time>
      </trkpt>
      <trkpt lat="45.25667" lon="6.03077">
        <ele>2114.4560546875</ele>
        <time>2017-12-01T12:23:46Z</time>
      </trkpt>
      <trkpt lat="45.25656" lon="6.03079">
        <ele>2112.4560546875</ele>
        <time>2017-12-01T12:23:48Z</time>
      </trkpt>
      <trkpt lat="45.25645" lon="6.03081">
        <ele>2109.4560546875</ele>
        <time>2017-12-01T12:23:50Z</time>
      </trkpt>
      <trkpt lat="45.25633" lon="6.03083">
        <ele>2105.455078125</ele>
        <time>2017-12-01T12:23:52Z</time>
      </trkpt>
      <trkpt lat="45.2562" lon="6.03082">
        <ele>2102.455078125</ele>
        <time>2017-12-01T12:23:55Z</time>
      </trkpt>
      <trkpt lat="45.25618" lon="6.03076">
        <ele>2100.455078125</ele>
        <time>2017-12-01T12:23:58Z</time>
      </trkpt>
      <trkpt lat="45.25613" lon="6.03071">
        <ele>2098.455078125</ele>
        <time>2017-12-01T12:24:07Z</time>
      </trkpt>
      <trkpt lat="45.2561" lon="6.03066">
        <ele>2096.455078125</ele>
        <time>2017-12-01T12:24:09Z</time>
      </trkpt>
      <trkpt lat="45.25612" lon="6.03057">
        <ele>2094.455078125</ele>
        <time>2017-12-01T12:24:12Z</time>
      </trkpt>
      <trkpt lat="45.25612" lon="6.03048">
        <ele>2092.455078125</ele>
        <time>2017-12-01T12:24:14Z</time>
      </trkpt>
      <trkpt lat="45.25608" lon="6.03038">
        <ele>2088.455078125</ele>
        <time>2017-12-01T12:24:16Z</time>
      </trkpt>
      <trkpt lat="45.25603" lon="6.03027">
        <ele>2084.455078125</ele>
        <time>2017-12-01T12:24:18Z</time>
      </trkpt>
      <trkpt lat="45.25592" lon="6.03006">
        <ele>2078.455078125</ele>
        <time>2017-12-01T12:24:22Z</time>
      </trkpt>
      <trkpt lat="45.25585" lon="6.02993">
        <ele>2073.455078125</ele>
        <time>2017-12-01T12:24:24Z</time>
      </trkpt>
      <trkpt lat="45.25579" lon="6.02984">
        <ele>2067.455078125</ele>
        <time>2017-12-01T12:24:26Z</time>
      </trkpt>
      <trkpt lat="45.25573" lon="6.02975">
        <ele>2061.455078125</ele>
        <time>2017-12-01T12:24:28Z</time>
      </trkpt>
      <trkpt lat="45.25566" lon="6.02965">
        <ele>2053.455078125</ele>
        <time>2017-12-01T12:24:30Z</time>
      </trkpt>
      <trkpt lat="45.25559" lon="6.02953">
        <ele>2047.4549560547</ele>
        <time>2017-12-01T12:24:32Z</time>
      </trkpt>
      <trkpt lat="45.25553" lon="6.02942">
        <ele>2041.4549560547</ele>
        <time>2017-12-01T12:24:34Z</time>
      </trkpt>
      <trkpt lat="45.25546" lon="6.02929">
        <ele>2036.4549560547</ele>
        <time>2017-12-01T12:24:36Z</time>
      </trkpt>
      <trkpt lat="45.25538" lon="6.02921">
        <ele>2030.4549560547</ele>
        <time>2017-12-01T12:24:44Z</time>
      </trkpt>
      <trkpt lat="45.2554" lon="6.02914">
        <ele>2028.4549560547</ele>
        <time>2017-12-01T12:25:06Z</time>
      </trkpt>
      <trkpt lat="45.2554" lon="6.02907">
        <ele>2026.4549560547</ele>
        <time>2017-12-01T12:25:25Z</time>
      </trkpt>
      <trkpt lat="45.25538" lon="6.029">
        <ele>2025.4549560547</ele>
        <time>2017-12-01T12:25:28Z</time>
      </trkpt>
      <trkpt lat="45.25535" lon="6.02895">
        <ele>2027.4549560547</ele>
        <time>2017-12-01T12:25:44Z</time>
      </trkpt>
      <trkpt lat="45.25531" lon="6.0289">
        <ele>2024.4549560547</ele>
        <time>2017-12-01T12:25:46Z</time>
      </trkpt>
      <trkpt lat="45.25522" lon="6.02882">
        <ele>2020.4549560547</ele>
        <time>2017-12-01T12:25:48Z</time>
      </trkpt>
      <trkpt lat="45.25512" lon="6.02872">
        <ele>2016.4549560547</ele>
        <time>2017-12-01T12:25:50Z</time>
      </trkpt>
      <trkpt lat="45.25505" lon="6.02859">
        <ele>2014.4549560547</ele>
        <time>2017-12-01T12:25:53Z</time>
      </trkpt>
      <trkpt lat="45.25499" lon="6.02843">
        <ele>2008.4549560547</ele>
        <time>2017-12-01T12:25:56Z</time>
      </trkpt>
      <trkpt lat="45.25493" lon="6.02832">
        <ele>2005.4549560547</ele>
        <time>2017-12-01T12:25:58Z</time>
      </trkpt>
      <trkpt lat="45.25486" lon="6.02822">
        <ele>2002.4549560547</ele>
        <time>2017-12-01T12:26:00Z</time>
      </trkpt>
      <trkpt lat="45.25481" lon="6.02812">
        <ele>1999.4549560547</ele>
        <time>2017-12-01T12:26:02Z</time>
      </trkpt>
      <trkpt lat="45.25474" lon="6.028">
        <ele>1995.4549560547</ele>
        <time>2017-12-01T12:26:04Z</time>
      </trkpt>
      <trkpt lat="45.25468" lon="6.02788">
        <ele>1991.4549560547</ele>
        <time>2017-12-01T12:26:06Z</time>
      </trkpt>
      <trkpt lat="45.25461" lon="6.02774">
        <ele>1989.4549560547</ele>
        <time>2017-12-01T12:26:08Z</time>
      </trkpt>
      <trkpt lat="45.25454" lon="6.02761">
        <ele>1986.4549560547</ele>
        <time>2017-12-01T12:26:10Z</time>
      </trkpt>
      <trkpt lat="45.25448" lon="6.02747">
        <ele>1984.4549560547</ele>
        <time>2017-12-01T12:26:12Z</time>
      </trkpt>
      <trkpt lat="45.25442" lon="6.02736">
        <ele>1983.4549560547</ele>
        <time>2017-12-01T12:26:14Z</time>
      </trkpt>
      <trkpt lat="45.25434" lon="6.02733">
        <ele>1980.4549560547</ele>
        <time>2017-12-01T12:26:16Z</time>
      </trkpt>
      <trkpt lat="45.25435" lon="6.02723">
        <ele>1978.4549560547</ele>
        <time>2017-12-01T12:26:18Z</time>
      </trkpt>
      <trkpt lat="45.25431" lon="6.02707">
        <ele>1974.4549560547</ele>
        <time>2017-12-01T12:26:21Z</time>
      </trkpt>
      <trkpt lat="45.25429" lon="6.02699">
        <ele>1974.4549560547</ele>
        <time>2017-12-01T12:26:23Z</time>
      </trkpt>
      <trkpt lat="45.25428" lon="6.02692">
        <ele>1970.4549560547</ele>
        <time>2017-12-01T12:26:29Z</time>
      </trkpt>
      <trkpt lat="45.25428" lon="6.02682">
        <ele>1967.4549560547</ele>
        <time>2017-12-01T12:27:04Z</time>
      </trkpt>
      <trkpt lat="45.25425" lon="6.02675">
        <ele>1965.4549560547</ele>
        <time>2017-12-01T12:27:06Z</time>
      </trkpt>
      <trkpt lat="45.25417" lon="6.0266">
        <ele>1961.4539794922</ele>
        <time>2017-12-01T12:27:09Z</time>
      </trkpt>
      <trkpt lat="45.25412" lon="6.02649">
        <ele>1959.4539794922</ele>
        <time>2017-12-01T12:27:11Z</time>
      </trkpt>
      <trkpt lat="45.25407" lon="6.02634">
        <ele>1957.4539794922</ele>
        <time>2017-12-01T12:27:13Z</time>
      </trkpt>
      <trkpt lat="45.25401" lon="6.02624">
        <ele>1955.4539794922</ele>
        <time>2017-12-01T12:27:15Z</time>
      </trkpt>
      <trkpt lat="45.25397" lon="6.02616">
        <ele>1952.4539794922</ele>
        <time>2017-12-01T12:27:17Z</time>
      </trkpt>
      <trkpt lat="45.25391" lon="6.02601">
        <ele>1950.4539794922</ele>
        <time>2017-12-01T12:27:20Z</time>
      </trkpt>
      <trkpt lat="45.25387" lon="6.0259">
        <ele>1946.4539794922</ele>
        <time>2017-12-01T12:27:22Z</time>
      </trkpt>
      <trkpt lat="45.25387" lon="6.02578">
        <ele>1943.4539794922</ele>
        <time>2017-12-01T12:27:24Z</time>
      </trkpt>
      <trkpt lat="45.25388" lon="6.02568">
        <ele>1941.4539794922</ele>
        <time>2017-12-01T12:27:26Z</time>
      </trkpt>
      <trkpt lat="45.25388" lon="6.0256">
        <ele>1939.4539794922</ele>
        <time>2017-12-01T12:27:29Z</time>
      </trkpt>
      <trkpt lat="45.25385" lon="6.02565">
        <ele>1936.4539794922</ele>
        <time>2017-12-01T12:27:33Z</time>
      </trkpt>
      <trkpt lat="45.2538" lon="6.02566">
        <ele>1933.4539794922</ele>
        <time>2017-12-01T12:27:38Z</time>
      </trkpt>
      <trkpt lat="45.25383" lon="6.0256">
        <ele>1929.4539794922</ele>
        <time>2017-12-01T12:27:54Z</time>
      </trkpt>
      <trkpt lat="45.25386" lon="6.02553">
        <ele>1927.4539794922</ele>
        <time>2017-12-01T12:27:56Z</time>
      </trkpt>
      <trkpt lat="45.25389" lon="6.02543">
        <ele>1927.4539794922</ele>
        <time>2017-12-01T12:27:58Z</time>
      </trkpt>
      <trkpt lat="45.25394" lon="6.02535">
        <ele>1925.4539794922</ele>
        <time>2017-12-01T12:28:00Z</time>
      </trkpt>
      <trkpt lat="45.25397" lon="6.0253">
        <ele>1922.4539794922</ele>
        <time>2017-12-01T12:28:04Z</time>
      </trkpt>
      <trkpt lat="45.25401" lon="6.02525">
        <ele>1942.4539794922</ele>
        <time>2017-12-01T12:28:06Z</time>
      </trkpt>
      <trkpt lat="45.25408" lon="6.02514">
        <ele>1930.4539794922</ele>
        <time>2017-12-01T12:28:08Z</time>
      </trkpt>
      <trkpt lat="45.25412" lon="6.02506">
        <ele>1922.4539794922</ele>
        <time>2017-12-01T12:28:10Z</time>
      </trkpt>
      <trkpt lat="45.25413" lon="6.02499">
        <ele>1916.4539794922</ele>
        <time>2017-12-01T12:28:35Z</time>
      </trkpt>
      <trkpt lat="45.25416" lon="6.02493">
        <ele>1915.4539794922</ele>
        <time>2017-12-01T12:28:37Z</time>
      </trkpt>
      <trkpt lat="45.25421" lon="6.02489">
        <ele>1915.4539794922</ele>
        <time>2017-12-01T12:28:39Z</time>
      </trkpt>
      <trkpt lat="45.25426" lon="6.02485">
        <ele>1913.4539794922</ele>
        <time>2017-12-01T12:28:42Z</time>
      </trkpt>
      <trkpt lat="45.25431" lon="6.02482">
        <ele>1913.4539794922</ele>
        <time>2017-12-01T12:28:46Z</time>
      </trkpt>
      <trkpt lat="45.25437" lon="6.02482">
        <ele>1914.4539794922</ele>
        <time>2017-12-01T12:28:53Z</time>
      </trkpt>
      <trkpt lat="45.25441" lon="6.02479">
        <ele>1911.4539794922</ele>
        <time>2017-12-01T12:29:01Z</time>
      </trkpt>
      <trkpt lat="45.25446" lon="6.02475">
        <ele>1909.4539794922</ele>
        <time>2017-12-01T12:29:04Z</time>
      </trkpt>
      <trkpt lat="45.25451" lon="6.02473">
        <ele>1908.4539794922</ele>
        <time>2017-12-01T12:29:09Z</time>
      </trkpt>
      <trkpt lat="45.25455" lon="6.02469">
        <ele>1907.4539794922</ele>
        <time>2017-12-01T12:29:15Z</time>
      </trkpt>
      <trkpt lat="45.25461" lon="6.02467">
        <ele>1909.4539794922</ele>
        <time>2017-12-01T12:29:20Z</time>
      </trkpt>
      <trkpt lat="45.25465" lon="6.02464">
        <ele>1908.4539794922</ele>
        <time>2017-12-01T12:29:25Z</time>
      </trkpt>
      <trkpt lat="45.25469" lon="6.02458">
        <ele>1906.4539794922</ele>
        <time>2017-12-01T12:29:30Z</time>
      </trkpt>
      <trkpt lat="45.25474" lon="6.02457">
        <ele>1905.4539794922</ele>
        <time>2017-12-01T12:29:34Z</time>
      </trkpt>
      <trkpt lat="45.25477" lon="6.02452">
        <ele>1907.4539794922</ele>
        <time>2017-12-01T12:29:41Z</time>
      </trkpt>
      <trkpt lat="45.25481" lon="6.02448">
        <ele>1905.4539794922</ele>
        <time>2017-12-01T12:29:52Z</time>
      </trkpt>
      <trkpt lat="45.25484" lon="6.0244">
        <ele>1904.4539794922</ele>
        <time>2017-12-01T12:30:56Z</time>
      </trkpt>
      <trkpt lat="45.25485" lon="6.02434">
        <ele>1901.4539794922</ele>
        <time>2017-12-01T12:30:58Z</time>
      </trkpt>
      <trkpt lat="45.2549" lon="6.02428">
        <ele>1897.4539794922</ele>
        <time>2017-12-01T12:31:00Z</time>
      </trkpt>
      <trkpt lat="45.25487" lon="6.02422">
        <ele>1894.4539794922</ele>
        <time>2017-12-01T12:31:03Z</time>
      </trkpt>
      <trkpt lat="45.25482" lon="6.02417">
        <ele>1891.4539794922</ele>
        <time>2017-12-01T12:31:06Z</time>
      </trkpt>
      <trkpt lat="45.25486" lon="6.02407">
        <ele>1890.4539794922</ele>
        <time>2017-12-01T12:32:00Z</time>
      </trkpt>
      <trkpt lat="45.25489" lon="6.02396">
        <ele>1888.4539794922</ele>
        <time>2017-12-01T12:32:02Z</time>
      </trkpt>
      <trkpt lat="45.25493" lon="6.0239">
        <ele>1884.4539794922</ele>
        <time>2017-12-01T12:32:03Z</time>
      </trkpt>
      <trkpt lat="45.25495" lon="6.02375">
        <ele>1880.4539794922</ele>
        <time>2017-12-01T12:32:05Z</time>
      </trkpt>
      <trkpt lat="45.25502" lon="6.02368">
        <ele>1875.4539794922</ele>
        <time>2017-12-01T12:32:08Z</time>
      </trkpt>
      <trkpt lat="45.25508" lon="6.02363">
        <ele>1872.4539794922</ele>
        <time>2017-12-01T12:32:10Z</time>
      </trkpt>
      <trkpt lat="45.25512" lon="6.02359">
        <ele>1868.4539794922</ele>
        <time>2017-12-01T12:32:13Z</time>
      </trkpt>
      <trkpt lat="45.25512" lon="6.02352">
        <ele>1858.4539794922</ele>
        <time>2017-12-01T12:33:07Z</time>
      </trkpt>
      <trkpt lat="45.25513" lon="6.0234">
        <ele>1855.4539794922</ele>
        <time>2017-12-01T12:33:24Z</time>
      </trkpt>
      <trkpt lat="45.25515" lon="6.02327">
        <ele>1852.4539794922</ele>
        <time>2017-12-01T12:33:26Z</time>
      </trkpt>
      <trkpt lat="45.25514" lon="6.02313">
        <ele>1851.4539794922</ele>
        <time>2017-12-01T12:33:28Z</time>
      </trkpt>
      <trkpt lat="45.25513" lon="6.02298">
        <ele>1847.4539794922</ele>
        <time>2017-12-01T12:33:30Z</time>
      </trkpt>
      <trkpt lat="45.25511" lon="6.02282">
        <ele>1844.4539794922</ele>
        <time>2017-12-01T12:33:32Z</time>
      </trkpt>
      <trkpt lat="45.25506" lon="6.0228">
        <ele>1839.4539794922</ele>
        <time>2017-12-01T12:33:33Z</time>
      </trkpt>
      <trkpt lat="45.25499" lon="6.0226">
        <ele>1836.4539794922</ele>
        <time>2017-12-01T12:33:35Z</time>
      </trkpt>
      <trkpt lat="45.25492" lon="6.02251">
        <ele>1834.4539794922</ele>
        <time>2017-12-01T12:33:37Z</time>
      </trkpt>
      <trkpt lat="45.25489" lon="6.02239">
        <ele>1827.4539794922</ele>
        <time>2017-12-01T12:33:39Z</time>
      </trkpt>
      <trkpt lat="45.25488" lon="6.02227">
        <ele>1823.4539794922</ele>
        <time>2017-12-01T12:33:41Z</time>
      </trkpt>
      <trkpt lat="45.25489" lon="6.02221">
        <ele>1821.4539794922</ele>
        <time>2017-12-01T12:33:42Z</time>
      </trkpt>
      <trkpt lat="45.25482" lon="6.02188">
        <ele>1818.4539794922</ele>
        <time>2017-12-01T12:33:45Z</time>
      </trkpt>
      <trkpt lat="45.25479" lon="6.02174">
        <ele>1814.4539794922</ele>
        <time>2017-12-01T12:33:47Z</time>
      </trkpt>
      <trkpt lat="45.25477" lon="6.02167">
        <ele>1811.4539794922</ele>
        <time>2017-12-01T12:33:48Z</time>
      </trkpt>
      <trkpt lat="45.25473" lon="6.02151">
        <ele>1806.4539794922</ele>
        <time>2017-12-01T12:33:50Z</time>
      </trkpt>
      <trkpt lat="45.25471" lon="6.02143">
        <ele>1805.4539794922</ele>
        <time>2017-12-01T12:33:51Z</time>
      </trkpt>
      <trkpt lat="45.25467" lon="6.02126">
        <ele>1801.4539794922</ele>
        <time>2017-12-01T12:33:53Z</time>
      </trkpt>
      <trkpt lat="45.25471" lon="6.02121">
        <ele>1784.4539794922</ele>
        <time>2017-12-01T12:33:55Z</time>
      </trkpt>
      <trkpt lat="45.25476" lon="6.02116">
        <ele>1772.4539794922</ele>
        <time>2017-12-01T12:33:57Z</time>
      </trkpt>
      <trkpt lat="45.2548" lon="6.02112">
        <ele>1767.4539794922</ele>
        <time>2017-12-01T12:33:58Z</time>
      </trkpt>
      <trkpt lat="45.25485" lon="6.02113">
        <ele>1756.4539794922</ele>
        <time>2017-12-01T12:34:02Z</time>
      </trkpt>
      <trkpt lat="45.25485" lon="6.02119">
        <ele>1743.4539794922</ele>
        <time>2017-12-01T12:34:09Z</time>
      </trkpt>
      <trkpt lat="45.25484" lon="6.02112">
        <ele>1734.4539794922</ele>
        <time>2017-12-01T12:35:57Z</time>
      </trkpt>
      <trkpt lat="45.25486" lon="6.02095">
        <ele>1730.4539794922</ele>
        <time>2017-12-01T12:35:59Z</time>
      </trkpt>
      <trkpt lat="45.25487" lon="6.02075">
        <ele>1723.4539794922</ele>
        <time>2017-12-01T12:36:01Z</time>
      </trkpt>
      <trkpt lat="45.25487" lon="6.02052">
        <ele>1717.4539794922</ele>
        <time>2017-12-01T12:36:03Z</time>
      </trkpt>
      <trkpt lat="45.25488" lon="6.0203">
        <ele>1709.4539794922</ele>
        <time>2017-12-01T12:36:05Z</time>
      </trkpt>
      <trkpt lat="45.25491" lon="6.02008">
        <ele>1700.4539794922</ele>
        <time>2017-12-01T12:36:07Z</time>
      </trkpt>
      <trkpt lat="45.25495" lon="6.01988">
        <ele>1690.4539794922</ele>
        <time>2017-12-01T12:36:09Z</time>
      </trkpt>
      <trkpt lat="45.25498" lon="6.01967">
        <ele>1682.4539794922</ele>
        <time>2017-12-01T12:36:11Z</time>
      </trkpt>
      <trkpt lat="45.255" lon="6.01944">
        <ele>1673.4539794922</ele>
        <time>2017-12-01T12:36:13Z</time>
      </trkpt>
      <trkpt lat="45.25502" lon="6.01921">
        <ele>1665.4539794922</ele>
        <time>2017-12-01T12:36:15Z</time>
      </trkpt>
      <trkpt lat="45.25502" lon="6.019">
        <ele>1657.4539794922</ele>
        <time>2017-12-01T12:36:17Z</time>
      </trkpt>
      <trkpt lat="45.25499" lon="6.01868">
        <ele>1645.4539794922</ele>
        <time>2017-12-01T12:36:20Z</time>
      </trkpt>
      <trkpt lat="45.25499" lon="6.01847">
        <ele>1638.4539794922</ele>
        <time>2017-12-01T12:36:22Z</time>
      </trkpt>
      <trkpt lat="45.25497" lon="6.0183">
        <ele>1633.4539794922</ele>
        <time>2017-12-01T12:36:24Z</time>
      </trkpt>
      <trkpt lat="45.25495" lon="6.01815">
        <ele>1629.4530029297</ele>
        <time>2017-12-01T12:36:26Z</time>
      </trkpt>
      <trkpt lat="45.25496" lon="6.01808">
        <ele>1623.4530029297</ele>
        <time>2017-12-01T12:37:18Z</time>
      </trkpt>
      <trkpt lat="45.25501" lon="6.01807">
        <ele>1621.4530029297</ele>
        <time>2017-12-01T12:37:35Z</time>
      </trkpt>
      <trkpt lat="45.25503" lon="6.01801">
        <ele>1622.4530029297</ele>
        <time>2017-12-01T12:37:45Z</time>
      </trkpt>
      <trkpt lat="45.25507" lon="6.01796">
        <ele>1627.4530029297</ele>
        <time>2017-12-01T12:38:04Z</time>
      </trkpt>
      <trkpt lat="45.25509" lon="6.0179">
        <ele>1647.4530029297</ele>
        <time>2017-12-01T12:38:20Z</time>
      </trkpt>
      <trkpt lat="45.25513" lon="6.01787">
        <ele>1627.4530029297</ele>
        <time>2017-12-01T12:38:41Z</time>
      </trkpt>
      <trkpt lat="45.25507" lon="6.01786">
        <ele>1625.4530029297</ele>
        <time>2017-12-01T12:39:03Z</time>
      </trkpt>
      <trkpt lat="45.25503" lon="6.0178">
        <ele>1626.4530029297</ele>
        <time>2017-12-01T12:39:24Z</time>
      </trkpt>
      <trkpt lat="45.25499" lon="6.01777">
        <ele>1625.4530029297</ele>
        <time>2017-12-01T12:39:41Z</time>
      </trkpt>
      <trkpt lat="45.25498" lon="6.0177">
        <ele>1617.4530029297</ele>
        <time>2017-12-01T12:40:34Z</time>
      </trkpt>
      <trkpt lat="45.25497" lon="6.01762">
        <ele>1617.4530029297</ele>
        <time>2017-12-01T12:40:49Z</time>
      </trkpt>
      <trkpt lat="45.25495" lon="6.01756">
        <ele>1613.4530029297</ele>
        <time>2017-12-01T12:40:55Z</time>
      </trkpt>
      <trkpt lat="45.25491" lon="6.01753">
        <ele>1610.4530029297</ele>
        <time>2017-12-01T12:41:00Z</time>
      </trkpt>
      <trkpt lat="45.25487" lon="6.01747">
        <ele>1609.4530029297</ele>
        <time>2017-12-01T12:41:05Z</time>
      </trkpt>
      <trkpt lat="45.25483" lon="6.01737">
        <ele>1606.4530029297</ele>
        <time>2017-12-01T12:41:08Z</time>
      </trkpt>
      <trkpt lat="45.25477" lon="6.01722">
        <ele>1603.4530029297</ele>
        <time>2017-12-01T12:41:10Z</time>
      </trkpt>
      <trkpt lat="45.25471" lon="6.01712">
        <ele>1601.4530029297</ele>
        <time>2017-12-01T12:41:12Z</time>
      </trkpt>
      <trkpt lat="45.2547" lon="6.01702">
        <ele>1599.4530029297</ele>
        <time>2017-12-01T12:41:14Z</time>
      </trkpt>
      <trkpt lat="45.2547" lon="6.01692">
        <ele>1596.4530029297</ele>
        <time>2017-12-01T12:41:16Z</time>
      </trkpt>
      <trkpt lat="45.25471" lon="6.01682">
        <ele>1595.4530029297</ele>
        <time>2017-12-01T12:41:18Z</time>
      </trkpt>
      <trkpt lat="45.25472" lon="6.01673">
        <ele>1593.4530029297</ele>
        <time>2017-12-01T12:41:20Z</time>
      </trkpt>
      <trkpt lat="45.25475" lon="6.01666">
        <ele>1592.4530029297</ele>
        <time>2017-12-01T12:41:22Z</time>
      </trkpt>
      <trkpt lat="45.25477" lon="6.01658">
        <ele>1592.4530029297</ele>
        <time>2017-12-01T12:41:25Z</time>
      </trkpt>
      <trkpt lat="45.25478" lon="6.0165">
        <ele>1589.4530029297</ele>
        <time>2017-12-01T12:41:28Z</time>
      </trkpt>
      <trkpt lat="45.25479" lon="6.01641">
        <ele>1587.4530029297</ele>
        <time>2017-12-01T12:41:31Z</time>
      </trkpt>
      <trkpt lat="45.2548" lon="6.01635">
        <ele>1587.4530029297</ele>
        <time>2017-12-01T12:41:33Z</time>
      </trkpt>
      <trkpt lat="45.25485" lon="6.01625">
        <ele>1585.4530029297</ele>
        <time>2017-12-01T12:41:35Z</time>
      </trkpt>
      <trkpt lat="45.25488" lon="6.01619">
        <ele>1584.4530029297</ele>
        <time>2017-12-01T12:41:36Z</time>
      </trkpt>
      <trkpt lat="45.25495" lon="6.01606">
        <ele>1584.4530029297</ele>
        <time>2017-12-01T12:41:38Z</time>
      </trkpt>
      <trkpt lat="45.25503" lon="6.01595">
        <ele>1583.4530029297</ele>
        <time>2017-12-01T12:41:40Z</time>
      </trkpt>
      <trkpt lat="45.25509" lon="6.01582">
        <ele>1582.4530029297</ele>
        <time>2017-12-01T12:41:43Z</time>
      </trkpt>
      <trkpt lat="45.25512" lon="6.01576">
        <ele>1581.4530029297</ele>
        <time>2017-12-01T12:41:45Z</time>
      </trkpt>
      <trkpt lat="45.25511" lon="6.01582">
        <ele>1584.4530029297</ele>
        <time>2017-12-01T12:42:12Z</time>
      </trkpt>
      <trkpt lat="45.25506" lon="6.01582">
        <ele>1583.4530029297</ele>
        <time>2017-12-01T12:44:19Z</time>
      </trkpt>
      <trkpt lat="45.25509" lon="6.01587">
        <ele>1577.4530029297</ele>
        <time>2017-12-01T12:45:53Z</time>
      </trkpt>
      <trkpt lat="45.25514" lon="6.01592">
        <ele>1583.4530029297</ele>
        <time>2017-12-01T12:48:00Z</time>
      </trkpt>
      <trkpt lat="45.25518" lon="6.01594">
        <ele>1581.4530029297</ele>
        <time>2017-12-01T12:48:05Z</time>
      </trkpt>
      <trkpt lat="45.25523" lon="6.01594">
        <ele>1583.4530029297</ele>
        <time>2017-12-01T12:48:10Z</time>
      </trkpt>
      <trkpt lat="45.25528" lon="6.01592">
        <ele>1585.4530029297</ele>
        <time>2017-12-01T12:48:15Z</time>
      </trkpt>
      <trkpt lat="45.25532" lon="6.0159">
        <ele>1583.4530029297</ele>
        <time>2017-12-01T12:48:19Z</time>
      </trkpt>
      <trkpt lat="45.25537" lon="6.0159">
        <ele>1584.4530029297</ele>
        <time>2017-12-01T12:48:24Z</time>
      </trkpt>
      <trkpt lat="45.25541" lon="6.0159">
        <ele>1582.4530029297</ele>
        <time>2017-12-01T12:48:28Z</time>
      </trkpt>
      <trkpt lat="45.25547" lon="6.0159">
        <ele>1583.4530029297</ele>
        <time>2017-12-01T12:48:36Z</time>
      </trkpt>
      <trkpt lat="45.25551" lon="6.01588">
        <ele>1584.4530029297</ele>
        <time>2017-12-01T12:48:39Z</time>
      </trkpt>
      <trkpt lat="45.25556" lon="6.01588">
        <ele>1587.4530029297</ele>
        <time>2017-12-01T12:48:44Z</time>
      </trkpt>
      <trkpt lat="45.25561" lon="6.01584">
        <ele>1589.4530029297</ele>
        <time>2017-12-01T12:48:51Z</time>
      </trkpt>
      <trkpt lat="45.25566" lon="6.01583">
        <ele>1588.4530029297</ele>
        <time>2017-12-01T12:48:54Z</time>
      </trkpt>
      <trkpt lat="45.25571" lon="6.01581">
        <ele>1587.4530029297</ele>
        <time>2017-12-01T12:49:01Z</time>
      </trkpt>
      <trkpt lat="45.25576" lon="6.01581">
        <ele>1588.4530029297</ele>
        <time>2017-12-01T12:49:06Z</time>
      </trkpt>
      <trkpt lat="45.25581" lon="6.01579">
        <ele>1588.4530029297</ele>
        <time>2017-12-01T12:49:10Z</time>
      </trkpt>
      <trkpt lat="45.25586" lon="6.01579">
        <ele>1590.4530029297</ele>
        <time>2017-12-01T12:49:17Z</time>
      </trkpt>
      <trkpt lat="45.25592" lon="6.01577">
        <ele>1589.4530029297</ele>
        <time>2017-12-01T12:49:22Z</time>
      </trkpt>
      <trkpt lat="45.25597" lon="6.01577">
        <ele>1589.4530029297</ele>
        <time>2017-12-01T12:49:26Z</time>
      </trkpt>
      <trkpt lat="45.25602" lon="6.01575">
        <ele>1592.4530029297</ele>
        <time>2017-12-01T12:49:31Z</time>
      </trkpt>
      <trkpt lat="45.25607" lon="6.01573">
        <ele>1591.4530029297</ele>
        <time>2017-12-01T12:49:36Z</time>
      </trkpt>
      <trkpt lat="45.25612" lon="6.01571">
        <ele>1594.4530029297</ele>
        <time>2017-12-01T12:49:42Z</time>
      </trkpt>
      <trkpt lat="45.25617" lon="6.01569">
        <ele>1596.4530029297</ele>
        <time>2017-12-01T12:49:46Z</time>
      </trkpt>
      <trkpt lat="45.25621" lon="6.01566">
        <ele>1596.4530029297</ele>
        <time>2017-12-01T12:49:50Z</time>
      </trkpt>
      <trkpt lat="45.25626" lon="6.01567">
        <ele>1595.4530029297</ele>
        <time>2017-12-01T12:49:55Z</time>
      </trkpt>
      <trkpt lat="45.2563" lon="6.0157">
        <ele>1591.4530029297</ele>
        <time>2017-12-01T12:49:58Z</time>
      </trkpt>
      <trkpt lat="45.25635" lon="6.0157">
        <ele>1593.4530029297</ele>
        <time>2017-12-01T12:50:06Z</time>
      </trkpt>
      <trkpt lat="45.2564" lon="6.01569">
        <ele>1593.4530029297</ele>
        <time>2017-12-01T12:50:12Z</time>
      </trkpt>
      <trkpt lat="45.25645" lon="6.01566">
        <ele>1595.4530029297</ele>
        <time>2017-12-01T12:50:18Z</time>
      </trkpt>
      <trkpt lat="45.25649" lon="6.01563">
        <ele>1594.4530029297</ele>
        <time>2017-12-01T12:50:23Z</time>
      </trkpt>
      <trkpt lat="45.25654" lon="6.01562">
        <ele>1618.4530029297</ele>
        <time>2017-12-01T12:50:29Z</time>
      </trkpt>
      <trkpt lat="45.25659" lon="6.01563">
        <ele>1600.4530029297</ele>
        <time>2017-12-01T12:50:36Z</time>
      </trkpt>
      <trkpt lat="45.25664" lon="6.01565">
        <ele>1601.4530029297</ele>
        <time>2017-12-01T12:50:44Z</time>
      </trkpt>
      <trkpt lat="45.25669" lon="6.01565">
        <ele>1603.4530029297</ele>
        <time>2017-12-01T12:50:50Z</time>
      </trkpt>
      <trkpt lat="45.25673" lon="6.01561">
        <ele>1605.4530029297</ele>
        <time>2017-12-01T12:50:55Z</time>
      </trkpt>
      <trkpt lat="45.25678" lon="6.01559">
        <ele>1606.4530029297</ele>
        <time>2017-12-01T12:51:02Z</time>
      </trkpt>
      <trkpt lat="45.25683" lon="6.01557">
        <ele>1611.4539794922</ele>
        <time>2017-12-01T12:51:10Z</time>
      </trkpt>
      <trkpt lat="45.25687" lon="6.01558">
        <ele>1610.4539794922</ele>
        <time>2017-12-01T12:51:16Z</time>
      </trkpt>
      <trkpt lat="45.25691" lon="6.01553">
        <ele>1614.4539794922</ele>
        <time>2017-12-01T12:51:25Z</time>
      </trkpt>
      <trkpt lat="45.25695" lon="6.01551">
        <ele>1629.4539794922</ele>
        <time>2017-12-01T12:51:32Z</time>
      </trkpt>
      <trkpt lat="45.257" lon="6.01547">
        <ele>1615.4539794922</ele>
        <time>2017-12-01T12:51:40Z</time>
      </trkpt>
      <trkpt lat="45.25706" lon="6.01546">
        <ele>1615.4539794922</ele>
        <time>2017-12-01T12:51:50Z</time>
      </trkpt>
      <trkpt lat="45.25711" lon="6.01544">
        <ele>1614.4539794922</ele>
        <time>2017-12-01T12:52:00Z</time>
      </trkpt>
      <trkpt lat="45.25716" lon="6.01545">
        <ele>1615.4539794922</ele>
        <time>2017-12-01T12:52:04Z</time>
      </trkpt>
      <trkpt lat="45.25721" lon="6.01545">
        <ele>1615.4539794922</ele>
        <time>2017-12-01T12:52:16Z</time>
      </trkpt>
      <trkpt lat="45.25726" lon="6.01545">
        <ele>1616.4539794922</ele>
        <time>2017-12-01T12:52:22Z</time>
      </trkpt>
      <trkpt lat="45.2573" lon="6.01542">
        <ele>1617.4539794922</ele>
        <time>2017-12-01T12:52:26Z</time>
      </trkpt>
      <trkpt lat="45.25735" lon="6.01541">
        <ele>1617.4539794922</ele>
        <time>2017-12-01T12:52:30Z</time>
      </trkpt>
      <trkpt lat="45.2574" lon="6.01542">
        <ele>1618.4539794922</ele>
        <time>2017-12-01T12:52:37Z</time>
      </trkpt>
      <trkpt lat="45.25744" lon="6.01544">
        <ele>1618.4539794922</ele>
        <time>2017-12-01T12:52:41Z</time>
      </trkpt>
      <trkpt lat="45.25749" lon="6.01546">
        <ele>1616.4539794922</ele>
        <time>2017-12-01T12:52:44Z</time>
      </trkpt>
      <trkpt lat="45.25754" lon="6.01546">
        <ele>1617.4539794922</ele>
        <time>2017-12-01T12:52:49Z</time>
      </trkpt>
      <trkpt lat="45.2576" lon="6.01545">
        <ele>1623.4539794922</ele>
        <time>2017-12-01T12:52:57Z</time>
      </trkpt>
      <trkpt lat="45.25765" lon="6.01548">
        <ele>1623.4539794922</ele>
        <time>2017-12-01T12:53:03Z</time>
      </trkpt>
      <trkpt lat="45.2577" lon="6.01548">
        <ele>1627.4539794922</ele>
        <time>2017-12-01T12:53:13Z</time>
      </trkpt>
      <trkpt lat="45.25774" lon="6.01551">
        <ele>1628.4539794922</ele>
        <time>2017-12-01T12:53:19Z</time>
      </trkpt>
      <trkpt lat="45.25779" lon="6.01552">
        <ele>1626.4539794922</ele>
        <time>2017-12-01T12:53:24Z</time>
      </trkpt>
      <trkpt lat="45.25784" lon="6.01555">
        <ele>1628.4539794922</ele>
        <time>2017-12-01T12:53:28Z</time>
      </trkpt>
      <trkpt lat="45.25788" lon="6.01557">
        <ele>1629.4539794922</ele>
        <time>2017-12-01T12:53:33Z</time>
      </trkpt>
      <trkpt lat="45.25793" lon="6.0156">
        <ele>1631.4539794922</ele>
        <time>2017-12-01T12:53:39Z</time>
      </trkpt>
      <trkpt lat="45.25798" lon="6.01563">
        <ele>1631.4539794922</ele>
        <time>2017-12-01T12:53:45Z</time>
      </trkpt>
      <trkpt lat="45.25801" lon="6.01568">
        <ele>1632.4539794922</ele>
        <time>2017-12-01T12:53:49Z</time>
      </trkpt>
      <trkpt lat="45.25806" lon="6.0157">
        <ele>1635.4539794922</ele>
        <time>2017-12-01T12:53:56Z</time>
      </trkpt>
      <trkpt lat="45.25809" lon="6.01576">
        <ele>1639.4539794922</ele>
        <time>2017-12-01T12:54:02Z</time>
      </trkpt>
      <trkpt lat="45.25813" lon="6.01581">
        <ele>1642.4539794922</ele>
        <time>2017-12-01T12:54:08Z</time>
      </trkpt>
      <trkpt lat="45.25817" lon="6.01587">
        <ele>1644.4539794922</ele>
        <time>2017-12-01T12:54:16Z</time>
      </trkpt>
      <trkpt lat="45.25821" lon="6.01592">
        <ele>1645.4539794922</ele>
        <time>2017-12-01T12:54:22Z</time>
      </trkpt>
      <trkpt lat="45.25824" lon="6.01597">
        <ele>1647.4539794922</ele>
        <time>2017-12-01T12:55:00Z</time>
      </trkpt>
      <trkpt lat="45.25827" lon="6.01602">
        <ele>1647.4539794922</ele>
        <time>2017-12-01T12:55:08Z</time>
      </trkpt>
      <trkpt lat="45.2583" lon="6.01609">
        <ele>1648.4539794922</ele>
        <time>2017-12-01T12:55:14Z</time>
      </trkpt>
      <trkpt lat="45.25834" lon="6.01615">
        <ele>1648.4539794922</ele>
        <time>2017-12-01T12:55:20Z</time>
      </trkpt>
      <trkpt lat="45.25835" lon="6.01622">
        <ele>1646.4539794922</ele>
        <time>2017-12-01T12:55:24Z</time>
      </trkpt>
      <trkpt lat="45.25836" lon="6.01628">
        <ele>1650.4539794922</ele>
        <time>2017-12-01T12:55:45Z</time>
      </trkpt>
      <trkpt lat="45.25841" lon="6.01631">
        <ele>1646.4539794922</ele>
        <time>2017-12-01T12:56:16Z</time>
      </trkpt>
      <trkpt lat="45.25845" lon="6.01637">
        <ele>1651.4539794922</ele>
        <time>2017-12-01T12:56:26Z</time>
      </trkpt>
      <trkpt lat="45.2585" lon="6.01638">
        <ele>1654.4539794922</ele>
        <time>2017-12-01T12:56:33Z</time>
      </trkpt>
      <trkpt lat="45.25854" lon="6.01643">
        <ele>1654.4539794922</ele>
        <time>2017-12-01T12:56:37Z</time>
      </trkpt>
      <trkpt lat="45.25858" lon="6.01648">
        <ele>1658.4539794922</ele>
        <time>2017-12-01T12:56:45Z</time>
      </trkpt>
      <trkpt lat="45.25861" lon="6.01652">
        <ele>1659.4539794922</ele>
        <time>2017-12-01T12:56:55Z</time>
      </trkpt>
      <trkpt lat="45.25866" lon="6.01657">
        <ele>1661.4539794922</ele>
        <time>2017-12-01T12:57:04Z</time>
      </trkpt>
      <trkpt lat="45.25869" lon="6.01664">
        <ele>1661.4539794922</ele>
        <time>2017-12-01T12:57:11Z</time>
      </trkpt>
      <trkpt lat="45.25871" lon="6.01672">
        <ele>1663.4539794922</ele>
        <time>2017-12-01T12:57:17Z</time>
      </trkpt>
      <trkpt lat="45.25874" lon="6.01676">
        <ele>1665.4539794922</ele>
        <time>2017-12-01T12:57:27Z</time>
      </trkpt>
      <trkpt lat="45.25876" lon="6.01683">
        <ele>1664.4539794922</ele>
        <time>2017-12-01T12:57:33Z</time>
      </trkpt>
      <trkpt lat="45.25878" lon="6.01688">
        <ele>1666.4539794922</ele>
        <time>2017-12-01T12:57:39Z</time>
      </trkpt>
      <trkpt lat="45.2588" lon="6.01694">
        <ele>1666.4539794922</ele>
        <time>2017-12-01T12:57:47Z</time>
      </trkpt>
      <trkpt lat="45.25881" lon="6.01701">
        <ele>1669.4539794922</ele>
        <time>2017-12-01T12:57:54Z</time>
      </trkpt>
      <trkpt lat="45.25883" lon="6.01707">
        <ele>1674.4539794922</ele>
        <time>2017-12-01T12:58:01Z</time>
      </trkpt>
      <trkpt lat="45.25885" lon="6.01713">
        <ele>1676.4539794922</ele>
        <time>2017-12-01T12:58:08Z</time>
      </trkpt>
      <trkpt lat="45.2589" lon="6.01717">
        <ele>1680.4539794922</ele>
        <time>2017-12-01T12:58:18Z</time>
      </trkpt>
      <trkpt lat="45.25894" lon="6.01718">
        <ele>1680.4539794922</ele>
        <time>2017-12-01T12:58:24Z</time>
      </trkpt>
      <trkpt lat="45.25897" lon="6.01724">
        <ele>1679.4539794922</ele>
        <time>2017-12-01T12:58:39Z</time>
      </trkpt>
      <trkpt lat="45.25902" lon="6.01727">
        <ele>1681.4539794922</ele>
        <time>2017-12-01T12:58:45Z</time>
      </trkpt>
      <trkpt lat="45.25905" lon="6.01733">
        <ele>1677.4539794922</ele>
        <time>2017-12-01T12:58:49Z</time>
      </trkpt>
      <trkpt lat="45.25911" lon="6.01737">
        <ele>1682.4539794922</ele>
        <time>2017-12-01T12:58:58Z</time>
      </trkpt>
      <trkpt lat="45.25915" lon="6.0174">
        <ele>1683.4539794922</ele>
        <time>2017-12-01T12:59:10Z</time>
      </trkpt>
      <trkpt lat="45.25918" lon="6.01745">
        <ele>1683.4539794922</ele>
        <time>2017-12-01T12:59:18Z</time>
      </trkpt>
      <trkpt lat="45.25921" lon="6.0175">
        <ele>1686.4539794922</ele>
        <time>2017-12-01T12:59:29Z</time>
      </trkpt>
      <trkpt lat="45.25924" lon="6.01756">
        <ele>1687.4539794922</ele>
        <time>2017-12-01T12:59:33Z</time>
      </trkpt>
      <trkpt lat="45.25928" lon="6.01759">
        <ele>1689.4539794922</ele>
        <time>2017-12-01T12:59:39Z</time>
      </trkpt>
      <trkpt lat="45.25933" lon="6.01762">
        <ele>1689.4539794922</ele>
        <time>2017-12-01T12:59:45Z</time>
      </trkpt>
      <trkpt lat="45.25937" lon="6.01766">
        <ele>1689.4539794922</ele>
        <time>2017-12-01T12:59:52Z</time>
      </trkpt>
      <trkpt lat="45.25942" lon="6.01769">
        <ele>1691.4539794922</ele>
        <time>2017-12-01T13:00:01Z</time>
      </trkpt>
      <trkpt lat="45.25945" lon="6.01774">
        <ele>1691.4539794922</ele>
        <time>2017-12-01T13:00:08Z</time>
      </trkpt>
      <trkpt lat="45.25949" lon="6.01779">
        <ele>1694.4539794922</ele>
        <time>2017-12-01T13:00:17Z</time>
      </trkpt>
      <trkpt lat="45.25952" lon="6.01784">
        <ele>1690.4539794922</ele>
        <time>2017-12-01T13:00:22Z</time>
      </trkpt>
      <trkpt lat="45.25953" lon="6.0179">
        <ele>1690.4539794922</ele>
        <time>2017-12-01T13:00:28Z</time>
      </trkpt>
      <trkpt lat="45.25956" lon="6.01796">
        <ele>1689.4539794922</ele>
        <time>2017-12-01T13:00:38Z</time>
      </trkpt>
      <trkpt lat="45.25959" lon="6.01802">
        <ele>1689.4539794922</ele>
        <time>2017-12-01T13:00:43Z</time>
      </trkpt>
      <trkpt lat="45.25962" lon="6.01808">
        <ele>1690.4539794922</ele>
        <time>2017-12-01T13:00:49Z</time>
      </trkpt>
      <trkpt lat="45.25961" lon="6.01815">
        <ele>1689.4539794922</ele>
        <time>2017-12-01T13:00:56Z</time>
      </trkpt>
      <trkpt lat="45.25963" lon="6.01821">
        <ele>1692.4539794922</ele>
        <time>2017-12-01T13:01:10Z</time>
      </trkpt>
      <trkpt lat="45.25961" lon="6.01827">
        <ele>1694.4539794922</ele>
        <time>2017-12-01T13:01:14Z</time>
      </trkpt>
      <trkpt lat="45.25959" lon="6.01834">
        <ele>1694.4539794922</ele>
        <time>2017-12-01T13:01:19Z</time>
      </trkpt>
      <trkpt lat="45.25959" lon="6.0184">
        <ele>1698.4539794922</ele>
        <time>2017-12-01T13:01:46Z</time>
      </trkpt>
      <trkpt lat="45.25956" lon="6.01847">
        <ele>1699.4539794922</ele>
        <time>2017-12-01T13:03:04Z</time>
      </trkpt>
      <trkpt lat="45.25952" lon="6.0185">
        <ele>1702.4539794922</ele>
        <time>2017-12-01T13:03:13Z</time>
      </trkpt>
      <trkpt lat="45.25947" lon="6.01847">
        <ele>1703.4539794922</ele>
        <time>2017-12-01T13:03:16Z</time>
      </trkpt>
      <trkpt lat="45.25942" lon="6.01845">
        <ele>1702.4539794922</ele>
        <time>2017-12-01T13:03:20Z</time>
      </trkpt>
      <trkpt lat="45.25937" lon="6.01842">
        <ele>1703.4539794922</ele>
        <time>2017-12-01T13:03:24Z</time>
      </trkpt>
      <trkpt lat="45.25933" lon="6.01839">
        <ele>1705.4539794922</ele>
        <time>2017-12-01T13:03:28Z</time>
      </trkpt>
      <trkpt lat="45.25929" lon="6.01843">
        <ele>1704.4539794922</ele>
        <time>2017-12-01T13:03:32Z</time>
      </trkpt>
      <trkpt lat="45.25924" lon="6.01842">
        <ele>1707.4539794922</ele>
        <time>2017-12-01T13:03:37Z</time>
      </trkpt>
      <trkpt lat="45.25919" lon="6.01843">
        <ele>1708.4539794922</ele>
        <time>2017-12-01T13:03:40Z</time>
      </trkpt>
      <trkpt lat="45.25915" lon="6.01844">
        <ele>1707.4539794922</ele>
        <time>2017-12-01T13:03:48Z</time>
      </trkpt>
      <trkpt lat="45.25911" lon="6.01846">
        <ele>1708.4539794922</ele>
        <time>2017-12-01T13:03:54Z</time>
      </trkpt>
      <trkpt lat="45.25905" lon="6.01844">
        <ele>1712.4539794922</ele>
        <time>2017-12-01T13:03:58Z</time>
      </trkpt>
      <trkpt lat="45.25899" lon="6.01845">
        <ele>1714.4539794922</ele>
        <time>2017-12-01T13:04:05Z</time>
      </trkpt>
      <trkpt lat="45.25894" lon="6.01848">
        <ele>1715.4539794922</ele>
        <time>2017-12-01T13:04:12Z</time>
      </trkpt>
      <trkpt lat="45.25889" lon="6.01849">
        <ele>1714.4539794922</ele>
        <time>2017-12-01T13:04:21Z</time>
      </trkpt>
      <trkpt lat="45.25884" lon="6.0185">
        <ele>1716.4539794922</ele>
        <time>2017-12-01T13:04:26Z</time>
      </trkpt>
      <trkpt lat="45.2588" lon="6.01853">
        <ele>1714.4539794922</ele>
        <time>2017-12-01T13:04:34Z</time>
      </trkpt>
      <trkpt lat="45.25875" lon="6.01856">
        <ele>1711.4539794922</ele>
        <time>2017-12-01T13:04:42Z</time>
      </trkpt>
      <trkpt lat="45.25871" lon="6.01859">
        <ele>1714.4539794922</ele>
        <time>2017-12-01T13:04:55Z</time>
      </trkpt>
      <trkpt lat="45.25867" lon="6.01862">
        <ele>1716.4539794922</ele>
        <time>2017-12-01T13:05:00Z</time>
      </trkpt>
      <trkpt lat="45.25861" lon="6.01862">
        <ele>1720.4539794922</ele>
        <time>2017-12-01T13:05:06Z</time>
      </trkpt>
      <trkpt lat="45.25857" lon="6.01866">
        <ele>1723.4539794922</ele>
        <time>2017-12-01T13:05:14Z</time>
      </trkpt>
      <trkpt lat="45.25852" lon="6.0187">
        <ele>1727.4539794922</ele>
        <time>2017-12-01T13:05:20Z</time>
      </trkpt>
      <trkpt lat="45.2585" lon="6.01876">
        <ele>1731.4539794922</ele>
        <time>2017-12-01T13:05:32Z</time>
      </trkpt>
      <trkpt lat="45.25853" lon="6.01882">
        <ele>1731.4539794922</ele>
        <time>2017-12-01T13:05:39Z</time>
      </trkpt>
      <trkpt lat="45.25856" lon="6.01888">
        <ele>1730.4539794922</ele>
        <time>2017-12-01T13:05:52Z</time>
      </trkpt>
      <trkpt lat="45.2586" lon="6.01893">
        <ele>1731.4539794922</ele>
        <time>2017-12-01T13:05:58Z</time>
      </trkpt>
      <trkpt lat="45.25862" lon="6.01899">
        <ele>1731.4539794922</ele>
        <time>2017-12-01T13:06:04Z</time>
      </trkpt>
      <trkpt lat="45.25863" lon="6.01905">
        <ele>1737.4539794922</ele>
        <time>2017-12-01T13:06:15Z</time>
      </trkpt>
      <trkpt lat="45.25863" lon="6.01912">
        <ele>1738.4539794922</ele>
        <time>2017-12-01T13:06:24Z</time>
      </trkpt>
      <trkpt lat="45.2586" lon="6.01918">
        <ele>1739.4539794922</ele>
        <time>2017-12-01T13:06:28Z</time>
      </trkpt>
      <trkpt lat="45.25856" lon="6.01922">
        <ele>1740.4539794922</ele>
        <time>2017-12-01T13:06:34Z</time>
      </trkpt>
      <trkpt lat="45.25852" lon="6.01927">
        <ele>1739.4539794922</ele>
        <time>2017-12-01T13:06:38Z</time>
      </trkpt>
      <trkpt lat="45.25848" lon="6.0193">
        <ele>1741.4539794922</ele>
        <time>2017-12-01T13:06:43Z</time>
      </trkpt>
      <trkpt lat="45.25843" lon="6.0193">
        <ele>1743.4539794922</ele>
        <time>2017-12-01T13:06:50Z</time>
      </trkpt>
      <trkpt lat="45.25838" lon="6.01933">
        <ele>1742.4539794922</ele>
        <time>2017-12-01T13:06:57Z</time>
      </trkpt>
      <trkpt lat="45.25832" lon="6.01935">
        <ele>1745.4539794922</ele>
        <time>2017-12-01T13:07:04Z</time>
      </trkpt>
      <trkpt lat="45.25828" lon="6.01938">
        <ele>1746.4539794922</ele>
        <time>2017-12-01T13:07:11Z</time>
      </trkpt>
      <trkpt lat="45.25823" lon="6.01939">
        <ele>1749.4539794922</ele>
        <time>2017-12-01T13:07:18Z</time>
      </trkpt>
      <trkpt lat="45.25817" lon="6.0194">
        <ele>1750.4539794922</ele>
        <time>2017-12-01T13:07:25Z</time>
      </trkpt>
      <trkpt lat="45.25812" lon="6.01942">
        <ele>1751.4539794922</ele>
        <time>2017-12-01T13:07:30Z</time>
      </trkpt>
      <trkpt lat="45.25807" lon="6.01944">
        <ele>1749.4539794922</ele>
        <time>2017-12-01T13:07:38Z</time>
      </trkpt>
      <trkpt lat="45.25803" lon="6.01945">
        <ele>1752.4539794922</ele>
        <time>2017-12-01T13:07:45Z</time>
      </trkpt>
      <trkpt lat="45.25798" lon="6.01945">
        <ele>1757.4539794922</ele>
        <time>2017-12-01T13:07:53Z</time>
      </trkpt>
      <trkpt lat="45.25794" lon="6.01948">
        <ele>1758.4539794922</ele>
        <time>2017-12-01T13:07:58Z</time>
      </trkpt>
      <trkpt lat="45.25792" lon="6.01954">
        <ele>1759.4539794922</ele>
        <time>2017-12-01T13:08:03Z</time>
      </trkpt>
      <trkpt lat="45.25789" lon="6.01958">
        <ele>1759.4539794922</ele>
        <time>2017-12-01T13:08:10Z</time>
      </trkpt>
      <trkpt lat="45.25786" lon="6.01963">
        <ele>1762.4539794922</ele>
        <time>2017-12-01T13:08:17Z</time>
      </trkpt>
      <trkpt lat="45.25782" lon="6.0197">
        <ele>1762.4539794922</ele>
        <time>2017-12-01T13:08:31Z</time>
      </trkpt>
      <trkpt lat="45.2578" lon="6.01975">
        <ele>1762.4539794922</ele>
        <time>2017-12-01T13:08:36Z</time>
      </trkpt>
      <trkpt lat="45.25778" lon="6.01982">
        <ele>1762.4539794922</ele>
        <time>2017-12-01T13:08:42Z</time>
      </trkpt>
      <trkpt lat="45.25775" lon="6.01986">
        <ele>1764.4539794922</ele>
        <time>2017-12-01T13:08:49Z</time>
      </trkpt>
      <trkpt lat="45.25769" lon="6.0199">
        <ele>1768.4539794922</ele>
        <time>2017-12-01T13:08:56Z</time>
      </trkpt>
      <trkpt lat="45.25765" lon="6.01993">
        <ele>1772.4539794922</ele>
        <time>2017-12-01T13:09:04Z</time>
      </trkpt>
      <trkpt lat="45.2576" lon="6.01997">
        <ele>1772.4539794922</ele>
        <time>2017-12-01T13:09:16Z</time>
      </trkpt>
      <trkpt lat="45.25757" lon="6.02002">
        <ele>1771.4539794922</ele>
        <time>2017-12-01T13:09:20Z</time>
      </trkpt>
      <trkpt lat="45.25752" lon="6.02005">
        <ele>1773.4539794922</ele>
        <time>2017-12-01T13:09:27Z</time>
      </trkpt>
      <trkpt lat="45.25748" lon="6.02008">
        <ele>1771.4539794922</ele>
        <time>2017-12-01T13:09:33Z</time>
      </trkpt>
      <trkpt lat="45.25744" lon="6.02012">
        <ele>1771.4539794922</ele>
        <time>2017-12-01T13:09:40Z</time>
      </trkpt>
      <trkpt lat="45.25739" lon="6.02015">
        <ele>1773.4539794922</ele>
        <time>2017-12-01T13:09:46Z</time>
      </trkpt>
      <trkpt lat="45.25735" lon="6.02021">
        <ele>1773.4539794922</ele>
        <time>2017-12-01T13:09:51Z</time>
      </trkpt>
      <trkpt lat="45.25732" lon="6.02026">
        <ele>1773.4539794922</ele>
        <time>2017-12-01T13:10:01Z</time>
      </trkpt>
      <trkpt lat="45.25727" lon="6.02029">
        <ele>1777.4539794922</ele>
        <time>2017-12-01T13:10:08Z</time>
      </trkpt>
      <trkpt lat="45.25723" lon="6.02033">
        <ele>1783.4539794922</ele>
        <time>2017-12-01T13:10:29Z</time>
      </trkpt>
      <trkpt lat="45.25719" lon="6.02038">
        <ele>1780.4539794922</ele>
        <time>2017-12-01T13:10:38Z</time>
      </trkpt>
      <trkpt lat="45.25716" lon="6.02042">
        <ele>1783.4539794922</ele>
        <time>2017-12-01T13:10:43Z</time>
      </trkpt>
      <trkpt lat="45.25712" lon="6.02049">
        <ele>1785.4539794922</ele>
        <time>2017-12-01T13:10:47Z</time>
      </trkpt>
      <trkpt lat="45.25708" lon="6.02053">
        <ele>1787.4539794922</ele>
        <time>2017-12-01T13:10:52Z</time>
      </trkpt>
      <trkpt lat="45.25705" lon="6.02059">
        <ele>1788.4539794922</ele>
        <time>2017-12-01T13:10:58Z</time>
      </trkpt>
      <trkpt lat="45.25702" lon="6.02064">
        <ele>1792.4539794922</ele>
        <time>2017-12-01T13:11:07Z</time>
      </trkpt>
      <trkpt lat="45.25699" lon="6.02069">
        <ele>1795.4539794922</ele>
        <time>2017-12-01T13:11:13Z</time>
      </trkpt>
      <trkpt lat="45.25697" lon="6.02075">
        <ele>1795.4539794922</ele>
        <time>2017-12-01T13:11:23Z</time>
      </trkpt>
      <trkpt lat="45.25696" lon="6.02082">
        <ele>1795.4539794922</ele>
        <time>2017-12-01T13:11:32Z</time>
      </trkpt>
      <trkpt lat="45.25694" lon="6.02089">
        <ele>1796.4539794922</ele>
        <time>2017-12-01T13:11:38Z</time>
      </trkpt>
      <trkpt lat="45.25693" lon="6.02095">
        <ele>1791.4539794922</ele>
        <time>2017-12-01T13:11:47Z</time>
      </trkpt>
      <trkpt lat="45.25691" lon="6.02101">
        <ele>1793.4539794922</ele>
        <time>2017-12-01T13:12:01Z</time>
      </trkpt>
      <trkpt lat="45.25688" lon="6.02108">
        <ele>1797.4539794922</ele>
        <time>2017-12-01T13:12:09Z</time>
      </trkpt>
      <trkpt lat="45.25686" lon="6.02114">
        <ele>1803.4539794922</ele>
        <time>2017-12-01T13:12:15Z</time>
      </trkpt>
      <trkpt lat="45.25689" lon="6.02119">
        <ele>1803.4539794922</ele>
        <time>2017-12-01T13:12:20Z</time>
      </trkpt>
      <trkpt lat="45.25694" lon="6.02121">
        <ele>1803.4539794922</ele>
        <time>2017-12-01T13:12:26Z</time>
      </trkpt>
      <trkpt lat="45.257" lon="6.02123">
        <ele>1804.4539794922</ele>
        <time>2017-12-01T13:12:34Z</time>
      </trkpt>
      <trkpt lat="45.25705" lon="6.02119">
        <ele>1805.4539794922</ele>
        <time>2017-12-01T13:12:37Z</time>
      </trkpt>
      <trkpt lat="45.2571" lon="6.02118">
        <ele>1805.4539794922</ele>
        <time>2017-12-01T13:12:41Z</time>
      </trkpt>
      <trkpt lat="45.25715" lon="6.0212">
        <ele>1809.4539794922</ele>
        <time>2017-12-01T13:12:49Z</time>
      </trkpt>
      <trkpt lat="45.2572" lon="6.02121">
        <ele>1811.4539794922</ele>
        <time>2017-12-01T13:12:55Z</time>
      </trkpt>
      <trkpt lat="45.25725" lon="6.0212">
        <ele>1807.4539794922</ele>
        <time>2017-12-01T13:13:06Z</time>
      </trkpt>
      <trkpt lat="45.2573" lon="6.02119">
        <ele>1809.4539794922</ele>
        <time>2017-12-01T13:13:12Z</time>
      </trkpt>
      <trkpt lat="45.25736" lon="6.0212">
        <ele>1809.4539794922</ele>
        <time>2017-12-01T13:13:17Z</time>
      </trkpt>
      <trkpt lat="45.25741" lon="6.0212">
        <ele>1808.4539794922</ele>
        <time>2017-12-01T13:13:27Z</time>
      </trkpt>
      <trkpt lat="45.25745" lon="6.02121">
        <ele>1810.4539794922</ele>
        <time>2017-12-01T13:13:37Z</time>
      </trkpt>
      <trkpt lat="45.2575" lon="6.02121">
        <ele>1812.4539794922</ele>
        <time>2017-12-01T13:13:41Z</time>
      </trkpt>
      <trkpt lat="45.25755" lon="6.02121">
        <ele>1813.4539794922</ele>
        <time>2017-12-01T13:13:45Z</time>
      </trkpt>
      <trkpt lat="45.2576" lon="6.02119">
        <ele>1817.4539794922</ele>
        <time>2017-12-01T13:13:53Z</time>
      </trkpt>
      <trkpt lat="45.25764" lon="6.02119">
        <ele>1819.4539794922</ele>
        <time>2017-12-01T13:14:00Z</time>
      </trkpt>
      <trkpt lat="45.25769" lon="6.02121">
        <ele>1820.4539794922</ele>
        <time>2017-12-01T13:14:03Z</time>
      </trkpt>
      <trkpt lat="45.25774" lon="6.02122">
        <ele>1821.4539794922</ele>
        <time>2017-12-01T13:14:10Z</time>
      </trkpt>
      <trkpt lat="45.25778" lon="6.02125">
        <ele>1820.4539794922</ele>
        <time>2017-12-01T13:14:16Z</time>
      </trkpt>
      <trkpt lat="45.25783" lon="6.02129">
        <ele>1820.4539794922</ele>
        <time>2017-12-01T13:14:20Z</time>
      </trkpt>
      <trkpt lat="45.25788" lon="6.02127">
        <ele>1822.4539794922</ele>
        <time>2017-12-01T13:14:26Z</time>
      </trkpt>
      <trkpt lat="45.25794" lon="6.02129">
        <ele>1825.4549560547</ele>
        <time>2017-12-01T13:14:32Z</time>
      </trkpt>
      <trkpt lat="45.25798" lon="6.02135">
        <ele>1824.4549560547</ele>
        <time>2017-12-01T13:14:40Z</time>
      </trkpt>
      <trkpt lat="45.25803" lon="6.0214">
        <ele>1824.4549560547</ele>
        <time>2017-12-01T13:14:45Z</time>
      </trkpt>
      <trkpt lat="45.25807" lon="6.02143">
        <ele>1824.4549560547</ele>
        <time>2017-12-01T13:14:52Z</time>
      </trkpt>
      <trkpt lat="45.25814" lon="6.02145">
        <ele>1826.4549560547</ele>
        <time>2017-12-01T13:15:00Z</time>
      </trkpt>
      <trkpt lat="45.25817" lon="6.02151">
        <ele>1827.4549560547</ele>
        <time>2017-12-01T13:15:10Z</time>
      </trkpt>
      <trkpt lat="45.25821" lon="6.02156">
        <ele>1829.4549560547</ele>
        <time>2017-12-01T13:15:17Z</time>
      </trkpt>
      <trkpt lat="45.25825" lon="6.0216">
        <ele>1831.4549560547</ele>
        <time>2017-12-01T13:15:22Z</time>
      </trkpt>
      <trkpt lat="45.25828" lon="6.02168">
        <ele>1828.4549560547</ele>
        <time>2017-12-01T13:15:27Z</time>
      </trkpt>
      <trkpt lat="45.25831" lon="6.02173">
        <ele>1830.4549560547</ele>
        <time>2017-12-01T13:15:31Z</time>
      </trkpt>
      <trkpt lat="45.25835" lon="6.02177">
        <ele>1831.4549560547</ele>
        <time>2017-12-01T13:15:36Z</time>
      </trkpt>
      <trkpt lat="45.25839" lon="6.02181">
        <ele>1831.4549560547</ele>
        <time>2017-12-01T13:15:41Z</time>
      </trkpt>
      <trkpt lat="45.25843" lon="6.02186">
        <ele>1833.4549560547</ele>
        <time>2017-12-01T13:15:46Z</time>
      </trkpt>
      <trkpt lat="45.25846" lon="6.02191">
        <ele>1834.4549560547</ele>
        <time>2017-12-01T13:15:51Z</time>
      </trkpt>
      <trkpt lat="45.25851" lon="6.02196">
        <ele>1838.4549560547</ele>
        <time>2017-12-01T13:16:03Z</time>
      </trkpt>
      <trkpt lat="45.25856" lon="6.02201">
        <ele>1839.4549560547</ele>
        <time>2017-12-01T13:16:07Z</time>
      </trkpt>
      <trkpt lat="45.25859" lon="6.02206">
        <ele>1839.4549560547</ele>
        <time>2017-12-01T13:16:12Z</time>
      </trkpt>
      <trkpt lat="45.25863" lon="6.02211">
        <ele>1840.4549560547</ele>
        <time>2017-12-01T13:16:18Z</time>
      </trkpt>
      <trkpt lat="45.25867" lon="6.02214">
        <ele>1843.4549560547</ele>
        <time>2017-12-01T13:16:25Z</time>
      </trkpt>
      <trkpt lat="45.25869" lon="6.02222">
        <ele>1841.4549560547</ele>
        <time>2017-12-01T13:16:28Z</time>
      </trkpt>
      <trkpt lat="45.25873" lon="6.02226">
        <ele>1841.4549560547</ele>
        <time>2017-12-01T13:16:34Z</time>
      </trkpt>
      <trkpt lat="45.25875" lon="6.02232">
        <ele>1840.4549560547</ele>
        <time>2017-12-01T13:16:39Z</time>
      </trkpt>
      <trkpt lat="45.25878" lon="6.02237">
        <ele>1840.4549560547</ele>
        <time>2017-12-01T13:16:45Z</time>
      </trkpt>
      <trkpt lat="45.25882" lon="6.02241">
        <ele>1840.4549560547</ele>
        <time>2017-12-01T13:16:54Z</time>
      </trkpt>
      <trkpt lat="45.25886" lon="6.02247">
        <ele>1841.4549560547</ele>
        <time>2017-12-01T13:17:00Z</time>
      </trkpt>
      <trkpt lat="45.2589" lon="6.02251">
        <ele>1841.4549560547</ele>
        <time>2017-12-01T13:17:04Z</time>
      </trkpt>
      <trkpt lat="45.25893" lon="6.02256">
        <ele>1840.4549560547</ele>
        <time>2017-12-01T13:17:09Z</time>
      </trkpt>
      <trkpt lat="45.25896" lon="6.02263">
        <ele>1845.4549560547</ele>
        <time>2017-12-01T13:17:55Z</time>
      </trkpt>
      <trkpt lat="45.25898" lon="6.02269">
        <ele>1848.4549560547</ele>
        <time>2017-12-01T13:18:02Z</time>
      </trkpt>
      <trkpt lat="45.25902" lon="6.02273">
        <ele>1851.4549560547</ele>
        <time>2017-12-01T13:18:12Z</time>
      </trkpt>
      <trkpt lat="45.25907" lon="6.02275">
        <ele>1853.4549560547</ele>
        <time>2017-12-01T13:18:21Z</time>
      </trkpt>
      <trkpt lat="45.2591" lon="6.02264">
        <ele>1845.4549560547</ele>
        <time>2017-12-01T13:28:18Z</time>
      </trkpt>
      <trkpt lat="45.25917" lon="6.02245">
        <ele>1837.4549560547</ele>
        <time>2017-12-01T13:28:20Z</time>
      </trkpt>
      <trkpt lat="45.25928" lon="6.02232">
        <ele>1828.4549560547</ele>
        <time>2017-12-01T13:28:22Z</time>
      </trkpt>
      <trkpt lat="45.25936" lon="6.02216">
        <ele>1820.4549560547</ele>
        <time>2017-12-01T13:28:24Z</time>
      </trkpt>
      <trkpt lat="45.25945" lon="6.022">
        <ele>1807.4549560547</ele>
        <time>2017-12-01T13:28:26Z</time>
      </trkpt>
      <trkpt lat="45.2595" lon="6.02179">
        <ele>1796.4549560547</ele>
        <time>2017-12-01T13:28:28Z</time>
      </trkpt>
      <trkpt lat="45.25956" lon="6.0216">
        <ele>1783.4549560547</ele>
        <time>2017-12-01T13:28:30Z</time>
      </trkpt>
      <trkpt lat="45.25955" lon="6.02144">
        <ele>1776.4549560547</ele>
        <time>2017-12-01T13:28:32Z</time>
      </trkpt>
      <trkpt lat="45.25956" lon="6.02137">
        <ele>1774.4549560547</ele>
        <time>2017-12-01T13:28:34Z</time>
      </trkpt>
      <trkpt lat="45.2596" lon="6.02133">
        <ele>1774.4549560547</ele>
        <time>2017-12-01T13:29:57Z</time>
      </trkpt>
      <trkpt lat="45.25966" lon="6.02123">
        <ele>1771.4549560547</ele>
        <time>2017-12-01T13:29:59Z</time>
      </trkpt>
      <trkpt lat="45.25981" lon="6.02091">
        <ele>1765.4549560547</ele>
        <time>2017-12-01T13:30:02Z</time>
      </trkpt>
      <trkpt lat="45.25993" lon="6.02084">
        <ele>1754.4549560547</ele>
        <time>2017-12-01T13:30:03Z</time>
      </trkpt>
      <trkpt lat="45.2601" lon="6.02062">
        <ele>1738.4549560547</ele>
        <time>2017-12-01T13:30:05Z</time>
      </trkpt>
      <trkpt lat="45.26016" lon="6.0205">
        <ele>1730.4549560547</ele>
        <time>2017-12-01T13:30:06Z</time>
      </trkpt>
      <trkpt lat="45.26023" lon="6.02038">
        <ele>1724.4549560547</ele>
        <time>2017-12-01T13:30:07Z</time>
      </trkpt>
      <trkpt lat="45.26039" lon="6.0202">
        <ele>1712.4549560547</ele>
        <time>2017-12-01T13:30:09Z</time>
      </trkpt>
      <trkpt lat="45.26051" lon="6.02001">
        <ele>1704.4549560547</ele>
        <time>2017-12-01T13:30:11Z</time>
      </trkpt>
      <trkpt lat="45.26059" lon="6.01989">
        <ele>1698.4549560547</ele>
        <time>2017-12-01T13:30:13Z</time>
      </trkpt>
      <trkpt lat="45.26056" lon="6.01992">
        <ele>1693.4549560547</ele>
        <time>2017-12-01T13:30:17Z</time>
      </trkpt>
      <trkpt lat="45.2606" lon="6.01989">
        <ele>1687.4549560547</ele>
        <time>2017-12-01T13:32:22Z</time>
      </trkpt>
      <trkpt lat="45.26066" lon="6.01986">
        <ele>1686.4549560547</ele>
        <time>2017-12-01T13:32:24Z</time>
      </trkpt>
      <trkpt lat="45.2607" lon="6.01982">
        <ele>1684.4549560547</ele>
        <time>2017-12-01T13:32:26Z</time>
      </trkpt>
      <trkpt lat="45.26075" lon="6.01977">
        <ele>1684.4549560547</ele>
        <time>2017-12-01T13:32:28Z</time>
      </trkpt>
      <trkpt lat="45.26078" lon="6.0197">
        <ele>1685.4549560547</ele>
        <time>2017-12-01T13:32:30Z</time>
      </trkpt>
      <trkpt lat="45.26085" lon="6.01961">
        <ele>1683.4549560547</ele>
        <time>2017-12-01T13:32:32Z</time>
      </trkpt>
      <trkpt lat="45.26093" lon="6.01955">
        <ele>1681.4549560547</ele>
        <time>2017-12-01T13:32:34Z</time>
      </trkpt>
      <trkpt lat="45.26107" lon="6.01959">
        <ele>1681.4549560547</ele>
        <time>2017-12-01T13:32:37Z</time>
      </trkpt>
      <trkpt lat="45.26114" lon="6.01961">
        <ele>1679.4549560547</ele>
        <time>2017-12-01T13:32:39Z</time>
      </trkpt>
      <trkpt lat="45.26121" lon="6.01962">
        <ele>1677.4549560547</ele>
        <time>2017-12-01T13:32:41Z</time>
      </trkpt>
      <trkpt lat="45.26126" lon="6.01962">
        <ele>1676.4549560547</ele>
        <time>2017-12-01T13:32:43Z</time>
      </trkpt>
      <trkpt lat="45.2613" lon="6.01964">
        <ele>1675.4549560547</ele>
        <time>2017-12-01T13:32:45Z</time>
      </trkpt>
      <trkpt lat="45.26138" lon="6.01964">
        <ele>1675.4549560547</ele>
        <time>2017-12-01T13:32:47Z</time>
      </trkpt>
      <trkpt lat="45.26145" lon="6.01964">
        <ele>1673.4549560547</ele>
        <time>2017-12-01T13:32:49Z</time>
      </trkpt>
      <trkpt lat="45.26151" lon="6.01962">
        <ele>1672.4549560547</ele>
        <time>2017-12-01T13:32:51Z</time>
      </trkpt>
      <trkpt lat="45.26159" lon="6.01959">
        <ele>1672.4549560547</ele>
        <time>2017-12-01T13:32:53Z</time>
      </trkpt>
      <trkpt lat="45.26162" lon="6.01954">
        <ele>1671.4549560547</ele>
        <time>2017-12-01T13:32:55Z</time>
      </trkpt>
      <trkpt lat="45.26167" lon="6.01951">
        <ele>1671.4549560547</ele>
        <time>2017-12-01T13:32:57Z</time>
      </trkpt>
      <trkpt lat="45.26173" lon="6.01951">
        <ele>1669.4549560547</ele>
        <time>2017-12-01T13:32:59Z</time>
      </trkpt>
      <trkpt lat="45.26182" lon="6.01952">
        <ele>1669.4549560547</ele>
        <time>2017-12-01T13:33:01Z</time>
      </trkpt>
      <trkpt lat="45.26193" lon="6.01952">
        <ele>1668.4549560547</ele>
        <time>2017-12-01T13:33:03Z</time>
      </trkpt>
      <trkpt lat="45.26204" lon="6.01952">
        <ele>1668.4549560547</ele>
        <time>2017-12-01T13:33:05Z</time>
      </trkpt>
      <trkpt lat="45.26219" lon="6.01952">
        <ele>1665.4549560547</ele>
        <time>2017-12-01T13:33:07Z</time>
      </trkpt>
      <trkpt lat="45.26229" lon="6.01946">
        <ele>1660.4549560547</ele>
        <time>2017-12-01T13:33:08Z</time>
      </trkpt>
      <trkpt lat="45.26246" lon="6.01948">
        <ele>1660.4549560547</ele>
        <time>2017-12-01T13:33:10Z</time>
      </trkpt>
      <trkpt lat="45.26249" lon="6.01943">
        <ele>1657.4549560547</ele>
        <time>2017-12-01T13:33:11Z</time>
      </trkpt>
      <trkpt lat="45.26264" lon="6.0193">
        <ele>1651.4549560547</ele>
        <time>2017-12-01T13:33:13Z</time>
      </trkpt>
      <trkpt lat="45.26279" lon="6.01913">
        <ele>1648.4549560547</ele>
        <time>2017-12-01T13:33:15Z</time>
      </trkpt>
      <trkpt lat="45.26285" lon="6.01905">
        <ele>1647.4549560547</ele>
        <time>2017-12-01T13:33:16Z</time>
      </trkpt>
      <trkpt lat="45.263" lon="6.01887">
        <ele>1644.4549560547</ele>
        <time>2017-12-01T13:33:18Z</time>
      </trkpt>
      <trkpt lat="45.26314" lon="6.01864">
        <ele>1636.4549560547</ele>
        <time>2017-12-01T13:33:21Z</time>
      </trkpt>
      <trkpt lat="45.26324" lon="6.0185">
        <ele>1634.4549560547</ele>
        <time>2017-12-01T13:33:23Z</time>
      </trkpt>
      <trkpt lat="45.26336" lon="6.01843">
        <ele>1632.4549560547</ele>
        <time>2017-12-01T13:33:24Z</time>
      </trkpt>
      <trkpt lat="45.26356" lon="6.0183">
        <ele>1625.4549560547</ele>
        <time>2017-12-01T13:33:26Z</time>
      </trkpt>
      <trkpt lat="45.26375" lon="6.01809">
        <ele>1619.4549560547</ele>
        <time>2017-12-01T13:33:28Z</time>
      </trkpt>
      <trkpt lat="45.26384" lon="6.01766">
        <ele>1613.4549560547</ele>
        <time>2017-12-01T13:33:31Z</time>
      </trkpt>
      <trkpt lat="45.26388" lon="6.01737">
        <ele>1611.4549560547</ele>
        <time>2017-12-01T13:33:33Z</time>
      </trkpt>
      <trkpt lat="45.26386" lon="6.01723">
        <ele>1610.4549560547</ele>
        <time>2017-12-01T13:33:34Z</time>
      </trkpt>
      <trkpt lat="45.26387" lon="6.01701">
        <ele>1607.4549560547</ele>
        <time>2017-12-01T13:33:36Z</time>
      </trkpt>
      <trkpt lat="45.26388" lon="6.0169">
        <ele>1605.4549560547</ele>
        <time>2017-12-01T13:33:37Z</time>
      </trkpt>
      <trkpt lat="45.26391" lon="6.01673">
        <ele>1598.4549560547</ele>
        <time>2017-12-01T13:33:39Z</time>
      </trkpt>
      <trkpt lat="45.26399" lon="6.01653">
        <ele>1594.4549560547</ele>
        <time>2017-12-01T13:33:41Z</time>
      </trkpt>
      <trkpt lat="45.2641" lon="6.01637">
        <ele>1590.4549560547</ele>
        <time>2017-12-01T13:33:43Z</time>
      </trkpt>
      <trkpt lat="45.2642" lon="6.01625">
        <ele>1586.4549560547</ele>
        <time>2017-12-01T13:33:45Z</time>
      </trkpt>
      <trkpt lat="45.26424" lon="6.01622">
        <ele>1583.4549560547</ele>
        <time>2017-12-01T13:33:46Z</time>
      </trkpt>
      <trkpt lat="45.26436" lon="6.01612">
        <ele>1581.4549560547</ele>
        <time>2017-12-01T13:33:48Z</time>
      </trkpt>
      <trkpt lat="45.26444" lon="6.01605">
        <ele>1580.4549560547</ele>
        <time>2017-12-01T13:33:50Z</time>
      </trkpt>
      <trkpt lat="45.2645" lon="6.01601">
        <ele>1578.4549560547</ele>
        <time>2017-12-01T13:33:52Z</time>
      </trkpt>
      <trkpt lat="45.26456" lon="6.01594">
        <ele>1578.4549560547</ele>
        <time>2017-12-01T13:33:54Z</time>
      </trkpt>
      <trkpt lat="45.26459" lon="6.01586">
        <ele>1577.4549560547</ele>
        <time>2017-12-01T13:33:56Z</time>
      </trkpt>
      <trkpt lat="45.26461" lon="6.0158">
        <ele>1576.4549560547</ele>
        <time>2017-12-01T13:33:58Z</time>
      </trkpt>
      <trkpt lat="45.26462" lon="6.01572">
        <ele>1575.4549560547</ele>
        <time>2017-12-01T13:34:01Z</time>
      </trkpt>
      <trkpt lat="45.2646" lon="6.01566">
        <ele>1573.4549560547</ele>
        <time>2017-12-01T13:34:04Z</time>
      </trkpt>
      <trkpt lat="45.26455" lon="6.01561">
        <ele>1571.4549560547</ele>
        <time>2017-12-01T13:34:06Z</time>
      </trkpt>
      <trkpt lat="45.26452" lon="6.01554">
        <ele>1570.4549560547</ele>
        <time>2017-12-01T13:34:10Z</time>
      </trkpt>
      <trkpt lat="45.26449" lon="6.01549">
        <ele>1569.4549560547</ele>
        <time>2017-12-01T13:34:13Z</time>
      </trkpt>
      <trkpt lat="45.26445" lon="6.01541">
        <ele>1567.4549560547</ele>
        <time>2017-12-01T13:34:15Z</time>
      </trkpt>
      <trkpt lat="45.26446" lon="6.01529">
        <ele>1565.4549560547</ele>
        <time>2017-12-01T13:34:17Z</time>
      </trkpt>
      <trkpt lat="45.2645" lon="6.01519">
        <ele>1563.4549560547</ele>
        <time>2017-12-01T13:34:19Z</time>
      </trkpt>
      <trkpt lat="45.26454" lon="6.01511">
        <ele>1563.4549560547</ele>
        <time>2017-12-01T13:34:21Z</time>
      </trkpt>
      <trkpt lat="45.26458" lon="6.01508">
        <ele>1569.4549560547</ele>
        <time>2017-12-01T13:34:50Z</time>
      </trkpt>
      <trkpt lat="45.26462" lon="6.01504">
        <ele>1571.4549560547</ele>
        <time>2017-12-01T13:38:20Z</time>
      </trkpt>
      <trkpt lat="45.26468" lon="6.01505">
        <ele>1568.4549560547</ele>
        <time>2017-12-01T13:40:05Z</time>
      </trkpt>
      <trkpt lat="45.2647" lon="6.01499">
        <ele>1565.4549560547</ele>
        <time>2017-12-01T13:40:15Z</time>
      </trkpt>
      <trkpt lat="45.26467" lon="6.01505">
        <ele>1564.4549560547</ele>
        <time>2017-12-01T13:41:51Z</time>
      </trkpt>
      <trkpt lat="45.26463" lon="6.01503">
        <ele>1566.4549560547</ele>
        <time>2017-12-01T13:42:29Z</time>
      </trkpt>
    </trkseg>
  </trk>
</gpx>